Date StartTime U_cm/s V_cm/s W_cm/s Ustd_cm/s Vstd_cm/s Wstd_cm/s Uvar_(cm/s)^2 Vvar_(cm/s)^2 Wvar_(cm/s)^2 KE_(m/s)^2 TurbulentKE_(m/s)^2 HorizWindSpeed_cm/s FrictionSpeec_cm/s DragCoef SpeedOfSound_m/s SonicTemperature_C Pressure_mb 
07/29/2014  00:00:00     -109.576      -10.513       -2.137       80.907       66.178       35.920     6545.946     4379.528     1290.257        1.217        0.611      110.079       45.616        0.172      347.054       25.744      865.483
07/29/2014  00:01:00     -265.230      -12.878      -22.768      104.573       48.866       42.609    10935.456     2387.909     1815.512        4.308        0.757      265.542       51.458        0.038      347.142       25.891      865.472
07/29/2014  00:02:00     -207.084      -29.780       -1.483       58.267       65.110       37.116     3395.035     4239.251     1377.595        2.639        0.451      209.215       31.524        0.023      347.098       25.819      865.477
07/29/2014  00:03:00     -141.463      -62.998        5.652       84.664       59.534       39.461     7168.053     3544.317     1557.181        1.814        0.613      154.857       37.034        0.057      347.105       25.832      865.490
07/29/2014  00:04:00     -111.805      -39.598        9.620       79.348       71.610       37.102     6296.159     5128.047     1376.557        1.348        0.640      118.610       36.898        0.097      347.091       25.808      865.497
07/29/2014  00:05:00     -143.291      -27.700       -0.147       93.676       61.273       48.753     8775.169     3754.327     2376.820        1.810        0.745      145.944       49.712        0.116      347.087       25.800      865.510
07/29/2014  00:06:00     -180.250      -18.788       -6.221       92.489       73.311       53.026     8554.224     5374.484     2811.794        2.481        0.837      181.227       44.998        0.062      347.156       25.920      865.506
07/29/2014  00:07:00     -232.542      -94.120       -8.746       66.986       80.453       45.025     4487.090     6472.717     2027.233        3.800        0.649      250.867       38.633        0.024      347.120       25.855      865.504
07/29/2014  00:08:00     -255.097      -49.876       -4.633      118.681       80.103       54.275    14085.246     6416.456     2945.805        4.551        1.172      259.927       62.863        0.058      347.068       25.765      865.514
07/29/2014  00:09:00     -193.904        1.791        2.134      103.053       66.202       50.264    10619.909     4382.645     2526.518        2.756        0.876      193.912       54.733        0.080      347.062       25.755      865.516
07/29/2014  00:10:00     -219.044     -114.547       -7.807      107.665       72.945       48.173    11591.768     5320.982     2320.618        4.019        0.962      247.186       56.129        0.052      347.200       25.994      865.487
07/29/2014  00:11:00     -157.172     -129.409       -8.629      112.836       63.225       41.153    12731.924     3997.346     1693.559        2.997        0.921      203.592       45.098        0.049      347.093       25.809      865.479
07/29/2014  00:12:00      -67.872      -38.299        6.860      103.757       45.026       30.684    10765.530     2027.359      941.524        0.992        0.687       77.932       46.054        0.349      347.108       25.837      865.467
07/29/2014  00:13:00     -205.503      -17.878       -9.543       83.097       79.853       43.290     6905.122     6376.537     1874.054        2.890        0.758      206.280       42.485        0.042      347.096       25.814      865.451
07/29/2014  00:14:00     -124.853       -6.480       19.672       88.574       83.916       47.110     7845.411     7041.841     2219.396        1.656        0.855      125.021       33.304        0.071      347.026       25.696      865.449
07/29/2014  00:15:00     -159.981      -46.788       -3.832       94.709       68.761       38.754     8969.772     4728.133     1501.902        2.150        0.760      166.683       43.391        0.068      347.055       25.744      865.467
07/29/2014  00:16:00     -103.748       -1.679       16.745       98.281       79.532       45.690     9659.107     6325.273     2087.534        1.456        0.904      103.762       54.154        0.272      346.990       25.632      865.443
07/29/2014  00:17:00     -164.980      -33.148      -10.789       84.020       57.018       37.387     7059.304     3251.045     1397.758        2.007        0.585      168.277       43.586        0.067      347.088       25.801      865.428
07/29/2014  00:18:00     -109.015      -22.308       -0.488       81.859       69.250       38.899     6700.956     4795.509     1513.104        1.269        0.650      111.274       34.090        0.094      347.024       25.692      865.408
07/29/2014  00:19:00     -186.774      -57.624       -7.889       77.503       60.491       35.015     6006.667     3659.184     1226.046        2.458        0.545      195.461       36.028        0.034      346.994       25.640      865.416
07/29/2014  00:20:00     -233.248      -29.740      -17.584      106.511       86.970       39.949    11344.581     7563.739     1595.955        3.805        1.025      235.136       47.057        0.040      347.063       25.757      865.413
07/29/2014  00:21:00     -106.027      -39.507       -6.401       51.769       45.645       26.946     2680.059     2083.502      726.100        0.917        0.274      113.148       28.437        0.063      346.961       25.585      865.426
07/29/2014  00:22:00     -219.944     -114.956      -14.524       95.431       65.044       37.150     9107.044     4230.728     1380.115        3.826        0.736      248.174       37.516        0.023      347.028       25.696      865.433
07/29/2014  00:23:00     -141.207      -23.099       17.898      125.551       66.614       50.428    15763.013     4437.485     2542.962        2.176        1.137      143.084       58.015        0.164      346.988       25.630      865.444
07/29/2014  00:24:00     -265.991       -6.275      -15.552       95.401       84.122       39.098     9101.311     7076.467     1528.625        4.437        0.885      266.065       39.270        0.022      347.030       25.699      865.447
07/29/2014  00:25:00     -150.843      -99.242       -6.319       53.951       43.081       28.093     2910.734     1855.973      789.209        1.910        0.278      180.562       21.030        0.014      346.991       25.636      865.457
07/29/2014  00:26:00     -166.883      -65.715      -16.744       78.571       58.137       42.391     6173.356     3379.882     1797.027        2.190        0.568      179.355       38.561        0.046      346.952       25.568      865.450
07/29/2014  00:27:00     -161.270      -46.364       -8.002      103.853       68.999       43.746    10785.397     4760.815     1913.755        2.284        0.873      167.802       42.462        0.064      346.927       25.523      865.456
07/29/2014  00:28:00     -118.745      -52.091       10.058      116.431       46.894       36.182    13556.137     2199.013     1309.106        1.699        0.853      129.668       42.134        0.106      346.971       25.601      865.455
07/29/2014  00:29:00     -135.508      -29.158       -0.124      119.737       65.238       46.742    14336.954     4256.031     2184.840        1.999        1.039      138.610       52.455        0.143      347.003       25.655      865.447
07/29/2014  00:30:00     -213.756      -64.334      -15.053       55.620       46.724       31.839     3093.615     2183.137     1013.731        2.817        0.315      223.227       24.809        0.012      347.019       25.681      865.449
07/29/2014  00:31:00     -278.306      -53.178       -7.786       99.064       88.991       48.193     9813.678     7919.406     2322.561        5.020        1.003      283.340       48.615        0.029      347.018       25.680      865.466
07/29/2014  00:32:00     -178.210      -18.355        7.027      144.383       72.188       52.797    20846.344     5211.055     2787.492        3.049        1.442      179.152       68.000        0.144      346.938       25.544      865.477
07/29/2014  00:33:00     -214.060      -45.241       -9.516       90.867       76.309       35.328     8256.800     5823.057     1248.092        3.164        0.766      218.789       28.301        0.017      346.946       25.556      865.482
07/29/2014  00:34:00     -137.610      -30.391       -0.615       60.438       77.056       35.701     3652.724     5937.627     1274.552        1.536        0.543      140.926       30.931        0.048      346.931       25.532      865.470
07/29/2014  00:35:00       -1.834      -15.482       40.170       70.955       49.419       46.875     5034.599     2442.285     2197.278        0.576        0.484       15.590       43.446        7.766      346.841       25.379      865.462
07/29/2014  00:36:00     -197.912        9.008      -21.507       99.965       49.843       33.856     9993.087     2484.327     1146.260        2.667        0.681      198.117       38.941        0.039      346.971       25.598      865.459
07/29/2014  00:37:00     -119.031      -14.812        6.125       69.606       48.932       37.484     4844.937     2394.302     1405.048        1.153        0.432      119.949       39.311        0.107      346.949       25.565      865.447
07/29/2014  00:38:00     -217.549      -95.001       -4.743       94.475       60.671       32.570     8925.617     3680.967     1060.795        3.502        0.683      237.388       34.195        0.021      346.909       25.493      865.435
07/29/2014  00:39:00     -162.138      -65.111       -5.504       49.741       52.846       27.388     2474.165     2792.647      750.090        1.829        0.301      174.723       19.646        0.013      346.843       25.383      865.426
07/29/2014  00:40:00     -182.368      -65.177      -11.681       78.951       61.790       36.818     6233.189     3818.026     1355.583        2.452        0.570      193.664       26.943        0.019      346.798       25.304      865.435
07/29/2014  00:41:00     -121.631      -48.952        1.143       68.877       48.276       30.554     4744.082     2330.592      933.517        1.260        0.400      131.112       35.620        0.074      346.749       25.221      865.424
07/29/2014  00:42:00     -154.316      -60.308        1.145       75.486       65.157       46.452     5698.162     4245.498     2157.782        1.977        0.605      165.682       43.731        0.070      346.801       25.309      865.409
07/29/2014  00:43:00     -106.883      -25.400        7.007       74.863       71.678       35.896     5604.531     5137.778     1288.519        1.207        0.602      109.859       46.869        0.182      346.763       25.243      865.416
07/29/2014  00:44:00     -137.958      -32.463       -8.428       58.017       47.529       23.171     3365.997     2258.978      536.902        1.316        0.308      141.726       20.878        0.022      346.817       25.339      865.394
07/29/2014  00:45:00     -161.892      -45.628        2.360       71.834       46.910       35.952     5160.152     2200.542     1292.565        1.847        0.433      168.199       37.858        0.051      346.833       25.363      865.385
07/29/2014  00:46:00     -178.709       -0.937      -17.384       89.340       51.904       36.690     7981.635     2694.045     1346.163        2.213        0.601      178.711       47.663        0.071      346.775       25.261      865.395
07/29/2014  00:47:00      -96.062      -37.677       -1.970       62.755       50.464       31.855     3938.200     2546.637     1014.764        0.907        0.375      103.186       36.980        0.128      346.684       25.109      865.400
07/29/2014  00:48:00     -109.529       19.544       -5.045       20.313       29.329       15.273      412.629      860.186      233.259        0.695        0.075      111.259       10.109        0.008      346.688       25.115      865.400
07/29/2014  00:49:00     -111.641       -1.058      -12.228       36.507       26.395       16.998     1332.792      696.687      288.928        0.747        0.116      111.646       15.022        0.018      346.610       24.982      865.416
07/29/2014  00:50:00      -74.711      -38.378        8.311       51.194       46.543       21.331     2620.796     2166.237      455.006        0.618        0.262       83.991       24.211        0.083      346.569       24.911      865.417
07/29/2014  00:51:00     -138.592        0.051       -0.040       63.236       47.661       32.120     3998.853     2271.601     1031.676        1.325        0.365      138.592       17.608        0.016      346.732       25.192      865.430
07/29/2014  00:52:00      -50.182      -17.759       10.600       46.724       37.069       29.238     2183.129     1374.126      854.856        0.368        0.221       53.232       31.654        0.354      346.484       24.764      865.443
07/29/2014  00:53:00      -44.089        9.264       -1.320       45.964       25.515       25.634     2112.685      651.034      657.085        0.273        0.171       45.051       21.275        0.223      346.511       24.811      865.428
07/29/2014  00:54:00      -55.682      -40.702       -0.662       33.089       50.648       19.517     1094.880     2565.225      380.908        0.440        0.202       68.972       16.706        0.059      346.494       24.783      865.423
07/29/2014  00:55:00      -79.531      -16.929        2.970       57.331       35.429       29.965     3286.891     1255.235      897.904        0.603        0.272       81.313       27.694        0.116      346.732       25.191      865.425
07/29/2014  00:56:00      -74.106       -0.425        1.766       36.672       35.602       15.513     1344.802     1267.515      240.668        0.417        0.143       74.107       11.809        0.025      346.734       25.195      865.424
07/29/2014  00:57:00      -55.625       -7.979       -0.430       28.947       31.990       19.077      837.956     1023.349      363.942        0.269        0.111       56.194       13.474        0.057      346.616       24.993      865.424
07/29/2014  00:58:00     -156.127       -3.447      -19.326       76.597       49.184       40.199     5867.159     2419.060     1615.925        1.733        0.495      156.165       34.988        0.050      346.659       25.064      865.413
07/29/2014  00:59:00     -124.219      -50.580        8.083       74.650       49.274       32.046     5572.666     2427.972     1026.959        1.354        0.451      134.122       29.515        0.048      346.609       24.979      865.420
07/29/2014  01:00:00     -136.785      -34.455      -20.180       69.451       42.968       33.250     4823.495     1846.214     1105.590        1.404        0.389      141.058       30.526        0.047      346.617       24.993      865.418
07/29/2014  01:01:00      -50.273      -21.412       -0.867       44.294       38.877       26.257     1961.973     1511.389      689.406        0.357        0.208       54.643       24.610        0.203      346.584       24.936      865.400
07/29/2014  01:02:00     -109.970      -44.476        3.551       44.245       39.156       30.026     1957.576     1533.158      901.554        0.924        0.220      118.623       24.444        0.042      346.582       24.933      865.399
07/29/2014  01:03:00     -127.078      -61.475       -5.087       75.989       46.005       32.912     5774.378     2116.492     1083.170        1.446        0.449      141.167       38.997        0.076      346.584       24.935      865.400
07/29/2014  01:04:00     -140.075      -72.555       -5.865       91.717       53.400       31.693     8412.015     2851.576     1004.426        1.859        0.613      157.751       28.764        0.033      346.604       24.969      865.406
07/29/2014  01:05:00     -204.733      -48.117        5.467       77.580       89.912       53.053     6018.733     8084.212     2814.597        3.059        0.846      210.311       53.410        0.064      346.634       25.020      865.411
07/29/2014  01:06:00     -234.657        3.120       -3.760       95.654      105.340       47.593     9149.764    11096.462     2265.115        3.880        1.126      234.678       44.488        0.036      346.707       25.144      865.404
07/29/2014  01:07:00     -175.143       -7.052       -8.002       87.640       49.729       33.120     7680.714     2472.950     1096.918        2.102        0.563      175.284       41.277        0.055      346.671       25.084      865.405
07/29/2014  01:08:00     -245.588      -26.220       -8.823       95.419       53.427       45.735     9104.761     2854.496     2091.697        3.756        0.703      246.983       41.345        0.028      346.671       25.083      865.411
07/29/2014  01:09:00     -235.071       14.237      -14.160       86.646       70.311       40.938     7507.478     4943.621     1675.911        3.489        0.706      235.502       40.164        0.029      346.630       25.012      865.406
07/29/2014  01:10:00     -222.303      -73.978      -10.044       91.503       81.316       52.305     8372.845     6612.293     2735.795        3.635        0.886      234.289       43.015        0.034      346.607       24.972      865.416
07/29/2014  01:11:00     -236.460      -42.721       -9.562       78.339       64.483       44.666     6136.987     4158.029     1995.034        3.506        0.615      240.288       39.533        0.027      346.584       24.932      865.432
07/29/2014  01:12:00     -129.821      -63.486       -5.720       72.303       57.897       32.131     5227.738     3352.115     1032.392        1.526        0.481      144.513       20.541        0.020      346.515       24.817      865.433
07/29/2014  01:13:00     -188.761      -53.105      -11.545      112.105       70.026       52.781    12567.610     4903.603     2785.835        2.942        1.013      196.088       56.075        0.082      346.563       24.897      865.432
07/29/2014  01:14:00     -209.012      -73.091      -10.335       85.251       66.594       42.121     7267.749     4434.768     1774.160        3.130        0.674      221.424       36.784        0.028      346.569       24.908      865.442
07/29/2014  01:15:00     -275.240      -30.539      -20.609       76.130       62.770       43.660     5795.786     3940.113     1906.203        4.438        0.582      276.929       45.428        0.027      346.574       24.915      865.457
07/29/2014  01:16:00     -255.832      -63.428       -9.815       82.447       66.180       45.198     6797.550     4379.797     2042.817        4.139        0.661      263.578       45.605        0.030      346.597       24.956      865.455
07/29/2014  01:17:00     -220.010       12.166      -11.524       98.823       70.289       42.735     9765.966     4940.506     1826.302        3.261        0.827      220.346       43.466        0.039      346.573       24.915      865.446
07/29/2014  01:18:00     -353.919      -54.183      -18.475       73.979       79.937       46.937     5472.914     6389.912     2203.071        7.130        0.703      358.043       38.302        0.011      346.662       25.068      865.447
07/29/2014  01:19:00     -264.369      -92.820        0.329      132.275       70.565       54.213    17496.623     4979.365     2939.064        5.196        1.271      280.190       65.824        0.055      346.624       25.002      865.446
07/29/2014  01:20:00     -215.540      -65.214       -0.646      105.347       63.385       32.384    11098.001     4017.709     1048.720        3.343        0.808      225.190       38.537        0.029      346.636       25.023      865.434
07/29/2014  01:21:00     -197.593     -100.584      -15.479       97.663       68.850       39.033     9537.975     4740.380     1523.610        3.260        0.790      221.720       35.496        0.026      346.575       24.919      865.437
07/29/2014  01:22:00     -181.542      -53.148       -2.186       95.176       81.643       41.712     9058.446     6665.627     1739.869        2.662        0.873      189.162       36.321        0.037      346.587       24.939      865.457
07/29/2014  01:23:00     -144.308      -55.105        1.924       98.437       77.938       42.532     9689.833     6074.370     1809.012        2.072        0.879      154.472       43.486        0.079      346.576       24.921      865.474
07/29/2014  01:24:00     -179.315      -46.324      -10.167      124.105       87.157       44.964    15402.147     7596.353     2021.802        2.971        1.251      185.202       61.295        0.110      346.627       25.008      865.477
07/29/2014  01:25:00     -238.474      -70.879       -0.642       93.247       83.257       43.478     8694.955     6931.684     1890.367        3.970        0.876      248.785       44.890        0.033      346.772       25.256      865.485
07/29/2014  01:26:00     -231.043      -20.863       -7.364      130.593       57.334       43.543    17054.542     3287.170     1896.001        3.805        1.112      231.983       60.021        0.067      346.765       25.245      865.488
07/29/2014  01:27:00     -147.483      -50.443       -6.690       83.021       65.592       37.364     6892.544     4302.292     1396.092        1.846        0.630      155.871       36.044        0.053      346.739       25.201      865.484
07/29/2014  01:28:00     -135.702      -31.083      -12.354       64.630       59.382       41.347     4177.046     3526.251     1709.579        1.447        0.471      139.217       35.786        0.066      346.703       25.140      865.493
07/29/2014  01:29:00     -250.380      -37.166      -19.201       95.988       60.566       47.277     9213.692     3668.301     2235.070        3.978        0.756      253.123       49.041        0.038      346.743       25.205      865.493
07/29/2014  01:30:00     -218.981      -52.067      -19.441       98.193       69.787       41.092     9641.810     4870.207     1688.522        3.362        0.810      225.086       37.388        0.028      346.627       25.007      865.490
07/29/2014  01:31:00     -207.487      -46.625       -4.368       97.588       80.054       42.939     9523.449     6408.616     1843.759        3.151        0.889      212.661       44.818        0.044      346.618       24.993      865.501
07/29/2014  01:32:00     -218.004      -23.306      -24.202       59.020       56.678       32.457     3483.339     3212.354     1053.473        2.820        0.387      219.246       27.594        0.016      346.681       25.102      865.495
07/29/2014  01:33:00     -142.990      -47.873       -5.233       73.691       57.238       35.838     5430.340     3276.171     1284.387        1.638        0.500      150.791       40.517        0.072      346.613       24.986      865.495
07/29/2014  01:34:00     -151.877      -26.502       -4.364       41.741       53.931       40.507     1742.306     2908.589     1640.839        1.504        0.315      154.172       30.729        0.040      346.576       24.924      865.496
07/29/2014  01:35:00     -138.775      -29.457       -2.704       66.381       63.359       40.524     4406.436     4014.361     1642.181        1.510        0.503      141.866       33.288        0.055      346.590       24.947      865.490
07/29/2014  01:36:00     -192.505      -23.091      -10.667       50.632       64.140       31.996     2563.561     4114.000     1023.759        2.270        0.385      193.885       25.149        0.017      346.590       24.945      865.492
07/29/2014  01:37:00     -187.285      -27.439       -2.725       88.658       69.172       47.469     7860.223     4784.783     2253.331        2.536        0.745      189.285       45.927        0.059      346.590       24.945      865.501
07/29/2014  01:38:00     -181.559       -3.827      -10.075      105.828       74.986       48.595    11199.544     5622.847     2361.512        2.613        0.959      181.600       51.027        0.079      346.616       24.989      865.500
07/29/2014  01:39:00     -164.142      -70.873        0.275       86.885       69.107       49.471     7548.979     4775.824     2447.333        2.337        0.739      178.789       48.928        0.075      346.600       24.960      865.515
07/29/2014  01:40:00     -216.801      -44.330      -12.258       68.817       53.232       37.579     4735.815     2833.644     1412.203        2.905        0.449      221.287       32.505        0.022      346.576       24.920      865.517
07/29/2014  01:41:00     -190.052       16.971      -13.667       81.654       56.745       35.946     6667.451     3219.959     1292.086        2.388        0.559      190.808       30.198        0.025      346.611       24.980      865.519
07/29/2014  01:42:00     -138.293      -44.260       -6.439       35.235       44.520       28.595     1241.492     1981.999      817.655        1.258        0.202      145.203       15.845        0.012      346.577       24.927      865.513
07/29/2014  01:43:00     -212.022        1.063      -24.848       66.455       65.581       31.931     4416.234     4300.811     1019.591        2.765        0.487      212.025       28.375        0.018      346.606       24.971      865.526
07/29/2014  01:44:00     -147.748      -12.502      -14.812       45.225       58.894       24.801     2045.297     3468.557      615.080        1.417        0.306      148.276       21.888        0.022      346.507       24.804      865.515
07/29/2014  01:45:00     -122.671      -12.178      -13.419       70.186       43.951       33.335     4926.025     1931.649     1111.193        1.167        0.398      123.274       33.067        0.072      346.501       24.793      865.518
07/29/2014  01:46:00     -120.624        0.162       -9.946       77.500       76.627       47.411     6006.241     5871.753     2247.797        1.438        0.706      120.624       40.353        0.112      346.545       24.869      865.510
07/29/2014  01:47:00      -82.450       19.664       -9.547       34.127       44.767       30.924     1164.656     2004.066      956.271        0.570        0.206       84.763       15.952        0.035      346.516       24.819      865.504
07/29/2014  01:48:00     -144.318      -23.463      -24.254       49.962       50.163       35.071     2496.226     2516.277     1229.952        1.410        0.312      146.213       27.235        0.035      346.487       24.767      865.513
07/29/2014  01:49:00     -201.212      -12.353      -24.444       81.295       54.629       30.356     6608.913     2984.334      921.490        2.587        0.526      201.591       33.451        0.028      346.546       24.869      865.504
07/29/2014  01:50:00     -123.977       64.115      -26.440       85.789       90.364       36.476     7359.744     8165.712     1330.529        1.851        0.843      139.574       46.008        0.109      346.598       24.958      865.479
07/29/2014  01:51:00     -139.584      -47.465      -14.571       76.653       57.230       32.198     5875.655     3275.304     1036.735        1.607        0.509      147.434       31.345        0.045      346.475       24.747      865.497
07/29/2014  01:52:00     -186.191      -90.767       -6.045       59.340       42.552       33.799     3521.244     1810.632     1142.389        2.471        0.324      207.137       28.487        0.019      346.454       24.712      865.501
07/29/2014  01:53:00     -169.965      -48.053        0.482       64.232       71.449       37.512     4125.740     5104.908     1407.161        2.092        0.532      176.627       37.410        0.045      346.538       24.855      865.499
07/29/2014  01:54:00     -324.698      -43.867      -24.433      136.442       78.597       57.360    18616.437     6177.469     3290.210        6.801        1.404      327.648       65.051        0.039      346.684       25.105      865.484
07/29/2014  01:55:00     -156.196      -61.984        6.395      131.033       90.001       53.306    17169.710     8100.093     2841.569        2.819        1.406      168.045       66.917        0.159      346.676       25.094      865.482
07/29/2014  01:56:00     -223.456      -14.459       -9.977      113.804       89.472       44.503    12951.306     8005.313     1980.541        3.658        1.147      223.924       44.485        0.039      346.730       25.184      865.486
07/29/2014  01:57:00     -225.239      -56.841      -24.857       87.064       69.618       33.211     7580.120     4846.607     1102.994        3.405        0.676      232.301       36.713        0.025      346.698       25.128      865.494
07/29/2014  01:58:00     -218.799      -80.928      -18.486       92.668       71.985       42.967     8587.420     5181.813     1846.193        3.519        0.781      233.286       34.472        0.022      346.725       25.176      865.491
07/29/2014  01:59:00     -188.890      -57.730        0.531       89.971       78.594       46.294     8094.855     6176.957     2143.173        2.771        0.821      197.515       51.434        0.068      346.689       25.114      865.507
07/29/2014  02:00:00     -203.732      -43.878        5.010      101.645       76.791       54.736    10331.656     5896.824     2996.077        3.134        0.961      208.404       50.264        0.058      346.693       25.120      865.499
07/29/2014  02:01:00     -208.714     -103.446        0.205       89.127       57.200       40.582     7943.555     3271.819     1646.936        3.356        0.643      232.944       41.574        0.032      346.711       25.150      865.487
07/29/2014  02:02:00     -228.538       -9.505      -11.166       89.522       65.886       43.009     8014.254     4340.947     1849.778        3.332        0.710      228.735       45.715        0.040      346.699       25.133      865.507
07/29/2014  02:03:00     -186.021      -20.240       -5.848       79.282       57.803       38.500     6285.671     3341.135     1482.246        2.308        0.555      187.119       36.251        0.038      346.696       25.128      865.508
07/29/2014  02:04:00     -207.263      -18.648       -7.548       66.772       72.765       38.453     4458.484     5294.692     1478.614        2.729        0.562      208.100       37.032        0.032      346.656       25.059      865.531
07/29/2014  02:05:00     -248.433      -21.189      -10.263       84.751       79.771       43.124     7182.713     6363.448     1859.684        3.884        0.770      249.335       39.725        0.025      346.645       25.038      865.542
07/29/2014  02:06:00     -275.692      -33.751      -16.002       92.836       85.673       44.976     8618.494     7339.892     2022.855        4.769        0.899      277.750       50.693        0.033      346.682       25.102      865.550
07/29/2014  02:07:00     -125.595      -32.996        1.491       80.755       64.872       37.036     6521.324     4208.424     1371.632        1.448        0.605      129.857       39.589        0.093      346.622       25.000      865.549
07/29/2014  02:08:00     -185.679        3.891       -8.380      105.204       81.414       38.432    11067.947     6628.223     1476.992        2.686        0.959      185.719       39.334        0.045      346.695       25.122      865.546
07/29/2014  02:09:00      -81.151      -35.556       11.524       89.724       70.511       39.656     8050.353     4971.850     1572.617        1.129        0.730       88.599       47.173        0.283      346.680       25.100      865.549
07/29/2014  02:10:00     -154.442      -32.949       -1.912       57.490       52.411       37.456     3305.102     2746.863     1402.922        1.620        0.373      157.917       34.097        0.047      346.572       24.915      865.567
07/29/2014  02:11:00     -111.340       19.023      -13.720       44.158       48.436       32.026     1949.928     2346.069     1025.680        0.913        0.266      112.954       25.125        0.049      346.551       24.881      865.571
07/29/2014  02:12:00     -103.172      -37.143        1.223       66.430       66.891       31.560     4412.920     4474.400      996.032        1.095        0.494      109.654       34.144        0.097      346.511       24.810      865.563
07/29/2014  02:13:00      -91.440       -9.988       -6.712       61.215       41.762       29.223     3747.326     1744.038      854.001        0.742        0.317       91.984       32.692        0.126      346.500       24.793      865.564
07/29/2014  02:14:00     -245.960      -50.517       -8.169       86.459       75.150       43.380     7475.082     5647.544     1881.795        3.906        0.750      251.094       35.718        0.020      346.596       24.955      865.568
07/29/2014  02:15:00     -200.073      -39.508      -15.918       70.915       54.149       34.910     5028.886     2932.118     1218.728        2.551        0.459      203.937       29.318        0.021      346.600       24.962      865.583
07/29/2014  02:16:00     -107.138      -39.830        0.718       68.434       57.393       34.594     4683.158     3293.948     1196.732        1.112        0.459      114.302       35.487        0.096      346.573       24.917      865.579
07/29/2014  02:17:00      -87.761      -56.412        0.930       55.753       42.849       26.259     3108.382     1836.055      689.528        0.826        0.282      104.329       24.165        0.054      346.503       24.798      865.585
07/29/2014  02:18:00      -73.939      -30.146        2.397       48.719       36.354       26.093     2373.561     1321.646      680.844        0.538        0.219       79.849       17.162        0.046      346.483       24.762      865.595
07/29/2014  02:19:00      -96.763        6.105       -2.260       39.236       38.378       28.055     1539.438     1472.856      787.079        0.660        0.190       96.955       22.323        0.053      346.481       24.759      865.601
07/29/2014  02:20:00     -128.466      -28.617       -2.729      102.016       71.411       38.348    10407.328     5099.537     1470.577        1.715        0.849      131.614       48.138        0.134      346.498       24.788      865.600
07/29/2014  02:21:00       12.234       13.261       16.530       57.136       42.806       26.380     3264.565     1832.353      695.886        0.319        0.290       18.042       12.541        0.483      346.450       24.706      865.572
07/29/2014  02:22:00     -157.558       -8.196       -7.062      115.475       91.179       48.441    13334.411     8313.602     2346.557        2.446        1.200      157.771       57.935        0.135      346.628       25.011      865.580
07/29/2014  02:23:00     -159.209      -19.918      -16.064       87.470       57.754       33.358     7651.017     3335.543     1112.779        1.905        0.605      160.450       31.679        0.039      346.564       24.901      865.588
07/29/2014  02:24:00      -98.240      -10.068       -7.012       55.071       39.496       30.943     3032.783     1559.951      957.475        0.767        0.278       98.755       27.666        0.078      346.471       24.742      865.598
07/29/2014  02:25:00      -82.560      -16.311       -5.830       43.499       37.742       20.051     1892.181     1424.427      402.046        0.542        0.186       84.156       13.702        0.027      346.437       24.685      865.599
07/29/2014  02:26:00      -64.669      -34.018       -9.887       38.401       22.487       20.403     1474.621      505.679      416.295        0.392        0.120       73.071       10.753        0.022      346.508       24.804      865.597
07/29/2014  02:27:00      -62.195      -29.330       -4.872       27.871       29.285       18.063      776.774      857.594      326.262        0.336        0.098       68.764       18.303        0.071      346.537       24.855      865.591
07/29/2014  02:28:00      -31.492      -36.874       14.071       58.990       46.702       33.617     3479.838     2181.056     1130.100        0.467        0.340       48.491       33.975        0.491      346.521       24.828      865.577
07/29/2014  02:29:00      -23.987      -36.218       11.299       48.501       28.391       27.722     2352.344      806.040      768.528        0.297        0.196       43.442       26.416        0.370      346.440       24.687      865.579
07/29/2014  02:30:00      -76.407      -50.304        3.801       53.674       54.412       25.798     2880.890     2960.695      665.528        0.744        0.325       91.480       27.557        0.091      346.473       24.746      865.581
07/29/2014  02:31:00     -102.894      -44.626       -8.868       26.833       28.163       17.177      720.033      793.162      295.066        0.723        0.090      112.155       11.178        0.010      346.446       24.698      865.584
07/29/2014  02:32:00      -42.481      -30.363        2.426       44.432       24.679       18.250     1974.194      609.059      333.075        0.282        0.146       52.216       20.337        0.152      346.421       24.657      865.577
07/29/2014  02:33:00      -60.772      -58.999       -4.412       38.229       42.859       19.100     1461.455     1836.877      364.799        0.543        0.183       84.701       18.659        0.049      346.535       24.853      865.560
07/29/2014  02:34:00      -51.857      -39.356        2.123       58.394       30.558       19.722     3409.855      933.816      388.974        0.449        0.237       65.100       24.789        0.145      346.479       24.756      865.559
07/29/2014  02:35:00      -58.886      -44.232        2.394       31.539       27.997       16.217      994.684      783.828      262.991        0.374        0.102       73.648       15.070        0.042      346.445       24.696      865.574
07/29/2014  02:36:00      -13.277      -51.383        3.372       21.161       37.440       15.199      447.802     1401.758      231.001        0.245        0.104       53.071       11.161        0.044      346.469       24.736      865.581
07/29/2014  02:37:00      -21.588      -16.918        3.851       43.308       39.417       17.834     1875.576     1553.695      318.063        0.226        0.187       27.428       19.716        0.517      346.388       24.599      865.603
07/29/2014  02:38:00       -3.964      -92.752       -0.616       58.587       38.090       19.511     3432.410     1450.865      380.683        0.694        0.263       92.837       16.658        0.032      346.344       24.524      865.607
07/29/2014  02:39:00      -88.451      -23.843       -5.682       39.144       34.582       15.709     1532.281     1195.927      246.769        0.570        0.149       91.609       12.495        0.019      346.388       24.600      865.624
07/29/2014  02:40:00      -37.969      -55.405        7.786       49.854       27.385       27.900     2485.379      749.948      778.416        0.429        0.201       67.167       29.947        0.199      346.389       24.599      865.645
07/29/2014  02:41:00      -71.209      -24.873        5.768       41.184       56.513       30.470     1696.139     3193.687      928.421        0.577        0.291       75.428       27.123        0.129      346.398       24.615      865.651
07/29/2014  02:42:00      -24.479      -19.882       17.824       62.720       31.442       24.465     3933.761      988.618      598.556        0.342        0.276       31.536       28.339        0.808      346.328       24.496      865.642
07/29/2014  02:43:00     -111.923      -82.404       10.523       62.564       52.969       33.299     3914.207     2805.711     1108.826        1.363        0.391      138.986       17.541        0.016      346.437       24.683      865.641
07/29/2014  02:44:00      -66.150      -61.862        2.184       54.977       38.497       27.470     3022.510     1482.048      754.617        0.673        0.263       90.569       26.805        0.088      346.430       24.670      865.641
07/29/2014  02:45:00      -80.315      -20.910       11.193       80.657       41.182       31.879     6505.619     1695.982     1016.248        0.811        0.461       82.992       41.762        0.253      346.375       24.576      865.642
07/29/2014  02:46:00      -68.072      -33.219        1.975       45.034       37.892       24.040     2028.033     1435.796      577.929        0.489        0.202       75.745       19.924        0.069      346.408       24.634      865.651
07/29/2014  02:47:00      -11.580      -16.457       -5.538       35.990       29.221       21.113     1295.248      853.841      445.773        0.151        0.130       20.123       15.803        0.617      346.391       24.605      865.639
07/29/2014  02:48:00      -48.421        8.723       -2.318       40.775       27.664       24.680     1662.603      765.301      609.105        0.273        0.152       49.201       25.738        0.274      346.388       24.600      865.649
07/29/2014  02:49:00      -91.321      -34.646       12.882       78.951       53.955       35.003     6233.331     2911.122     1225.237        1.004        0.518       97.672       31.889        0.107      346.397       24.615      865.652
07/29/2014  02:50:00     -157.319       10.290       -4.962       60.186       47.044       29.474     3622.355     2213.099      868.697        1.579        0.335      157.655       26.579        0.028      346.499       24.789      865.657
07/29/2014  02:51:00      -31.876      -24.950       11.540       65.564       38.045       19.452     4298.586     1447.437      378.379        0.395        0.306       40.479       24.318        0.361      346.361       24.554      865.645
07/29/2014  02:52:00      -74.854      -10.164        2.905       43.437       63.585       32.638     1886.796     4043.111     1065.209        0.635        0.350       75.541       16.975        0.050      346.450       24.705      865.632
07/29/2014  02:53:00      -29.678        3.109        1.010       20.170       19.442       13.881      406.814      377.977      192.672        0.093        0.049       29.841       11.145        0.139      346.312       24.468      865.631
07/29/2014  02:54:00      -45.831        1.423        3.222       36.307       30.547       13.991     1318.182      933.097      195.739        0.228        0.122       45.853       12.500        0.074      346.263       24.386      865.636
07/29/2014  02:55:00     -155.376        3.993       -0.199       52.152       50.572       29.592     2719.781     2557.537      875.714        1.515        0.308      155.428       30.348        0.038      346.432       24.675      865.642
07/29/2014  02:56:00      -44.811      -19.646        1.294       38.821       43.333       24.016     1507.045     1877.748      576.791        0.318        0.198       48.929       20.184        0.170      346.392       24.606      865.643
07/29/2014  02:57:00     -183.273        0.075       -9.615      127.983       52.700       32.293    16379.671     2777.274     1042.814        2.694        1.010      183.273       47.676        0.068      346.448       24.700      865.642
07/29/2014  02:58:00      -36.863       12.022        0.858       33.750       31.553       20.649     1139.052      995.579      426.371        0.203        0.128       38.774       17.412        0.202      346.343       24.522      865.631
07/29/2014  02:59:00      -42.352       -8.617        5.857       34.132       20.650       17.837     1164.990      426.403      318.144        0.191        0.095       43.220       21.803        0.254      346.327       24.498      865.640
07/29/2014  03:00:00      -67.430       -4.600       -8.629       34.085       29.466       24.683     1161.779      868.243      609.232        0.364        0.132       67.587       20.924        0.096      346.411       24.637      865.647
07/29/2014  03:01:00      -46.051      -54.521        3.208       68.010       35.731       44.411     4625.315     1276.696     1972.297        0.649        0.394       71.367       44.035        0.381      346.410       24.638      865.668
07/29/2014  03:02:00     -134.945      -36.681       -5.847       54.875       38.203       27.695     3011.244     1459.474      767.007        1.241        0.262      139.841       23.174        0.027      346.507       24.803      865.666
07/29/2014  03:03:00      -36.606      -39.500        2.680       40.689       43.160       21.782     1655.567     1862.775      474.452        0.345        0.200       53.853       15.796        0.086      346.421       24.657      865.679
07/29/2014  03:04:00      -57.087      -56.991       -3.181       55.065       34.700       25.209     3032.115     1204.088      635.488        0.569        0.244       80.665       26.214        0.106      346.428       24.667      865.683
07/29/2014  03:05:00      -66.323      -31.269        0.606       77.945       59.158       36.611     6075.404     3499.688     1340.389        0.814        0.546       73.324       42.140        0.330      346.412       24.641      865.686
07/29/2014  03:06:00      -24.527       -0.961        9.435       31.150       27.512       20.692      970.349      756.934      428.169        0.142        0.108       24.546       15.466        0.397      346.391       24.603      865.685
07/29/2014  03:07:00       11.556       31.228       11.181       22.371       16.491       14.449      500.466      271.950      208.766        0.111        0.049       33.298        6.844        0.042      346.199       24.276      865.671
07/29/2014  03:08:00       39.542       -7.197       -0.201        7.689       23.278        9.495       59.123      541.888       90.151        0.115        0.035       40.191        4.287        0.011      346.271       24.398      865.670
07/29/2014  03:09:00      -26.979      -72.512        4.605       36.019       33.386       21.612     1297.383     1114.651      467.061        0.444        0.144       77.368       11.716        0.023      346.426       24.665      865.678
07/29/2014  03:10:00      -12.448      -90.690        5.197       43.870       52.287       23.807     1924.598     2733.933      566.759        0.681        0.261       91.540       23.615        0.067      346.474       24.746      865.682
07/29/2014  03:11:00      -49.523      -98.244        0.819       50.961       58.562       28.879     2596.974     3429.465      834.005        0.948        0.343      110.020       28.433        0.067      346.419       24.653      865.693
07/29/2014  03:12:00        7.659      -12.317       25.942       27.808       28.868       18.806      773.287      833.379      353.653        0.142        0.098       14.504       15.756        1.180      346.295       24.441      865.688
07/29/2014  03:13:00       -8.714       25.421       28.779       11.722       15.602       16.232      137.416      243.430      263.490        0.110        0.032       26.873        5.909        0.048      346.025       23.976      865.682
07/29/2014  03:14:00       21.077        1.583        3.199       20.180        4.798        8.282      407.241       23.018       68.585        0.048        0.025       21.136        6.905        0.107      345.970       23.884      865.682
07/29/2014  03:15:00       43.194       26.228       10.327       22.380       19.525       15.804      500.846      381.221      249.760        0.190        0.057       50.534        9.755        0.037      346.052       24.022      865.670
07/29/2014  03:16:00        9.564      -25.343        6.730        9.547       22.349       15.989       91.153      499.472      255.634        0.081        0.042       27.088       15.445        0.325      346.095       24.096      865.672
07/29/2014  03:17:00       17.009      -15.272       -2.025       15.045       16.242       12.554      226.342      263.800      157.601        0.059        0.032       22.859       10.768        0.222      345.993       23.921      865.686
07/29/2014  03:18:00        5.628        8.770       14.664        9.263        6.618        7.790       85.804       43.793       60.688        0.026        0.010       10.420        5.933        0.324      345.911       23.779      865.705
07/29/2014  03:19:00       -0.342       15.308        5.652        5.277        5.498        5.292       27.843       30.225       28.004        0.018        0.004       15.312        3.173        0.043      345.862       23.697      865.717
07/29/2014  03:20:00        6.804       20.175        2.882        9.197        6.524       10.676       84.580       42.560      113.974        0.035        0.012       21.291        4.765        0.050      345.906       23.775      865.730
07/29/2014  03:21:00        9.070       -3.845       -1.938        8.201        7.444        6.581       67.252       55.417       43.306        0.013        0.008        9.851        4.475        0.206      346.007       23.947      865.732
07/29/2014  03:22:00       40.954       15.823        6.388       11.033       19.560       13.034      121.716      382.586      169.894        0.132        0.034       43.905       11.313        0.066      345.955       23.854      865.713
07/29/2014  03:23:00       29.189       12.590        2.289       10.703        9.753        5.675      114.559       95.128       32.201        0.063        0.012       31.788        3.459        0.012      345.977       23.892      865.697
07/29/2014  03:24:00       44.379       17.923        3.284       20.767       11.031        7.303      431.274      121.673       53.340        0.145        0.030       47.862        6.334        0.018      345.980       23.897      865.697
07/29/2014  03:25:00       37.379       26.824       14.796       12.168       12.240       15.469      148.062      149.829      239.289        0.144        0.027       46.008        9.916        0.046      345.836       23.653      865.682
07/29/2014  03:26:00       29.815       31.175        2.214       11.336       15.519       11.858      128.495      240.853      140.610        0.119        0.025       43.137        8.203        0.036      345.801       23.590      865.683
07/29/2014  03:27:00       31.658       32.785        2.589       15.682       12.792        9.491      245.921      163.640       90.074        0.129        0.025       45.576        9.429        0.043      345.695       23.406      865.676
07/29/2014  03:28:00       87.929       50.041       11.402       25.569       22.359       16.941      653.764      499.927      287.004        0.590        0.072      101.171       10.809        0.011      345.878       23.723      865.658
07/29/2014  03:29:00        4.785        4.765        3.043       14.503        8.450        9.712      210.350       71.410       94.332        0.022        0.019        6.752        7.507        1.236      345.849       23.674      865.675
07/29/2014  03:30:00       18.915      -16.942        8.320       12.292       16.443       11.202      151.098      270.381      125.484        0.063        0.027       25.393        4.520        0.032      345.871       23.711      865.691
07/29/2014  03:31:00       33.711       15.562       27.551       20.122       24.234       19.724      404.912      587.266      389.017        0.176        0.069       37.129       18.993        0.262      345.809       23.607      865.688
07/29/2014  03:32:00        1.939       25.135       38.561       22.109       24.900       18.290      488.814      620.005      334.512        0.178        0.072       25.210       18.986        0.567      345.644       23.322      865.705
07/29/2014  03:33:00      -12.777        3.085       10.476       16.377        8.389        6.083      268.218       70.375       37.002        0.033        0.019       13.144        3.131        0.057      345.567       23.190      865.740
07/29/2014  03:34:00       25.431       14.447        6.321       11.810        8.238        8.283      139.470       67.862       68.610        0.059        0.014       29.248        6.191        0.045      345.622       23.283      865.749
07/29/2014  03:35:00       82.320       48.351       13.491       33.125       21.264       12.271     1097.235      452.168      150.575        0.550        0.085       95.469       16.134        0.029      345.787       23.568      865.738
07/29/2014  03:36:00       57.038       44.843       20.786       28.308       14.722       21.830      801.319      216.725      476.549        0.360        0.075       72.555        9.366        0.017      345.854       23.683      865.746
07/29/2014  03:37:00       53.451       37.214       28.877       27.864       22.847       17.239      776.403      521.976      297.192        0.334        0.080       65.130       10.660        0.027      345.766       23.531      865.760
07/29/2014  03:38:00        9.305        6.300        6.376       19.361       14.136        9.238      374.840      199.828       85.334        0.041        0.033       11.237       10.007        0.793      345.692       23.403      865.790
07/29/2014  03:39:00       26.636        3.939       13.062       17.354       13.262       15.621      301.157      175.890      244.013        0.081        0.036       26.926       15.190        0.318      345.724       23.458      865.792
07/29/2014  03:40:00       26.704       32.724       34.827       18.550       20.172       15.018      344.111      406.920      225.541        0.199        0.049       42.237       11.149        0.070      345.706       23.429      865.778
07/29/2014  03:41:00       11.670       22.554       33.995       22.052       24.377       13.162      486.290      594.237      173.234        0.153        0.063       25.394        9.069        0.128      345.665       23.356      865.769
07/29/2014  03:42:00        3.924      -48.528       -2.272       15.869       14.526        9.410      251.836      211.013       88.556        0.146        0.028       48.686        3.191        0.004      345.678       23.378      865.785
07/29/2014  03:43:00        7.172      -19.710       12.999       12.200       22.134       11.059      148.845      489.931      122.302        0.068        0.038       20.974        7.893        0.142      345.679       23.381      865.792
07/29/2014  03:44:00       60.140       29.106       39.739       33.014       37.993       36.248     1089.933     1443.442     1313.900        0.494        0.192       66.813       33.964        0.258      345.664       23.357      865.789
07/29/2014  03:45:00       -0.734       21.415       50.328       25.678       54.170       36.084      659.359     2934.382     1302.034        0.394        0.245       21.427       40.561        3.583      345.704       23.425      865.787
07/29/2014  03:46:00      -52.644       -6.704       -8.662       26.887       29.003       11.552      722.890      841.181      133.457        0.229        0.085       53.070       12.984        0.060      345.504       23.082      865.809
07/29/2014  03:47:00      -46.638      -22.089       -0.264       36.009       19.091       12.754     1296.674      364.463      162.674        0.224        0.091       51.605       10.214        0.039      345.472       23.026      865.815
07/29/2014  03:48:00       -5.108      -42.172        0.204       15.074       14.346        9.622      227.236      205.816       92.574        0.117        0.026       42.480        8.091        0.036      345.635       23.305      865.807
07/29/2014  03:49:00      -24.237        1.991       -5.227       24.676        7.007        6.887      608.897       49.096       47.433        0.066        0.035       24.318        8.509        0.122      345.798       23.586      865.798
07/29/2014  03:50:00      -43.691       -4.246       -6.726       13.772       13.702        7.439      189.659      187.745       55.339        0.120        0.022       43.897        1.762        0.002      345.917       23.791      865.803
07/29/2014  03:51:00      -54.084      -23.314       -4.777       21.619       16.291        9.830      467.368      265.411       96.637        0.216        0.041       58.896        9.503        0.026      345.635       23.303      865.808
07/29/2014  03:52:00      -24.764      -21.047        7.834       22.788       17.249       12.799      519.301      297.536      163.826        0.105        0.049       32.500       14.594        0.202      345.588       23.225      865.792
07/29/2014  03:53:00      -26.821      -20.596       -3.261       10.460        9.102        6.844      109.421       82.844       46.835        0.070        0.012       33.817        2.725        0.006      345.996       23.924      865.757
07/29/2014  03:54:00      -72.624      -46.820       -7.513       24.746       17.614       11.268      612.342      310.240      126.976        0.429        0.052       86.408       11.319        0.017      345.891       23.745      865.737
07/29/2014  03:55:00        3.475      -38.403       11.037       41.445       29.899       20.751     1717.667      893.941      430.607        0.232        0.152       38.560       19.738        0.262      345.668       23.362      865.727
07/29/2014  03:56:00      -84.840      -44.562       -9.536       72.579       41.272       27.234     5267.747     1703.406      741.700        0.849        0.386       95.831       22.041        0.053      345.899       23.760      865.721
07/29/2014  03:57:00      -81.296      -13.404        6.726       99.549       45.337       28.771     9909.982     2055.454      827.798        0.981        0.640       82.393       45.569        0.306      345.835       23.649      865.730
07/29/2014  03:58:00     -195.692      -48.885       -2.659       86.057       62.890       36.479     7405.784     3955.100     1330.707        2.669        0.635      201.706       43.649        0.047      346.118       24.131      865.738
07/29/2014  03:59:00     -125.516      -69.701        1.389       85.660       61.525       40.079     7337.656     3785.274     1606.333        1.667        0.636      143.571       43.631        0.092      346.034       23.990      865.750
07/29/2014  04:00:00     -126.910      -55.498       -1.385       81.359       53.469       38.734     6619.251     2858.898     1500.296        1.508        0.549      138.514       41.807        0.091      346.063       24.040      865.741
07/29/2014  04:01:00     -205.652      -26.941       -7.111       62.493       74.899       33.877     3905.404     5609.816     1147.645        2.686        0.533      207.409       18.448        0.008      346.125       24.144      865.739
07/29/2014  04:02:00     -224.401      -75.398       -1.822      117.896       58.132       42.440    13899.409     3379.275     1801.167        3.756        0.954      236.729       54.218        0.052      346.234       24.331      865.743
07/29/2014  04:03:00     -147.058      -22.919       -4.341       75.977       81.168       40.087     5772.474     6588.227     1606.941        1.807        0.698      148.833       39.377        0.070      346.167       24.218      865.734
07/29/2014  04:04:00     -140.184      -35.253        2.983      114.007       70.211       43.001    12997.692     4929.608     1849.117        2.034        0.989      144.549       58.446        0.163      346.198       24.271      865.722
07/29/2014  04:05:00      -76.290       -5.154        6.860       62.112       61.194       37.980     3857.958     3744.702     1442.467        0.747        0.452       76.464       33.584        0.193      346.102       24.107      865.727
07/29/2014  04:06:00      -64.869      -47.745        7.943       65.798       43.623       36.488     4329.339     1902.938     1331.341        0.706        0.378       80.546       36.579        0.206      346.132       24.160      865.737
07/29/2014  04:07:00      -69.585      -63.106       11.900       66.146       62.267       37.790     4375.311     3877.132     1428.072        0.932        0.484       93.939       41.535        0.196      346.132       24.157      865.748
07/29/2014  04:08:00     -121.041     -111.251       -8.140       73.613       51.540       33.834     5418.947     2656.391     1144.772        1.816        0.461      164.401       39.812        0.059      346.193       24.262      865.748
07/29/2014  04:09:00     -121.267      -49.360        0.951       71.967       39.017       30.960     5179.245     1522.313      958.549        1.240        0.383      130.928       39.451        0.091      346.137       24.167      865.760
07/29/2014  04:10:00      -53.076      -57.478       -2.402       62.991       26.376       29.744     3967.859      695.720      884.680        0.584        0.277       78.235       23.230        0.088      346.096       24.096      865.770
07/29/2014  04:11:00      -81.681      -34.709        0.065       50.222       36.304       27.919     2522.280     1318.013      779.495        0.625        0.231       88.750       28.395        0.102      346.151       24.192      865.778
07/29/2014  04:12:00        1.232      -27.095        9.342       22.748       39.632       17.028      517.471     1570.688      289.950        0.160        0.119       27.123       13.993        0.266      346.049       24.017      865.787
07/29/2014  04:13:00      -36.938      -62.855        7.687       47.595       39.527       21.199     2265.262     1562.390      449.410        0.482        0.214       72.905       19.348        0.070      346.154       24.196      865.799
07/29/2014  04:14:00      -51.912      -64.558       -2.428       15.262       19.227        9.721      232.923      369.663       94.491        0.378        0.035       82.841        6.072        0.005      346.113       24.126      865.807
07/29/2014  04:15:00       -5.857      -26.981        2.627       37.270       32.118       17.068     1389.039     1031.539      291.322        0.174        0.136       27.609       18.862        0.467      345.862       23.697      865.820
07/29/2014  04:16:00        5.449      -26.450        4.364       20.398       24.209       21.571      416.075      586.098      465.293        0.111        0.073       27.005       16.637        0.380      345.782       23.560      865.818
07/29/2014  04:17:00        3.584      -25.444       12.491       11.664       16.344       15.716      136.051      267.133      246.994        0.073        0.033       25.695        9.942        0.150      345.707       23.430      865.821
07/29/2014  04:18:00       25.620       19.922       25.341       20.417       34.160       34.053      416.839     1166.876     1159.599        0.222        0.137       32.455       30.434        0.879      345.627       23.292      865.803
07/29/2014  04:19:00        4.939       39.897       46.780       22.287       24.747       19.012      496.730      612.425      361.453        0.264        0.074       40.201       18.241        0.206      345.588       23.226      865.794
07/29/2014  04:20:00       -3.143        0.587       -4.567       13.694       20.383       13.055      187.533      415.447      170.440        0.040        0.039        3.197        8.399        6.902      345.574       23.203      865.817
07/29/2014  04:21:00       -1.374      -22.914        1.589       25.241        7.429       10.032      637.117       55.189      100.640        0.066        0.040       22.955        6.016        0.069      345.686       23.393      865.848
07/29/2014  04:22:00       63.762       29.272       16.832       26.462       47.594       25.488      700.211     2265.205      649.653        0.441        0.181       70.160       26.912        0.147      345.524       23.115      865.846
07/29/2014  04:23:00       75.426       61.582       24.763       43.446       26.812       29.709     1887.592      718.877      882.629        0.679        0.174       97.373       26.899        0.076      345.291       22.717      865.820
07/29/2014  04:24:00       23.342       20.458       30.662       30.069       30.032       28.195      904.158      901.948      794.973        0.225        0.130       31.038       21.347        0.473      345.374       22.859      865.815
07/29/2014  04:25:00       21.970      -18.701       -3.345       29.179       26.819       16.920      851.442      719.248      286.301        0.135        0.093       28.851        8.639        0.090      345.330       22.785      865.842
07/29/2014  04:26:00       10.318      -21.575       30.764       20.396       34.587       23.233      415.991     1196.237      539.794        0.183        0.108       23.915       21.878        0.837      345.474       23.030      865.856
07/29/2014  04:27:00       -9.418       10.689       35.403       13.642       21.773       15.412      186.109      474.048      237.545        0.118        0.045       14.246       13.943        0.958      345.557       23.171      865.862
07/29/2014  04:28:00      -12.106       -3.848       17.304       11.849       14.028        6.665      140.393      196.794       44.421        0.042        0.019       12.703        3.533        0.077      345.533       23.130      865.875
07/29/2014  04:29:00       14.938       13.817        7.621       19.115       15.166       13.955      365.381      230.007      194.741        0.063        0.040       20.348        6.190        0.093      345.490       23.057      865.873
07/29/2014  04:30:00       16.806       15.941       25.172       24.668       14.487       11.570      608.521      209.868      133.861        0.106        0.048       23.164       10.538        0.207      345.475       23.032      865.865
07/29/2014  04:31:00       54.876       39.406       15.221       23.287       22.385       16.219      542.295      501.104      263.060        0.305        0.065       67.559        8.569        0.016      345.471       23.026      865.874
07/29/2014  04:32:00       23.225       46.729       -3.286       16.462       17.637       15.911      270.990      311.064      253.164        0.178        0.042       52.183       10.247        0.039      345.378       22.867      865.886
07/29/2014  04:33:00       40.916       56.832       -3.115       31.411       36.856       22.616      986.677     1358.393      511.498        0.388        0.143       70.028       18.875        0.073      345.394       22.891      865.877
07/29/2014  04:34:00       30.785       62.742      -10.330       17.298       24.391       13.862      299.233      594.914      192.158        0.304        0.054       69.888       12.957        0.034      345.380       22.868      865.889
07/29/2014  04:35:00       79.470       58.662       13.821       35.660       24.211       28.785     1271.655      586.189      828.564        0.632        0.134       98.776       15.345        0.024      345.373       22.857      865.878
07/29/2014  04:36:00       43.231       41.392        7.723       40.784       25.941       23.802     1663.319      672.924      566.539        0.327        0.145       59.852       14.889        0.062      345.296       22.725      865.874
07/29/2014  04:37:00       25.727       25.675        4.670       38.548       20.846       19.331     1485.926      434.566      373.695        0.182        0.115       36.347       17.668        0.236      345.303       22.737      865.902
07/29/2014  04:38:00      109.477       68.489       26.434       50.731       28.880       27.155     2573.618      834.034      737.401        1.076        0.207      129.135       16.270        0.016      345.383       22.874      865.898
07/29/2014  04:39:00      132.015       69.007       14.472       42.598       35.595       33.990     1814.611     1266.991     1155.312        1.332        0.212      148.962       20.186        0.018      345.367       22.846      865.873
07/29/2014  04:40:00       64.348       47.860       14.814       44.566       28.240       30.211     1986.137      797.482      912.728        0.517        0.185       80.195       19.807        0.061      345.295       22.722      865.886
07/29/2014  04:41:00      -22.680       77.201      -16.286       27.732       43.188       15.139      769.055     1865.170      229.181        0.480        0.143       80.464       13.205        0.027      345.335       22.790      865.905
07/29/2014  04:42:00      -39.257       49.996      -13.684       22.751       17.949       10.757      517.594      322.160      115.723        0.259        0.048       63.566        7.991        0.016      345.357       22.830      865.938
07/29/2014  04:43:00       70.517       75.336       16.512       42.459       20.938       20.523     1802.785      438.405      421.178        0.679        0.133      103.190       17.491        0.029      345.460       23.005      865.933
07/29/2014  04:44:00       69.294       45.951       15.618       20.403       18.446       17.501      416.300      340.246      306.279        0.411        0.053       83.145       14.063        0.029      345.439       22.968      865.929
07/29/2014  04:45:00       93.381       31.922       15.472       37.905       25.987       25.023     1436.798      675.344      626.142        0.636        0.137       98.686       20.826        0.045      345.376       22.862      865.913
07/29/2014  04:46:00       44.918       52.554        6.715       40.738       33.217       26.358     1659.545     1103.356      694.734        0.414        0.173       69.134       19.858        0.083      345.353       22.820      865.912
07/29/2014  04:47:00       21.568       47.568       -0.550       30.453       41.525       24.020      927.388     1724.361      576.964        0.298        0.161       52.229       23.753        0.207      345.329       22.781      865.921
07/29/2014  04:48:00       36.984       71.181       -2.813       25.926       35.659       23.190      672.160     1271.578      537.760        0.446        0.124       80.216       22.871        0.081      345.397       22.898      865.919
07/29/2014  04:49:00       70.131       59.986       -6.009       44.275       29.951       17.939     1960.246      897.035      321.813        0.587        0.159       92.286       12.269        0.018      345.469       23.021      865.922
07/29/2014  04:50:00       19.279       10.964        5.597       23.044       11.849       10.358      531.047      140.400      107.293        0.065        0.039       22.178        9.605        0.188      345.419       22.935      865.944
07/29/2014  04:51:00       -4.109       -5.875        3.708        3.926        8.187        5.325       15.411       67.019       28.352        0.009        0.006        7.169        4.008        0.313      345.449       22.987      865.951
07/29/2014  04:52:00       39.954       22.899       17.285       26.550       15.727       12.278      704.925      247.324      150.741        0.176        0.055       46.051       11.037        0.057      345.409       22.917      865.931
07/29/2014  04:53:00       33.423       33.446        5.194       15.756        9.544       10.398      248.267       91.079      108.123        0.135        0.022       47.283        5.926        0.016      345.397       22.896      865.927
07/29/2014  04:54:00       89.015       61.063       23.565       17.777       10.788       14.894      316.005      116.379      221.819        0.643        0.033      107.946        8.106        0.006      345.367       22.845      865.910
07/29/2014  04:55:00      104.834       48.424       17.431       23.693       19.194       17.782      561.337      368.416      316.184        0.744        0.062      115.478       14.979        0.017      345.337       22.795      865.890
07/29/2014  04:56:00       52.169       17.728       -1.934       31.263       19.501       17.315      977.347      380.288      299.817        0.235        0.083       55.099       15.311        0.077      345.407       22.913      865.913
07/29/2014  04:57:00      -22.629       -2.127       -4.200       19.451       15.369        7.791      378.332      236.209       60.693        0.060        0.034       22.728        4.915        0.047      345.401       22.904      865.946
07/29/2014  04:58:00      -78.416       10.300      -10.780        8.786        8.443        6.923       77.196       71.290       47.925        0.328        0.010       79.090        5.179        0.004      345.213       22.582      865.962
07/29/2014  04:59:00      -41.265        2.384       -5.555       17.288        7.426        6.698      298.862       55.140       44.867        0.107        0.020       41.334        6.559        0.025      345.339       22.797      865.964
07/29/2014  05:00:00        5.466       10.526        7.052       24.337       10.631        9.841      592.279      113.014       96.837        0.050        0.040       11.861        6.197        0.273      345.382       22.872      865.949
07/29/2014  05:01:00       51.384       22.168        7.228        9.311        9.962       12.382       86.693       99.248      153.311        0.176        0.017       55.962        3.317        0.004      345.605       23.254      865.950
07/29/2014  05:02:00       62.165       47.672       32.308       31.699       19.644       19.134     1004.809      385.876      366.093        0.447        0.088       78.340       16.940        0.047      345.484       23.047      865.948
07/29/2014  05:03:00       50.491      100.856       69.733       56.500       41.374       32.372     3192.253     1711.778     1047.952        1.177        0.298      112.789       35.435        0.099      345.452       22.992      865.909
07/29/2014  05:04:00       -2.496      -37.318       29.668       15.625       39.653       25.868      244.156     1572.393      669.145        0.238        0.124       37.401       23.528        0.396      345.445       22.979      865.924
07/29/2014  05:05:00      -17.104      -10.098       -7.904       35.505       35.828       14.238     1260.639     1283.654      202.729        0.160        0.137       19.863       11.796        0.353      345.364       22.843      865.953
07/29/2014  05:06:00      -41.232       36.934       -9.260       22.711       14.143       11.556      515.786      200.022      133.550        0.200        0.042       55.355        6.534        0.014      345.362       22.838      865.967
07/29/2014  05:07:00      -16.658       34.912       -7.696        9.266       17.500        8.614       85.851      306.245       74.209        0.101        0.023       38.682        5.562        0.021      345.423       22.942      865.957
07/29/2014  05:08:00      -37.445        7.104       -5.175        8.033       11.460        6.076       64.529      131.323       36.915        0.086        0.012       38.113        3.296        0.007      345.406       22.912      865.960
07/29/2014  05:09:00      -18.694       12.209       -8.342        8.879        8.124        8.344       78.835       65.995       69.624        0.039        0.011       22.328        7.399        0.110      345.473       23.026      865.971
07/29/2014  05:10:00        5.284       16.470       -0.319       14.155       10.734        8.592      200.368      115.217       73.823        0.034        0.019       17.297        4.048        0.055      345.554       23.167      865.984
07/29/2014  05:11:00      -76.447        0.678       -9.881       38.994       17.740       11.513     1520.532      314.711      132.550        0.395        0.098       76.450       16.365        0.046      345.531       23.127      866.002
07/29/2014  05:12:00      -19.401       52.110       -1.622       92.035       33.051       23.637     8470.512     1092.337      558.689        0.661        0.506       55.604       30.533        0.302      345.502       23.077      866.002
07/29/2014  05:13:00      -25.285        0.858       31.989       49.744       51.657       43.642     2474.498     2668.497     1904.633        0.435        0.352       25.299       37.825        2.235      345.504       23.082      865.974
07/29/2014  05:14:00      -56.813      -50.181       -5.937       28.789       23.641       14.310      828.819      558.883      204.781        0.369        0.080       75.801       10.594        0.020      345.522       23.113      865.992
07/29/2014  05:15:00      -31.620      -19.761        0.035       12.592       10.390        7.194      158.549      107.956       51.748        0.085        0.016       37.287        3.953        0.011      345.582       23.215      865.984
07/29/2014  05:16:00      -29.831      -18.164       -9.427       12.443        8.615        8.836      154.836       74.226       78.072        0.081        0.015       34.926        5.886        0.028      345.661       23.348      865.984
07/29/2014  05:17:00       -2.420       14.455        5.319       25.162       20.563       12.659      633.145      422.847      160.246        0.073        0.061       14.657       17.558        1.435      345.655       23.340      865.959
07/29/2014  05:18:00       34.559       14.206       10.632       25.616       18.134       10.439      656.160      328.837      108.973        0.130        0.055       37.365        9.535        0.065      345.627       23.293      865.949
07/29/2014  05:19:00       -2.086      -38.771       -2.774       14.164       16.653       11.972      200.632      277.310      143.337        0.107        0.031       38.827       11.357        0.086      345.567       23.189      865.956
07/29/2014  05:20:00      -26.412      -40.943       -2.391       29.600       15.749       15.324      876.136      248.033      234.812        0.187        0.068       48.723       14.413        0.088      345.578       23.206      865.955
07/29/2014  05:21:00        9.471       -2.910        7.071       12.225       12.942       11.063      149.461      167.502      122.390        0.029        0.022        9.908        5.647        0.325      345.550       23.160      865.941
07/29/2014  05:22:00        9.070      -25.014       -0.542       27.588       26.852       15.786      761.082      721.015      249.200        0.122        0.087       26.608       17.365        0.426      345.585       23.220      865.921
07/29/2014  05:23:00        7.832      -15.231       13.058       25.839       33.392       19.155      667.670     1115.010      366.906        0.131        0.107       17.127       17.277        1.018      345.613       23.271      865.923
07/29/2014  05:24:00      -58.744       -2.387        2.926       31.823       22.897       11.230     1012.726      524.285      126.115        0.256        0.083       58.792        9.698        0.027      345.656       23.341      865.961
07/29/2014  05:25:00      -34.508       21.703       -7.736       14.521       12.758       14.019      210.848      162.768      196.533        0.115        0.029       40.766        7.566        0.034      345.620       23.281      865.986
07/29/2014  05:26:00      -47.803       12.438       -1.664       23.589       14.242       11.034      556.433      202.832      121.751        0.166        0.044       49.395        4.446        0.008      345.501       23.077      866.002
07/29/2014  05:27:00      -28.994       16.623       -0.555       14.932        8.411        9.521      222.958       70.750       90.654        0.075        0.019       33.421        7.093        0.045      345.763       23.527      865.996
07/29/2014  05:28:00      -15.161        9.994      -12.007       22.320       16.541        8.035      498.201      273.593       64.564        0.065        0.042       18.158        8.405        0.214      345.895       23.752      865.973
07/29/2014  05:29:00       16.578       -1.349        8.649       19.597       23.768       12.780      384.059      564.917      163.334        0.073        0.056       16.633       15.054        0.819      345.880       23.727      865.953
07/29/2014  05:30:00      -78.950      -12.223      -14.712       66.653       52.013       35.528     4442.573     2705.300     1262.272        0.750        0.421       79.890       36.886        0.213      346.083       24.077      865.957
07/29/2014  05:31:00       32.824      -87.085       21.009       31.362       53.025       28.851      983.566     2811.613      832.389        0.686        0.231       93.066        4.582        0.002      346.262       24.382      865.936
07/29/2014  05:32:00      -16.805     -105.083       -7.546       61.412       69.769       35.145     3771.412     4867.703     1235.182        1.063        0.494      106.418       15.105        0.020      346.063       24.040      865.938
07/29/2014  05:33:00      -99.105      -75.784       -1.162       63.910       41.382       27.936     4084.433     1712.450      780.432        1.107        0.329      124.760       21.005        0.028      346.100       24.105      865.958
07/29/2014  05:34:00      -22.899      -28.121       19.301       55.138       35.874       23.737     3040.198     1286.944      563.463        0.329        0.245       36.265       22.703        0.392      345.808       23.603      865.985
07/29/2014  05:35:00      -27.221     -108.061       -2.768       57.490       46.295       26.197     3305.044     2143.243      686.260        0.928        0.307      111.437       19.175        0.030      345.883       23.731      865.971
07/29/2014  05:36:00        1.991      -69.211       -1.889       29.111       25.847       22.330      847.436      668.062      498.617        0.341        0.101       69.240       15.908        0.053      345.703       23.421      865.966
07/29/2014  05:37:00      -24.707      -55.292        7.100       27.745       35.510       18.987      769.806     1260.925      360.489        0.305        0.120       60.561       13.487        0.050      345.849       23.674      865.981
07/29/2014  05:38:00        6.161       -3.552       31.691       29.704       42.545       26.232      882.355     1810.097      688.132        0.222        0.169        7.112       31.061       19.076      345.674       23.374      865.972
07/29/2014  05:39:00      -13.107      -42.573        0.038       24.281       32.591       24.486      589.581     1062.154      599.579        0.212        0.113       44.545       21.683        0.237      345.685       23.392      865.976
07/29/2014  05:40:00       22.562       14.231       16.500       30.588       20.760       12.710      935.612      430.967      161.540        0.126        0.076       26.675        7.206        0.073      345.603       23.250      865.992
07/29/2014  05:41:00       30.972       36.916       25.021       47.946       25.901       19.736     2298.839      670.856      389.492        0.315        0.168       48.188       17.118        0.126      345.615       23.270      865.977
07/29/2014  05:42:00      -11.391       17.981       11.747       14.005       25.553       15.222      196.135      652.955      231.696        0.084        0.054       21.285       14.807        0.484      345.579       23.211      865.980
07/29/2014  05:43:00      -10.891       62.564      -12.037       17.487       20.169       10.600      305.803      406.805      112.356        0.250        0.041       63.505        6.536        0.011      345.584       23.219      865.994
07/29/2014  05:44:00       -9.539       49.230       -9.973       10.224       16.185        6.442      104.525      261.942       41.504        0.151        0.020       50.146        6.755        0.018      345.646       23.324      865.993
07/29/2014  05:45:00       30.626       32.209        0.624       32.554       18.927       18.028     1059.755      358.245      325.004        0.186        0.087       44.445        8.150        0.034      345.724       23.458      865.985
07/29/2014  05:46:00      -11.321       17.378        3.168       23.433       14.171       10.613      549.105      200.823      112.634        0.065        0.043       20.740        8.618        0.173      345.844       23.664      865.985
07/29/2014  05:47:00        8.364       36.416        1.711       31.245       15.372       19.294      976.241      236.301      372.274        0.149        0.079       37.364       20.197        0.292      345.882       23.731      865.985
07/29/2014  05:48:00        7.850       52.326        8.395       37.391       23.963       14.622     1398.098      574.213      213.789        0.253        0.109       52.912       12.098        0.052      345.959       23.864      865.979
07/29/2014  05:49:00      -33.626      -28.372        0.560       23.791       21.005       15.636      566.009      441.230      244.492        0.159        0.063       43.996        5.774        0.017      345.959       23.863      865.980
07/29/2014  05:50:00      -29.414      -14.073        1.259       22.014       14.498       10.789      484.608      210.205      116.393        0.094        0.041       32.607        7.993        0.060      345.774       23.546      865.985
07/29/2014  05:51:00     -108.033      -17.728      -10.277       35.648       32.890       24.573     1270.751     1081.737      603.815        0.752        0.148      109.477       21.030        0.037      345.909       23.776      865.986
07/29/2014  05:52:00      -21.864        5.957       13.475       48.556       36.001       23.941     2357.661     1296.052      573.173        0.246        0.211       22.661       26.321        1.349      345.799       23.588      865.987
07/29/2014  05:53:00      -63.591      -40.431        0.087       37.854       64.529       26.981     1432.939     4163.969      727.997        0.600        0.316       75.356       20.566        0.074      346.012       23.954      865.996
07/29/2014  05:54:00      -72.876      -26.098       -1.282       38.223       30.507       15.241     1461.002      930.664      232.277        0.431        0.131       77.409       16.349        0.045      345.920       23.796      866.004
07/29/2014  05:55:00        0.469      -45.805       13.845       23.869       30.992       13.103      569.749      960.531      171.690        0.200        0.085       45.807       12.434        0.074      345.891       23.743      865.994
07/29/2014  05:56:00      -75.882       -3.973        4.074       67.003       29.944       21.160     4489.409      896.637      447.760        0.581        0.292       75.986       22.135        0.085      345.922       23.798      865.994
07/29/2014  05:57:00      -79.248      -57.116        1.746       60.627       37.989       21.314     3675.644     1443.182      454.295        0.756        0.279       97.686       27.697        0.080      345.931       23.815      865.997
07/29/2014  05:58:00      -74.577      -42.895       -0.796       35.009       32.095       16.292     1225.647     1030.103      265.443        0.496        0.126       86.033       14.845        0.030      345.942       23.834      865.998
07/29/2014  05:59:00      -75.781      -53.105       -0.846       53.636       37.476       18.070     2876.822     1404.414      326.516        0.658        0.230       92.536       16.624        0.032      345.904       23.768      865.989
07/29/2014  06:00:00     -116.959      -17.788        5.076       64.611       48.488       29.718     4174.596     2351.061      883.166        1.071        0.370      118.304       34.902        0.087      346.157       24.202      865.982
07/29/2014  06:01:00      -82.135       -5.541        0.578       63.580       28.450       18.942     4042.434      809.405      358.809        0.599        0.261       82.321       24.437        0.088      345.998       23.930      865.973
07/29/2014  06:02:00     -118.535      -41.669      -10.298       54.727       39.646       24.139     2995.005     1571.784      582.695        1.052        0.257      125.646       25.161        0.040      346.231       24.330      865.962
07/29/2014  06:03:00      -52.547       -0.350       12.836       54.133       38.355       24.808     2930.360     1471.119      615.423        0.397        0.251       52.549       25.322        0.232      346.004       23.939      865.967
07/29/2014  06:04:00      -62.072      -25.743        8.899       45.978       52.526       25.992     2113.998     2758.988      675.585        0.507        0.277       67.199       25.603        0.145      346.021       23.970      865.985
07/29/2014  06:05:00     -159.708      -81.109      -21.889       78.504       52.829       39.053     6162.926     2790.944     1525.118        2.152        0.524      179.124       45.833        0.065      346.147       24.182      865.989
07/29/2014  06:06:00     -114.326      -43.036       -2.667       65.243       43.174       30.267     4256.655     1864.037      916.094        1.098        0.352      122.158       25.996        0.045      346.061       24.036      865.999
07/29/2014  06:07:00     -186.747      -84.055       -8.237       54.416       53.076       24.469     2961.151     2817.095      598.748        2.419        0.319      204.792       24.246        0.014      346.183       24.245      866.001
07/29/2014  06:08:00     -159.917      -62.241        4.307       78.630       57.142       38.017     6182.713     3265.165     1445.258        2.018        0.545      171.602       34.245        0.040      346.194       24.264      865.995
07/29/2014  06:09:00     -154.530      -48.822       -3.457       67.102       63.501       41.849     4502.663     4032.438     1751.374        1.828        0.514      162.058       43.346        0.072      346.135       24.162      865.993
07/29/2014  06:10:00     -193.219     -107.438       -3.384       97.449       45.595       36.630     9496.374     2078.902     1341.760        3.090        0.646      221.080       42.650        0.037      346.321       24.482      866.001
07/29/2014  06:11:00      -80.074      -40.113        4.477       81.591       49.322       35.001     6657.164     2432.616     1225.084        0.918        0.516       89.559       38.246        0.182      346.165       24.217      865.993
07/29/2014  06:12:00     -121.184      -41.002       -3.030       70.161       41.011       33.434     4922.589     1681.910     1117.837        1.205        0.386      127.933       25.622        0.040      346.230       24.326      865.979
07/29/2014  06:13:00     -152.196      -54.685       -1.257       86.457       52.031       29.862     7474.863     2707.211      891.733        1.861        0.554      161.722       34.089        0.044      346.169       24.221      865.973
07/29/2014  06:14:00     -153.852      -45.434        0.291       45.437       43.177       28.630     2064.508     1864.273      819.671        1.524        0.237      160.420       27.852        0.030      346.218       24.307      865.966
07/29/2014  06:15:00     -135.653      -56.238        3.722       79.042       56.224       36.483     6247.688     3161.082     1330.995        1.616        0.537      146.849       32.628        0.049      346.256       24.372      865.949
07/29/2014  06:16:00     -110.221      -81.008        2.756       56.083       34.755       31.525     3145.293     1207.916      993.796        1.203        0.267      136.788       29.941        0.048      346.228       24.324      865.932
07/29/2014  06:17:00     -118.048      -94.660       -1.968       89.266       53.537       36.527     7968.379     2866.184     1334.193        1.753        0.608      151.314       39.402        0.068      346.247       24.356      865.944
07/29/2014  06:18:00     -105.213      -74.922       13.170      104.911       88.211       49.702    11006.277     7781.242     2470.250        1.905        1.063      129.163       42.165        0.107      346.194       24.263      865.980
07/29/2014  06:19:00     -138.998      -39.327        8.256       91.362       60.078       39.204     8346.938     3609.315     1536.959        1.721        0.675      144.454       42.828        0.088      346.255       24.369      865.997
07/29/2014  06:20:00      -93.220      -59.762       -4.231       99.729       75.380       43.919     9945.941     5682.125     1928.838        1.491        0.878      110.732       50.772        0.210      346.256       24.371      865.986
07/29/2014  06:21:00      -88.402      -35.489       -9.149       45.684       38.844       26.227     2087.019     1508.855      687.874        0.672        0.214       95.260       18.377        0.037      346.298       24.445      865.971
07/29/2014  06:22:00     -148.322      -32.811       -2.194       66.805       49.204       30.946     4462.916     2421.061      957.649        1.546        0.392      151.908       23.470        0.024      346.355       24.541      865.950
07/29/2014  06:23:00     -181.487      -68.364       -7.150       43.921       49.731       29.969     1929.074     2473.188      898.120        2.148        0.265      193.936       19.747        0.010      346.316       24.475      865.970
07/29/2014  06:24:00     -154.209      -97.781       -8.929       82.991       78.473       42.309     6887.425     6157.941     1790.055        2.413        0.742      182.597       43.774        0.057      346.289       24.428      866.003
07/29/2014  06:25:00     -175.053      -87.494       -1.746      101.273       61.865       43.226    10256.129     3827.289     1868.506        2.712        0.798      195.700       44.320        0.051      346.334       24.503      866.000
07/29/2014  06:26:00      -94.107     -133.214        3.666       80.458       74.962       41.312     6473.521     5619.357     1706.703        2.020        0.690      163.102       39.495        0.059      346.352       24.537      865.997
07/29/2014  06:27:00      -73.840      -55.866        9.837       66.588       59.211       37.979     4434.009     3505.960     1442.415        0.902        0.469       92.592       34.776        0.141      346.320       24.483      865.991
07/29/2014  06:28:00      -57.453       -3.338        0.540       51.090       42.155       26.101     2610.156     1777.032      681.270        0.419        0.253       57.550       27.109        0.222      346.323       24.488      865.979
07/29/2014  06:29:00     -147.073      -31.665       -8.476       75.390       39.336       31.877     5683.710     1547.324     1016.154        1.547        0.412      150.444       41.378        0.076      346.402       24.624      865.982
07/29/2014  06:30:00     -107.523      -25.921        7.295       77.194       53.594       34.316     5958.914     2872.276     1177.560        1.115        0.500      110.603       34.084        0.095      346.258       24.377      866.004
07/29/2014  06:31:00     -130.130      -66.930        4.298       86.145       67.003       48.735     7421.009     4489.386     2375.075        1.786        0.714      146.333       52.160        0.127      346.313       24.470      866.013
07/29/2014  06:32:00     -259.840      -30.311      -19.450       80.543       63.272       37.725     6487.254     4003.361     1423.190        4.036        0.596      261.602       39.254        0.023      346.434       24.674      866.017
07/29/2014  06:33:00     -206.463       29.698      -18.379       78.671       45.385       27.172     6189.073     2059.788      738.328        2.642        0.449      208.588       27.736        0.018      346.658       25.062      865.980
07/29/2014  06:34:00     -189.464       -5.369      -12.765       68.367       52.763       28.166     4674.002     2783.939      793.328        2.217        0.413      189.540       28.278        0.022      346.378       24.580      866.004
07/29/2014  06:35:00     -252.449      -75.375      -16.976       74.606       71.900       41.727     5566.069     5169.609     1741.154        4.109        0.624      263.461       39.807        0.023      346.368       24.560      866.038
07/29/2014  06:36:00     -232.289      -65.443      -12.193      102.867       91.469       49.370    10581.682     8366.505     2437.401        3.988        1.069      241.332       55.237        0.052      346.369       24.562      866.039
07/29/2014  06:37:00     -195.250       14.584      -12.894      112.527       48.718       38.244    12662.306     2373.424     1462.624        2.750        0.825      195.794       52.769        0.073      346.449       24.702      866.027
07/29/2014  06:38:00     -107.104       21.832      -11.035       54.750       54.643       31.305     2997.526     2985.850      979.975        0.952        0.348      109.306       29.271        0.072      346.353       24.539      866.010
07/29/2014  06:39:00      -70.206      -18.789        1.669       47.882       46.767       24.973     2292.662     2187.135      623.631        0.519        0.255       72.676       23.730        0.107      346.351       24.535      866.021
07/29/2014  06:40:00     -186.926      -72.236       -6.392       87.641       92.454       42.799     7680.927     8547.678     1831.768        2.913        0.903      200.398       37.081        0.034      346.332       24.500      866.022
07/29/2014  06:41:00     -167.867      -80.399      -19.387      122.588       77.664       48.115    15027.788     6031.729     2315.048        2.919        1.169      186.128       37.080        0.040      346.355       24.541      866.011
07/29/2014  06:42:00     -137.396       63.297      -30.174       82.674       88.630       48.336     6834.992     7855.336     2336.400        2.041        0.851      151.275       57.216        0.143      346.411       24.636      866.006
07/29/2014  06:43:00     -130.033       58.252      -12.441       54.360       94.212       42.814     2955.021     8875.881     1833.031        1.706        0.683      142.484       31.960        0.050      346.428       24.666      866.018
07/29/2014  06:44:00     -175.967      -78.423       -5.958      126.130      100.028       49.536    15908.840    10005.690     2453.843        3.275        1.418      192.651       47.918        0.062      346.482       24.760      866.024
07/29/2014  06:45:00     -159.884      -10.582      -22.260      116.978       73.480       57.379    13683.841     5399.245     3292.317        2.427        1.119      160.234       46.935        0.086      346.441       24.688      866.039
07/29/2014  06:46:00     -118.708       -0.124        1.023       55.926       53.150       33.045     3127.759     2824.955     1091.987        1.057        0.352      118.708       28.280        0.057      346.425       24.664      866.054
07/29/2014  06:47:00     -105.846       64.236      -18.899       49.206       78.011       31.614     2421.259     6085.647      999.425        1.259        0.475      123.813       37.426        0.091      346.443       24.694      866.088
07/29/2014  06:48:00      -98.315      108.758      -22.761       43.008       30.731       23.188     1849.663      944.375      537.706        1.267        0.167      146.609       21.094        0.021      346.484       24.765      866.102
07/29/2014  06:49:00      -86.996      118.700      -21.812       42.082       45.922       22.711     1770.898     2108.800      515.784        1.326        0.220      147.167       21.930        0.022      346.448       24.701      866.095
07/29/2014  06:50:00     -123.618       91.970      -26.049       34.827       27.161       21.382     1212.888      737.712      457.211        1.341        0.120      154.077       20.187        0.017      346.544       24.870      866.094
07/29/2014  06:51:00     -133.739       13.224      -17.186       77.618       48.572       32.343     6024.609     2359.246     1046.055        1.389        0.471      134.391       35.547        0.070      346.541       24.862      866.111
07/29/2014  06:52:00     -141.056       38.945      -28.412       38.208       41.207       30.868     1459.839     1698.048      952.848        1.316        0.206      146.334       25.718        0.031      346.603       24.968      866.117
07/29/2014  06:53:00     -157.244        0.098      -14.743       48.671       52.296       21.666     2368.840     2734.873      469.431        1.526        0.279      157.244       21.003        0.018      346.431       24.673      866.141
07/29/2014  06:54:00      -90.201       32.138      -10.577       25.699       42.309       22.497      660.442     1790.086      506.137        0.612        0.148       95.755       17.869        0.035      346.288       24.428      866.166
07/29/2014  06:55:00      -90.738      126.659      -20.233       42.948       61.391       25.576     1844.511     3768.807      654.137        1.548        0.313      155.807       22.968        0.022      346.313       24.469      866.191
07/29/2014  06:56:00      -41.991      154.775      -12.171       37.179       57.850       29.120     1382.300     3346.593      847.995        1.572        0.279      160.370       23.764        0.022      346.368       24.564      866.195
07/29/2014  06:57:00       20.872      171.781      -21.931       27.714       81.246       24.219      768.047     6600.976      586.557        1.919        0.398      173.045       33.147        0.037      346.200       24.273      866.211
07/29/2014  06:58:00       75.562      196.590      -12.784       68.653       91.008       49.360     4713.219     8282.456     2436.457        2.997        0.772      210.611       56.723        0.073      346.164       24.213      866.212
07/29/2014  06:59:00       32.833       73.979       -5.961       39.459       54.289       27.216     1556.986     2947.317      740.692        0.591        0.262       80.938       26.981        0.111      346.107       24.115      866.220
07/29/2014  07:00:00       51.053      118.482       -8.430       49.033       65.039       34.277     2404.218     4230.129     1174.946        1.226        0.390      129.013       34.929        0.073      346.076       24.063      866.231
07/29/2014  07:01:00       61.866       77.354       -7.933       40.404       39.732       25.589     1632.468     1578.665      654.792        0.687        0.193       99.050       17.012        0.029      346.127       24.150      866.231
07/29/2014  07:02:00       50.802       62.417        5.606       24.186       38.966       26.500      584.983     1518.343      702.224        0.466        0.140       80.478       22.932        0.081      346.081       24.072      866.251
07/29/2014  07:03:00       22.545       26.158       14.630       14.434       19.722       10.653      208.335      388.952      113.492        0.106        0.036       34.533        7.110        0.042      346.015       23.957      866.261
07/29/2014  07:04:00      -10.031      -16.759        9.004       10.863       13.593       10.264      118.012      184.772      105.348        0.044        0.020       19.531        6.566        0.113      346.013       23.954      866.264
07/29/2014  07:05:00       15.747      -70.986      -13.436       15.524       23.293       14.058      240.990      542.581      197.616        0.322        0.049       72.712       11.952        0.027      345.979       23.898      866.277
07/29/2014  07:06:00       70.000      -75.099      -16.867       33.343       29.002       21.862     1111.756      841.092      477.933        0.663        0.122      102.664       11.934        0.014      345.837       23.653      866.275
07/29/2014  07:07:00       91.954      -68.269       -6.772       52.685       54.853       33.860     2775.749     3008.854     1146.469        1.005        0.347      114.526       38.965        0.116      345.719       23.448      866.273
07/29/2014  07:08:00       32.174       16.263       60.519       57.432       58.457       46.129     3298.397     3417.259     2127.896        0.690        0.442       36.051       51.235        2.020      345.667       23.361      866.270
07/29/2014  07:09:00       12.327        3.975       47.532       30.491       32.032       26.134      929.673     1026.037      683.001        0.253        0.132       12.952       24.019        3.439      345.758       23.516      866.275
07/29/2014  07:10:00       59.393      -84.581      -12.957       25.382       35.178       20.480      644.240     1237.497      419.447        0.657        0.115      103.352       15.155        0.022      345.798       23.588      866.279
07/29/2014  07:11:00       34.634       10.709       37.322       46.676       50.669       35.883     2178.614     2567.389     1287.588        0.437        0.302       36.252       36.715        1.026      345.681       23.387      866.275
07/29/2014  07:12:00       11.452      -12.385       39.812       21.316       45.458       25.208      454.352     2066.399      635.449        0.251        0.158       16.868       28.375        2.830      345.643       23.319      866.275
07/29/2014  07:13:00       41.357       -0.410       26.416       42.925       32.956       23.403     1842.562     1086.076      547.679        0.294        0.174       41.359       24.620        0.354      345.671       23.369      866.277
07/29/2014  07:14:00       49.395        3.920       21.299       33.779       39.045       30.850     1140.998     1524.517      951.699        0.326        0.181       49.550       31.102        0.394      345.641       23.317      866.272
07/29/2014  07:15:00       10.246       41.380       56.540       37.444       54.070       37.953     1402.082     2923.593     1440.416        0.539        0.288       42.630       36.443        0.731      345.628       23.294      866.263
07/29/2014  07:16:00       12.937       67.109       81.307       35.841       45.607       29.317     1284.545     2079.991      859.471        0.775        0.211       68.345       23.604        0.119      345.638       23.311      866.248
07/29/2014  07:17:00       32.572       52.458       86.391       51.576       54.043       30.285     2660.092     2920.592      917.151        0.889        0.325       61.748       21.142        0.117      345.618       23.277      866.215
07/29/2014  07:18:00       25.268       22.900       94.337       44.487       82.933       47.442     1979.105     6877.953     2250.707        1.058        0.555       34.101       53.772        2.487      345.559       23.174      866.185
07/29/2014  07:19:00       83.011     -179.414      -14.344       55.313       69.308       45.677     3059.571     4803.639     2086.356        2.462        0.497      197.687       28.934        0.021      345.543       23.144      866.195
07/29/2014  07:20:00      -85.424     -107.657      -14.588       67.380       43.932       20.515     4540.033     1930.021      420.872        1.299        0.345      137.431       23.630        0.030      345.499       23.073      866.241
07/29/2014  07:21:00     -143.167        6.013      -19.647       47.060       41.773       26.186     2214.634     1744.945      685.723        1.278        0.232      143.293       22.600        0.025      345.458       23.000      866.259
07/29/2014  07:22:00     -162.617        8.167      -16.693       40.094       32.895       23.508     1607.511     1082.088      552.621        1.502        0.162      162.822       17.785        0.012      345.563       23.182      866.269
07/29/2014  07:23:00      -73.456      -18.600      -18.562       45.541       32.525       15.906     2073.963     1057.870      253.006        0.473        0.169       75.774       14.021        0.034      345.751       23.505      866.265
07/29/2014  07:24:00       -5.976       -5.450       -6.520       10.270       10.134       10.891      105.479      102.690      118.621        0.022        0.016        8.088        6.891        0.726      345.834       23.648      866.236
07/29/2014  07:25:00      -10.150      -38.045       -1.985       19.811       32.936       16.368      392.480     1084.809      267.907        0.165        0.087       39.375       11.639        0.087      345.808       23.601      866.236
07/29/2014  07:26:00        0.543      -21.182       20.211       14.896       43.830       16.540      221.882     1921.098      273.558        0.164        0.121       21.189       11.238        0.281      345.797       23.585      866.220
07/29/2014  07:27:00        2.568       12.178       12.672       23.051       31.058       20.151      531.328      964.613      406.048        0.111        0.095       12.446       12.406        0.994      345.724       23.461      866.212
07/29/2014  07:28:00      -32.933       71.373      -16.200       31.959       15.936       11.036     1021.387      253.959      121.785        0.392        0.070       78.605        5.973        0.006      345.540       23.143      866.214
07/29/2014  07:29:00      -43.786       75.734      -13.520       23.479       16.570       17.696      551.260      274.581      313.154        0.449        0.057       87.480       15.031        0.030      345.468       23.019      866.222
07/29/2014  07:30:00        6.945       54.952       -0.759       23.590       13.895        8.482      556.478      193.067       71.951        0.194        0.041       55.389        7.665        0.019      345.636       23.308      866.212
07/29/2014  07:31:00       29.434       24.101        0.632       22.010       19.739       16.363      484.454      389.641      267.741        0.129        0.057       38.043       12.944        0.116      345.624       23.287      866.208
07/29/2014  07:32:00        7.415       44.051       -1.948       14.926       35.232       18.952      222.777     1241.283      359.193        0.191        0.091       44.671       19.103        0.183      345.523       23.113      866.211
07/29/2014  07:33:00       27.547      126.869      -14.690       25.661       32.659       23.928      658.487     1066.585      572.533        0.968        0.115      129.825       18.548        0.020      345.507       23.085      866.213
07/29/2014  07:34:00       18.827       79.145        0.889       28.578       60.005       35.863      816.692     3600.569     1286.131        0.616        0.285       81.353       34.416        0.179      345.445       22.980      866.202
07/29/2014  07:35:00       11.461       82.780       -3.283       40.586       42.760       34.119     1647.261     1828.393     1164.125        0.582        0.232       83.570       28.803        0.119      345.378       22.865      866.191
07/29/2014  07:36:00        4.827      113.798      -15.784       25.061       26.028       17.900      628.050      677.459      320.423        0.742        0.081      113.900       14.568        0.016      345.381       22.869      866.210
07/29/2014  07:37:00        2.749      140.099      -18.102       30.539       28.865       13.129      932.609      833.206      172.360        1.095        0.097      140.126       13.125        0.009      345.457       23.001      866.222
07/29/2014  07:38:00       35.636      115.395      -12.523       39.474       52.630       35.813     1558.175     2769.892     1282.538        1.018        0.281      120.772       34.034        0.079      345.490       23.059      866.221
07/29/2014  07:39:00       34.817       70.845       -1.381       44.367       51.693       40.725     1968.421     2672.152     1658.552        0.626        0.315       78.938       32.026        0.165      345.463       23.011      866.213
07/29/2014  07:40:00       26.288       36.818       12.461       42.315       33.034       33.048     1790.536     1091.255     1092.187        0.309        0.199       45.240       27.758        0.376      345.503       23.079      866.228
07/29/2014  07:41:00      -27.674       50.983      -13.469       27.244       24.472        8.622      742.223      598.867       74.335        0.248        0.071       58.009        7.248        0.016      345.571       23.196      866.269
07/29/2014  07:42:00        4.761       13.569        2.008       59.088       17.669       14.569     3491.430      312.195      212.256        0.211        0.201       14.380       18.252        1.611      345.509       23.089      866.275
07/29/2014  07:43:00      120.223      117.123        3.573       65.240       40.467       38.770     4256.296     1637.596     1503.117        1.779        0.370      167.843       32.228        0.037      345.688       23.399      866.249
07/29/2014  07:44:00       19.825       86.714      -11.295       37.688       59.217       25.593     1420.371     3506.689      654.985        0.681        0.279       88.951       29.639        0.111      345.787       23.566      866.253
07/29/2014  07:45:00       21.912      162.683      -23.617       38.911       30.584       20.751     1514.045      935.412      430.587        1.519        0.144      164.152       18.445        0.013      345.762       23.525      866.265
07/29/2014  07:46:00       23.500       89.677      -13.772       39.253       38.061       31.631     1540.769     1448.614     1000.549        0.639        0.199       92.705       25.759        0.077      345.773       23.545      866.278
07/29/2014  07:47:00      -26.780      147.764      -21.199       25.363       49.661       20.440      643.263     2466.229      417.786        1.326        0.176      150.171       19.163        0.016      345.849       23.673      866.320
07/29/2014  07:48:00      -41.284      151.351      -18.013       28.893       42.252       20.424      834.827     1785.244      417.134        1.399        0.152      156.880       18.620        0.014      345.928       23.808      866.344
07/29/2014  07:49:00      -64.763      128.564      -15.544       32.332       42.749       28.068     1045.364     1827.483      787.830        1.231        0.183      143.955       27.203        0.036      346.009       23.947      866.363
07/29/2014  07:50:00       -5.876      112.962       -3.932       44.167       67.706       29.315     1950.756     4584.079      859.355        1.010        0.370      113.115       30.876        0.075      345.987       23.910      866.356
07/29/2014  07:51:00      -83.329       82.140      -13.102       70.333       54.404       30.815     4946.767     2959.821      949.540        1.136        0.443      117.007       26.906        0.053      345.989       23.914      866.371
07/29/2014  07:52:00      -80.222      128.571      -19.728       39.664       94.062       28.079     1573.229     8847.693      788.427        1.728        0.560      151.546       23.983        0.025      346.037       23.994      866.408
07/29/2014  07:53:00      -45.882      192.489      -26.077       33.036       48.831       28.409     1091.365     2384.501      807.098        2.206        0.214      197.881       26.743        0.018      346.139       24.170      866.414
07/29/2014  07:54:00      -23.505      171.423      -23.848       48.413       36.639       20.949     2343.850     1342.423      438.843        1.732        0.206      173.027       19.433        0.013      346.044       24.008      866.420
07/29/2014  07:55:00       59.887      112.384       -0.571       60.206       64.167       48.635     3624.809     4117.348     2365.407        1.316        0.505      127.344       43.883        0.119      346.016       23.959      866.387
07/29/2014  07:56:00       98.727       84.640        5.163       55.212       63.589       48.654     3048.406     4043.614     2367.258        1.320        0.473      130.042       44.779        0.119      346.013       23.955      866.359
07/29/2014  07:57:00      103.687       70.522        7.752       71.517       52.508       33.692     5114.698     2757.041     1135.168        1.239        0.450      125.397       24.313        0.038      345.920       23.798      866.366
07/29/2014  07:58:00      -82.168       20.698      -11.574       62.489       56.165       26.043     3904.912     3154.487      678.214        0.752        0.387       84.735       18.946        0.050      345.865       23.703      866.428
07/29/2014  07:59:00     -232.556     -104.433       -5.350       65.393       48.035       30.906     4276.208     2307.348      955.206        3.628        0.377      254.929       21.086        0.007      345.902       23.761      866.459
07/29/2014  08:00:00     -133.405      -46.233       -4.278       54.740       60.516       30.812     2996.432     3662.221      949.394        1.378        0.380      141.189       26.147        0.034      345.915       23.786      866.476
07/29/2014  08:01:00        9.009       29.345        0.126       44.274       28.937       13.135     1960.148      837.338      172.522        0.196        0.149       30.696       13.508        0.194      346.013       23.958      866.452
07/29/2014  08:02:00      118.513       71.605        2.728       66.844       41.483       27.054     4468.116     1720.824      731.919        1.305        0.346      138.466       23.943        0.030      346.066       24.045      866.424
07/29/2014  08:03:00       26.562      186.967      -29.000       54.559       98.827       38.460     2976.715     9766.840     1479.200        2.536        0.711      188.844       44.640        0.056      346.071       24.053      866.409
07/29/2014  08:04:00       38.307      169.435      -34.069       28.829       63.626       26.269      831.102     4048.241      690.048        1.845        0.278      173.711       28.359        0.027      346.448       24.701      866.412
07/29/2014  08:05:00       85.382       43.508       -0.134       27.757       29.635       24.681      770.429      878.204      609.135        0.572        0.113       95.828       15.148        0.025      346.392       24.609      866.392
07/29/2014  08:06:00       53.449       87.102        5.301       44.225       45.883       33.832     1955.850     2105.228     1144.586        0.784        0.260      102.194       28.743        0.079      346.336       24.510      866.399
07/29/2014  08:07:00        4.389       42.035      -12.853       26.088       34.608       14.485      680.593     1197.724      209.813        0.202        0.104       42.264       16.907        0.160      346.201       24.278      866.411
07/29/2014  08:08:00      -67.659      -14.115      -11.836       31.052       20.669       11.824      964.231      427.187      139.806        0.322        0.077       69.115        6.847        0.010      346.137       24.168      866.429
07/29/2014  08:09:00       20.620       12.591       12.057       19.488       16.959       11.312      379.795      287.602      127.961        0.076        0.040       24.160       11.968        0.245      346.248       24.358      866.426
07/29/2014  08:10:00       29.898       30.802        8.412       27.357       24.334       22.494      748.432      592.156      505.981        0.188        0.092       42.926       10.716        0.062      346.318       24.479      866.389
07/29/2014  08:11:00       -7.891       25.924       39.612       31.269       31.138       24.270      977.734      969.567      589.026        0.242        0.127       27.098       22.604        0.696      346.311       24.467      866.388
07/29/2014  08:12:00      -12.445       13.396        2.886       27.425       28.081       16.339      752.115      788.521      266.957        0.107        0.090       18.285       16.376        0.802      346.272       24.401      866.403
07/29/2014  08:13:00      -58.417       -8.892      -13.917       56.857       41.399       30.915     3232.700     1713.906      955.743        0.479        0.295       59.090       21.690        0.135      346.378       24.582      866.393
07/29/2014  08:14:00       36.323       40.358       -2.130       32.642       42.720       26.185     1065.513     1824.997      685.649        0.326        0.179       54.297       27.210        0.251      346.362       24.555      866.378
07/29/2014  08:15:00      -87.253       35.386      -15.465       44.065       19.404       13.381     1941.759      376.516      179.060        0.580        0.125       94.156       11.083        0.014      346.324       24.492      866.389
07/29/2014  08:16:00     -114.574       55.595      -13.373       41.115       43.324       21.928     1690.426     1876.968      480.824        1.022        0.202      127.350       21.536        0.029      346.377       24.581      866.379
07/29/2014  08:17:00      -34.534        0.189       -1.890       50.860       39.543       28.270     2586.707     1563.640      799.211        0.307        0.247       34.535       30.599        0.785      346.603       24.969      866.334
07/29/2014  08:18:00      -61.900       13.155      -14.049       43.505       30.364       20.648     1892.644      921.998      426.341        0.372        0.162       63.283       12.650        0.040      346.557       24.891      866.315
07/29/2014  08:19:00     -126.819      -16.976      -10.478       42.873       40.438       21.015     1838.093     1635.226      441.642        1.020        0.196      127.950       16.726        0.017      346.490       24.772      866.320
07/29/2014  08:20:00      -96.288       18.988      -12.759       50.513       43.028       35.438     2551.519     1851.368     1255.885        0.773        0.283       98.142       21.848        0.050      346.532       24.847      866.336
07/29/2014  08:21:00     -118.695      -10.322      -15.464       29.868       38.112       15.423      892.114     1452.532      237.864        0.851        0.129      119.143       14.099        0.014      346.537       24.857      866.319
07/29/2014  08:22:00     -123.982      -31.938       -9.967       29.713       27.997       14.870      882.865      783.813      221.129        0.919        0.094      128.029       15.273        0.014      346.574       24.918      866.314
07/29/2014  08:23:00     -117.953        0.047       -7.535       22.572       27.735       20.823      509.499      769.248      433.592        0.784        0.086      117.953        8.071        0.005      346.555       24.885      866.328
07/29/2014  08:24:00      -47.443        6.402        0.625       28.346       19.047       19.843      803.518      362.787      393.728        0.193        0.078       47.873       18.682        0.152      346.646       25.043      866.311
07/29/2014  08:25:00     -119.536       94.403      -24.231       97.269       53.796       31.667     9461.203     2893.975     1002.820        1.857        0.668      152.317       38.793        0.065      346.732       25.188      866.318
07/29/2014  08:26:00     -139.533      232.409      -33.575       76.668       93.693       35.142     5878.003     8778.436     1234.990        4.525        0.795      271.078       42.618        0.025      346.566       24.903      866.310
07/29/2014  08:27:00      -92.064      103.214      -13.852       55.242       60.568       35.505     3051.708     3668.490     1260.620        1.365        0.399      138.308       36.192        0.068      346.672       25.087      866.283
07/29/2014  08:28:00     -123.708      177.288      -28.144       72.713       60.144       34.047     5287.250     3617.294     1159.217        2.879        0.503      216.182       27.835        0.017      346.634       25.019      866.271
07/29/2014  08:29:00     -141.446      150.584      -40.330       76.619       41.585       36.032     5870.521     1729.276     1298.282        2.660        0.445      206.598       41.544        0.040      346.670       25.080      866.248
07/29/2014  08:30:00     -117.382      123.524      -19.056       76.350       58.214       38.622     5829.375     3388.896     1491.678        2.005        0.535      170.401       40.432        0.056      346.752       25.224      866.250
07/29/2014  08:31:00     -123.180      169.025      -30.630       82.553       76.100       43.908     6814.916     5791.248     1927.892        2.960        0.727      209.148       43.948        0.044      346.851       25.392      866.229
07/29/2014  08:32:00      -62.237      136.611        0.631       62.252       70.788       37.877     3875.324     5010.997     1434.701        1.643        0.516      150.120       39.484        0.069      346.941       25.549      866.203
07/29/2014  08:33:00      -61.661      138.446      -14.579       73.426       61.149       41.173     5391.374     3739.158     1695.235        1.700        0.541      151.556       30.194        0.040      346.874       25.435      866.196
07/29/2014  08:34:00      -54.153       52.343        3.252       41.267       62.354       29.851     1702.930     3888.080      891.055        0.608        0.324       75.315       11.254        0.022      346.968       25.598      866.194
07/29/2014  08:35:00      -38.256        5.178        0.955       38.327       33.012       28.535     1468.943     1089.785      814.260        0.243        0.169       38.605       27.515        0.508      347.130       25.877      866.177
07/29/2014  08:36:00     -107.525       47.004      -15.070       57.837       63.694       36.874     3345.126     4056.893     1359.694        1.138        0.438      117.349       37.984        0.105      346.986       25.627      866.171
07/29/2014  08:37:00      -39.910       54.301        3.039       42.485       63.988       31.639     1804.949     4094.515     1001.021        0.572        0.345       67.390       26.380        0.153      347.118       25.854      866.153
07/29/2014  08:38:00      -84.066      207.901      -21.955       42.084       68.095       39.180     1771.040     4636.890     1535.106        2.936        0.397      224.254       41.347        0.034      347.039       25.715      866.139
07/29/2014  08:39:00      -94.194       80.676      -14.386       41.630       56.757       31.780     1733.089     3221.358     1009.951        1.077        0.298      124.020       23.791        0.037      347.084       25.797      866.131
07/29/2014  08:40:00      -35.794       12.891        5.615       34.861       25.354       16.838     1215.293      642.848      283.509        0.181        0.107       38.045       12.860        0.114      347.186       25.973      866.127
07/29/2014  08:41:00      -65.737       36.669      -18.194       18.363       36.960       24.235      337.186     1366.005      587.349        0.414        0.115       75.273       19.768        0.069      347.059       25.753      866.135
07/29/2014  08:42:00      -62.260       55.667       -8.801       31.547       31.936       26.275      995.220     1019.890      690.349        0.488        0.135       83.517       15.206        0.033      347.158       25.925      866.132
07/29/2014  08:43:00      -35.905       65.801       -0.253       35.749       38.836       21.891     1277.994     1508.197      479.234        0.444        0.163       74.960       17.878        0.057      347.215       26.024      866.141
07/29/2014  08:44:00      -82.988       85.806      -13.075       50.419       44.717       30.895     2542.113     1999.630      954.492        0.996        0.275      119.372       33.918        0.081      346.976       25.610      866.130
07/29/2014  08:45:00       20.391       21.808       21.221       35.661       22.158       27.213     1271.682      490.997      740.558        0.192        0.125       29.855       13.668        0.210      347.231       26.050      866.121
07/29/2014  08:46:00      -19.614       58.499        5.410       37.334       54.872       28.240     1393.822     3010.980      797.483        0.452        0.260       61.700       33.009        0.286      347.135       25.885      866.132
07/29/2014  08:47:00      -38.297      115.872      -12.313       33.510       91.098       35.038     1122.917     8298.802     1227.660        1.284        0.532      122.037       40.218        0.109      347.013       25.674      866.140
07/29/2014  08:48:00      -58.269       46.742      -12.663       26.154       35.167       28.686      684.027     1236.747      822.859        0.424        0.137       74.701       15.476        0.043      346.920       25.515      866.134
07/29/2014  08:49:00      -48.702       48.285       -4.630       42.355       40.423       19.958     1793.913     1634.039      398.310        0.427        0.191       68.581       18.877        0.076      346.970       25.600      866.143
07/29/2014  08:50:00      -27.502       56.874       -7.261       32.472       47.327       22.176     1054.433     2239.870      491.759        0.391        0.189       63.174       11.765        0.035      347.075       25.782      866.137
07/29/2014  08:51:00      -14.101       26.578        5.379       16.231       48.533       16.611      263.453     2355.494      275.915        0.191        0.145       30.087       25.678        0.728      347.265       26.109      866.139
07/29/2014  08:52:00      -20.618       95.853       -3.501       28.602       59.058       27.184      818.069     3487.807      738.963        0.733        0.252       98.045       31.371        0.102      347.184       25.969      866.130
07/29/2014  08:53:00      -44.510      179.991      -16.231       28.372       51.076       26.558      804.943     2608.756      705.321        1.938        0.206      185.413       25.758        0.019      347.011       25.671      866.128
07/29/2014  08:54:00       -4.628      104.594        0.630       29.640       51.727       36.038      878.524     2675.733     1298.752        0.791        0.243      104.696       32.941        0.099      347.287       26.147      866.118
07/29/2014  08:55:00      -14.080       94.561        8.476       37.243       66.662       29.980     1387.005     4443.796      898.802        0.797        0.336       95.603       37.702        0.156      347.415       26.368      866.111
07/29/2014  08:56:00       -5.614      149.882       -9.181       32.951       51.029       33.985     1085.773     2604.006     1154.989        1.371        0.242      149.987       31.896        0.045      347.415       26.368      866.093
07/29/2014  08:57:00       18.370      127.876       -0.283       48.273       68.225       47.185     2330.278     4654.607     2226.449        1.295        0.461      129.189       49.907        0.149      347.516       26.541      866.089
07/29/2014  08:58:00       34.282      109.629       -3.888       51.114       78.217       38.105     2612.651     6117.949     1452.014        1.169        0.509      114.865       45.100        0.154      347.488       26.494      866.080
07/29/2014  08:59:00        7.828      125.388      -19.100       40.239       71.527       28.295     1619.202     5116.121      800.614        1.184        0.377      125.632       34.788        0.077      347.547       26.595      866.073
07/29/2014  09:00:00        9.147      173.541      -12.255       29.473       82.537       38.530      868.651     6812.362     1484.557        1.976        0.458      173.782       49.059        0.080      347.570       26.633      866.067
07/29/2014  09:01:00       -5.036       51.867       11.331       37.917       34.936       26.264     1437.708     1220.528      689.812        0.310        0.167       52.111       19.986        0.147      347.886       27.181      866.052
07/29/2014  09:02:00       54.856       45.324       16.745       63.503       68.622       41.196     4032.620     4708.978     1697.079        0.789        0.522       71.158       25.734        0.131      347.799       27.030      866.028
07/29/2014  09:03:00       62.197      151.943      -19.215       46.453       85.129       43.065     2157.845     7246.951     1854.582        1.929        0.563      164.180       46.545        0.080      347.588       26.665      866.031
07/29/2014  09:04:00       34.266      154.224       -7.695       49.689       67.493       41.318     2468.972     4555.331     1707.194        1.687        0.437      157.985       37.346        0.056      347.644       26.760      866.040
07/29/2014  09:05:00       81.307      105.613       -1.130       53.808       51.710       49.087     2895.247     2673.954     2409.521        1.287        0.399      133.285       40.898        0.094      347.676       26.818      866.029
07/29/2014  09:06:00       29.242      130.699      -10.761       66.289       98.639       42.858     4394.223     9729.694     1836.834        1.700        0.798      133.930       42.769        0.102      347.706       26.867      866.031
07/29/2014  09:07:00       14.843      170.140      -18.552       52.206       94.229       42.887     2725.444     8879.046     1839.320        2.148        0.672      170.786       55.362        0.105      347.753       26.950      866.032
07/29/2014  09:08:00      -31.949      190.044      -22.163       49.555       41.583       28.614     2455.657     1729.112      818.768        2.132        0.250      192.711       20.749        0.012      347.723       26.897      866.021
07/29/2014  09:09:00       22.530      135.310      -14.554       42.012       59.857       35.428     1765.016     3582.891     1255.174        1.281        0.330      137.173       27.197        0.039      347.885       27.179      866.007
07/29/2014  09:10:00       44.360       61.674        3.447       42.376       38.515       29.052     1795.709     1483.371      844.036        0.495        0.206       75.970       20.946        0.076      347.967       27.319      865.984
07/29/2014  09:11:00       31.373      165.367      -11.398       57.919       97.155       46.563     3354.652     9439.019     2168.102        2.171        0.748      168.317       55.261        0.108      347.873       27.156      865.962
07/29/2014  09:12:00       -6.772      153.443      -12.488       60.922       72.371       38.971     3711.468     5237.525     1518.757        1.710        0.523      153.592       38.710        0.064      347.992       27.362      865.953
07/29/2014  09:13:00      -15.656      147.575      -15.941       43.656       76.070       41.027     1905.827     5786.615     1683.196        1.582        0.469      148.403       38.287        0.067      347.921       27.239      865.934
07/29/2014  09:14:00       50.219       40.407        5.186       52.991       34.842       37.707     2808.037     1213.930     1421.849        0.481        0.272       64.457       29.233        0.206      348.191       27.708      865.913
07/29/2014  09:15:00       25.775       55.540        5.539       52.257       62.412       31.002     2730.830     3895.309      961.103        0.568        0.379       61.229       11.808        0.037      348.268       27.841      865.900
07/29/2014  09:16:00      -28.827       68.146       12.295       32.715       62.122       33.150     1070.296     3859.171     1098.905        0.583        0.301       73.992       33.451        0.204      348.417       28.096      865.896
07/29/2014  09:17:00       26.083      112.760        3.539       53.778       62.628       36.911     2892.109     3922.267     1362.395        1.079        0.409      115.738       35.422        0.094      348.339       27.963      865.893
07/29/2014  09:18:00      -17.275      140.274      -11.055       56.215       51.619       43.638     3160.095     2664.572     1904.239        1.391        0.386      141.334       33.389        0.056      348.048       27.461      865.895
07/29/2014  09:19:00      -15.593       53.508       15.029       30.697       55.070       26.668      942.310     3032.674      711.179        0.401        0.234       55.734       31.369        0.317      348.554       28.335      865.894
07/29/2014  09:20:00       -6.250      121.487       -1.395       42.842       78.542       38.064     1835.417     6168.913     1448.897        1.212        0.473      121.648       41.909        0.119      348.386       28.043      865.889
07/29/2014  09:21:00      -66.465       91.046      -18.642       41.170       49.550       26.014     1694.961     2455.187      676.737        0.894        0.241      112.725       21.911        0.038      347.961       27.310      865.889
07/29/2014  09:22:00      -64.263        4.431      -16.479       40.877       53.142       22.331     1670.914     2824.071      498.695        0.471        0.250       64.416       29.234        0.206      347.900       27.205      865.884
07/29/2014  09:23:00      -43.229       80.753      -18.355       43.434       61.666       24.509     1886.499     3802.663      600.671        0.751        0.314       91.596       31.456        0.118      348.004       27.385      865.879
07/29/2014  09:24:00       31.928       57.706       -0.698       27.402       47.057       29.073      750.880     2214.397      845.261        0.408        0.191       65.950       28.314        0.184      348.355       27.992      865.880
07/29/2014  09:25:00       41.002       64.248       11.950       29.801       29.559       27.158      888.107      873.715      737.571        0.423        0.125       76.217       18.565        0.059      348.394       28.059      865.880
07/29/2014  09:26:00       93.140       75.893        2.797       38.999       53.804       41.624     1520.910     2894.840     1732.593        1.029        0.307      120.144       31.464        0.069      348.314       27.921      865.876
07/29/2014  09:27:00       19.119      196.254      -12.236       56.200       69.814       55.388     3158.452     4873.970     3067.795        2.506        0.555      197.183       46.180        0.055      348.301       27.894      865.883
07/29/2014  09:28:00      -17.367      202.775      -11.461       59.232       91.285       47.288     3508.379     8332.987     2236.172        2.781        0.704      203.517       54.287        0.071      348.267       27.835      865.875
07/29/2014  09:29:00      -42.242       42.920       20.458       47.757       65.872       30.563     2280.747     4339.115      934.099        0.580        0.378       60.221       34.688        0.332      348.531       28.295      865.863
07/29/2014  09:30:00      -15.821       51.509       11.970       25.479       38.633       22.595      649.185     1492.512      510.550        0.285        0.133       53.884       18.850        0.122      348.800       28.762      865.839
07/29/2014  09:31:00      -52.122       10.458        4.616       42.394       58.064       24.866     1797.290     3371.381      618.324        0.432        0.289       53.161       20.036        0.142      348.491       28.225      865.845
07/29/2014  09:32:00      -27.479       22.464       11.309       37.230       40.092       32.483     1386.066     1607.391     1055.162        0.272        0.202       35.493       16.976        0.229      348.727       28.635      865.848
07/29/2014  09:33:00      -42.219      -15.261        6.968       87.497       40.198       27.591     7655.739     1615.844      761.237        0.605        0.502       44.893       36.902        0.676      348.569       28.360      865.853
07/29/2014  09:34:00     -180.979       -8.546      -17.766       51.777       52.019       25.847     2680.882     2705.946      668.049        1.960        0.303      181.180       20.425        0.013      348.320       27.927      865.857
07/29/2014  09:35:00      -52.816      -38.444       13.793       70.252       33.551       29.863     4935.318     1125.686      891.822        0.570        0.348       65.326       38.193        0.342      348.695       28.579      865.859
07/29/2014  09:36:00        9.858       17.319       29.290       56.786       26.732       35.945     3224.689      714.603     1292.011        0.324        0.262       19.928       28.463        2.040      349.145       29.358      865.857
07/29/2014  09:37:00       51.310      138.874        1.957       44.576       58.720       41.747     1987.029     3448.014     1742.821        1.455        0.359      148.050       35.258        0.057      348.791       28.746      865.841
07/29/2014  09:38:00       30.662      137.440      -13.127       38.425       68.278       36.079     1476.448     4661.899     1301.680        1.372        0.372      140.818       35.600        0.064      348.770       28.707      865.828
07/29/2014  09:39:00       35.693       71.693        8.878       47.484       61.094       34.435     2254.687     3732.460     1185.799        0.683        0.359       80.087       37.207        0.216      349.043       29.181      865.832
07/29/2014  09:40:00       27.288       79.504        2.604       34.044       55.812       32.623     1158.984     3114.995     1064.254        0.620        0.267       84.057       35.479        0.178      348.912       28.955      865.830
07/29/2014  09:41:00       -5.909      232.171      -38.212       26.014       41.419       23.102      676.736     1715.548      533.704        2.916        0.146      232.246       18.760        0.007      348.509       28.252      865.829
07/29/2014  09:42:00      -26.417      130.047      -15.900       34.572       45.383       23.312     1195.214     2059.616      543.473        1.083        0.190      132.703       17.842        0.018      348.610       28.431      865.842
07/29/2014  09:43:00      -14.722        7.646       10.069       23.768       33.188       20.547      564.923     1101.442      422.167        0.123        0.104       16.589       15.850        0.913      348.822       28.799      865.851
07/29/2014  09:44:00      -34.907        4.719        8.331       16.109       15.151       16.995      259.515      229.545      288.829        0.104        0.039       35.224       12.717        0.130      348.542       28.314      865.844
07/29/2014  09:45:00      -44.889       -4.770        1.130       29.229       18.403       15.929      854.353      338.676      253.722        0.174        0.072       45.142       14.646        0.105      348.462       28.175      865.834
07/29/2014  09:46:00      -12.647       31.558      -12.697       29.508       19.628       25.853      870.737      385.262      668.376        0.162        0.096       33.997       13.071        0.148      348.648       28.498      865.831
07/29/2014  09:47:00       -0.591      -10.421       21.353       12.722       18.574       12.777      161.840      344.995      163.243        0.062        0.034       10.437       10.876        1.086      349.040       29.176      865.820
07/29/2014  09:48:00       31.973        8.286       36.272       21.087       16.911       22.103      444.642      285.996      488.544        0.181        0.061       33.029       13.469        0.166      348.653       28.506      865.837
07/29/2014  09:49:00       32.285      -12.748       16.063       38.053       34.805       33.576     1448.060     1211.401     1127.377        0.262        0.189       34.711       21.894        0.398      348.359       27.999      865.840
07/29/2014  09:50:00        5.382      -32.948       20.447       26.741       50.526       38.310      715.106     2552.903     1467.619        0.313        0.237       33.385       34.496        1.068      348.365       28.009      865.833
07/29/2014  09:51:00        3.786       26.503       60.776       22.840       64.129       28.208      521.667     4112.592      795.679        0.492        0.271       26.772       37.246        1.936      348.339       27.963      865.835
07/29/2014  09:52:00      -28.846      -23.278        5.049       21.225       23.275       16.045      450.501      541.703      257.458        0.132        0.062       37.067       16.295        0.193      348.276       27.854      865.829
07/29/2014  09:53:00      -34.066      -35.074       -0.300       33.154       17.866       16.515     1099.170      319.176      272.753        0.204        0.085       48.895       15.410        0.099      348.182       27.692      865.824
07/29/2014  09:54:00       -9.455      -35.432       10.867       33.791       32.305       23.174     1141.802     1043.597      537.016        0.209        0.136       36.672       16.686        0.207      348.354       27.988      865.808
07/29/2014  09:55:00       12.339      -64.476        1.506       49.404       49.054       30.713     2440.759     2406.265      943.301        0.505        0.290       65.646       27.804        0.179      348.397       28.064      865.796
07/29/2014  09:56:00       -1.895     -115.095       -7.812       44.652       45.402       30.904     1993.810     2061.362      955.049        0.916        0.251      115.111       24.375        0.045      348.324       27.936      865.789
07/29/2014  09:57:00      -42.426      -79.021       -0.840       54.355       43.649       31.743     2954.421     1905.265     1007.591        0.695        0.293       89.689       20.457        0.052      348.344       27.972      865.791
07/29/2014  09:58:00      -18.761       -6.911       28.302       24.014       43.132       22.665      576.675     1860.366      513.711        0.208        0.148       19.994       25.444        1.620      348.897       28.929      865.798
07/29/2014  09:59:00        3.056       19.871       53.845       32.633       53.263       40.408     1064.901     2836.999     1632.792        0.442        0.277       20.105       38.992        3.762      349.158       29.381      865.783
07/29/2014  10:00:00        7.685      -66.713        9.675       29.201       57.466       38.367      852.675     3302.348     1472.037        0.511        0.281       67.154       35.355        0.277      348.823       28.800      865.788
07/29/2014  10:01:00        6.939      -13.045       37.682       35.299       56.260       39.503     1246.051     3165.212     1560.468        0.380        0.299       14.776       39.235        7.051      349.077       29.240      865.795
07/29/2014  10:02:00       16.195      -24.899       27.400       28.255       50.875       36.770      798.372     2588.307     1352.007        0.318        0.237       29.702       31.410        1.118      349.015       29.133      865.798
07/29/2014  10:03:00       44.437       30.918       72.922       53.623       87.752       62.577     2875.414     7700.388     3915.859        1.137        0.725       54.134       65.593        1.468      348.910       28.951      865.802
07/29/2014  10:04:00       17.788       74.959      112.768       57.487       99.887       61.755     3304.729     9977.399     3813.729        1.787        0.855       77.041       66.458        0.744      348.708       28.600      865.788
07/29/2014  10:05:00       57.495       54.445      102.118       74.303       76.651       66.245     5520.949     5875.319     4388.341        1.624        0.789       79.182       63.267        0.638      348.748       28.670      865.792
07/29/2014  10:06:00       36.008       19.542       89.448       62.969      130.548       65.408     3965.039    17042.782     4278.193        1.748        1.264       40.969       84.896        4.294      349.015       29.132      865.800
07/29/2014  10:07:00       34.927        6.329       88.319       66.899       98.791       64.447     4475.491     9759.683     4153.416        1.372        0.919       35.495       65.699        3.426      349.129       29.329      865.795
07/29/2014  10:08:00      114.806      -82.015        3.615       82.634      106.710       72.542     6828.361    11387.111     5262.320        2.169        1.174      141.091       73.989        0.275      349.029       29.157      865.805
07/29/2014  10:09:00       98.520     -124.418        3.959       56.316       90.680       53.698     3171.453     8222.931     2883.458        1.974        0.714      158.701       49.830        0.099      348.746       28.664      865.810
07/29/2014  10:10:00       86.640       63.734       67.889       75.437       63.104       47.838     5690.789     3982.142     2288.435        1.407        0.598      107.557       25.308        0.055      348.873       28.887      865.811
07/29/2014  10:11:00      104.153       86.840       81.244       94.700       89.717       66.681     8968.181     8049.204     4446.318        2.322        1.073      135.607       72.844        0.289      348.631       28.465      865.815
07/29/2014  10:12:00       50.356       30.489       58.862       62.125       40.334       29.256     3859.511     1626.834      855.906        0.663        0.317       58.867       30.244        0.264      348.797       28.755      865.830
07/29/2014  10:13:00       54.383        2.100       20.831       31.291       28.250       30.934      979.129      798.039      956.911        0.306        0.137       54.424       19.067        0.123      348.768       28.706      865.844
07/29/2014  10:14:00       49.562       70.235       13.213       38.354       51.520       39.201     1471.067     2654.268     1536.715        0.661        0.283       85.962       18.967        0.049      348.829       28.811      865.863
07/29/2014  10:15:00      157.078       58.037       13.264       68.032       52.768       44.106     4628.372     2784.487     1945.326        1.879        0.468      167.457       34.447        0.042      349.066       29.220      865.880
07/29/2014  10:16:00       52.325       78.385       95.983       81.571       87.741       72.117     6653.886     7698.487     5200.906        1.882        0.978       94.245       65.848        0.488      348.991       29.091      865.814
07/29/2014  10:17:00      356.538      211.399       45.897      125.441      106.139       93.717    15735.496    11265.546     8782.925       10.484        1.789      414.498       60.956        0.022      349.043       29.178      865.761
07/29/2014  10:18:00      113.943      169.388       15.027      119.538      105.736       74.431    14289.299    11180.018     5539.927        3.645        1.550      204.146       55.954        0.075      349.452       29.888      865.809
07/29/2014  10:19:00       36.181      301.955       -9.486      155.074      199.279       80.189    24048.025    39712.301     6430.346        8.137        3.510      304.115      100.579        0.109      349.233       29.509      865.826
07/29/2014  10:20:00      -53.251      156.687       -7.753       86.589      131.395       60.936     7497.578    17264.587     3713.190        2.796        1.424      165.488       74.028        0.200      349.376       29.757      865.856
07/29/2014  10:21:00      -59.487       40.906      -11.838       67.909       90.481       40.045     4611.620     8186.791     1603.624        0.987        0.720       72.194       40.403        0.313      349.229       29.504      865.857
07/29/2014  10:22:00      -72.971      106.453       -1.634      137.635       91.576       64.203    18943.451     8386.190     4122.016        2.405        1.573      129.062       85.380        0.438      349.349       29.710      865.851
07/29/2014  10:23:00       40.087       20.495       30.375       43.186       33.363       22.955     1865.064     1113.065      526.922        0.323        0.175       45.022       13.313        0.087      349.836       30.556      865.836
07/29/2014  10:24:00      112.593      124.998        0.963      123.213       60.903       47.970    15181.428     3709.138     2301.166        2.474        1.060      168.231       32.021        0.036      349.572       30.095      865.839
07/29/2014  10:25:00      -18.680      265.233      -16.293       80.164      144.248       59.226     6426.322    20807.550     3507.733        5.085        1.537      265.890       74.601        0.079      349.421       29.832      865.817
07/29/2014  10:26:00        5.752      340.054      -25.688       82.231      203.700       70.413     6761.895    41493.656     4957.999        8.476        2.661      340.103       94.952        0.078      349.435       29.859      865.833
07/29/2014  10:27:00     -143.402      266.433      -15.846       75.091      120.257       79.293     5638.720    14461.691     6287.306        5.909        1.319      302.573       74.783        0.061      349.235       29.510      865.823
07/29/2014  10:28:00       50.113      247.319      -10.233       87.462      123.021       80.961     7649.632    15134.045     6554.631        4.655        1.467      252.345       80.799        0.103      349.338       29.689      865.811
07/29/2014  10:29:00       39.387      234.474      -12.192       85.053      129.691       70.449     7234.092    16819.787     4963.087        4.284        1.451      237.759       67.661        0.081      349.541       30.042      865.805
07/29/2014  10:30:00       18.635      293.694      -23.362      101.120      127.421       76.258    10225.319    16236.106     5815.261        5.971        1.614      294.285       74.652        0.064      349.454       29.890      865.791
07/29/2014  10:31:00      143.763      173.863       15.654      115.846       86.924       84.254    13420.367     7555.774     7098.809        3.960        1.404      225.601       62.020        0.076      349.507       29.983      865.751
07/29/2014  10:32:00       17.235      288.782      -26.365      117.466      137.801       76.992    13798.230    18989.182     5927.801        6.154        1.936      289.296       86.132        0.089      349.359       29.727      865.755
07/29/2014  10:33:00      -13.142      273.756      -28.323      122.725      176.245       85.423    15061.311    31062.153     7297.139        6.466        2.671      274.072       89.696        0.107      349.465       29.911      865.730
07/29/2014  10:34:00      -75.307      560.544      -62.662      100.309      146.053       69.201    10061.806    21331.433     4788.722       17.999        1.809      565.580       75.904        0.018      349.377       29.756      865.730
07/29/2014  10:35:00       13.991      384.662      -38.490      104.093      167.374       83.570    10835.376    28013.986     6983.909        9.773        2.292      384.916       94.718        0.061      349.430       29.848      865.742
07/29/2014  10:36:00      -69.069      356.588      -20.396      105.622      179.278       77.776    11156.083    32140.670     6049.100        9.083        2.467      363.216       88.817        0.060      349.560       30.074      865.724
07/29/2014  10:37:00      -53.649      473.898      -44.166      143.269      129.442       86.209    20525.979    16755.248     7431.908       13.705        2.236      476.926       78.545        0.027      349.432       29.852      865.732
07/29/2014  10:38:00     -137.308      412.259      -48.012      115.805      160.417       74.335    13410.890    25733.664     5525.680       11.788        2.234      434.524       81.563        0.035      349.328       29.671      865.744
07/29/2014  10:39:00      -16.750      401.799      -35.928       87.141      141.201       65.850     7593.516    19937.632     4336.216        9.743        1.593      402.148       72.631        0.033      349.428       29.845      865.733
07/29/2014  10:40:00      -19.482      309.528      -26.021       75.214      137.048       58.774     5657.098    18782.271     3454.424        6.237        1.395      310.141       60.554        0.038      349.641       30.213      865.728
07/29/2014  10:41:00      -26.912      379.597      -36.609       91.009      112.448       67.782     8282.683    12644.445     4594.432        8.583        1.276      380.550       65.580        0.030      349.530       30.021      865.733
07/29/2014  10:42:00      -26.402      286.025      -21.232      125.166      134.103       72.238    15666.612    17983.697     5218.286        6.091        1.943      287.241       67.694        0.056      349.675       30.273      865.750
07/29/2014  10:43:00     -127.776      336.484      -40.967       97.883      108.209       70.919     9581.104    11709.173     5029.486        7.877        1.316      359.928       67.528        0.035      349.387       29.774      865.773
07/29/2014  10:44:00      -23.535      339.739      -32.637       68.409      120.052       56.301     4679.729    14412.510     3169.776        6.965        1.113      340.553       57.176        0.028      349.427       29.842      865.773
07/29/2014  10:45:00        4.193      281.345       -1.858      109.198      199.731       83.788    11924.294    39892.520     7020.395        6.899        2.942      281.376      108.151        0.148      349.516       29.999      865.785
07/29/2014  10:46:00      -80.862      413.995      -48.070       72.608      121.846       51.125     5271.850    14846.425     2613.788       10.148        1.137      421.818       54.386        0.017      349.356       29.720      865.796
07/29/2014  10:47:00      -63.163      434.751      -41.602       87.521      104.571       61.907     7659.917    10935.153     3832.532       10.857        1.121      439.315       47.736        0.012      349.385       29.771      865.800
07/29/2014  10:48:00      -79.661      611.420      -72.212       79.775      145.680       51.513     6364.054    21222.643     2653.570       20.781        1.512      616.588       51.030        0.007      349.128       29.323      865.812
07/29/2014  10:49:00      -67.698      522.023      -58.601       77.435      150.828       61.970     5996.175    22749.067     3840.327       15.655        1.629      526.394       76.750        0.021      349.278       29.586      865.828
07/29/2014  10:50:00      -53.371      500.102      -56.743       80.298      146.406       60.371     6447.760    21434.742     3644.690       14.384        1.576      502.942       68.883        0.019      349.255       29.545      865.835
07/29/2014  10:51:00     -185.037      256.163      -35.046      106.136      127.830       60.406    11264.807    16340.509     3648.943        6.616        1.563      316.003       61.373        0.038      349.299       29.621      865.842
07/29/2014  10:52:00     -158.392      269.919      -35.850       83.637       92.516       56.772     6995.204     8559.187     3223.105        5.900        0.939      312.961       48.312        0.024      349.551       30.057      865.851
07/29/2014  10:53:00     -125.302      337.075      -52.240      139.808      163.910       70.529    19546.314    26866.610     4974.308        9.171        2.569      359.611       77.605        0.047      349.328       29.672      865.872
07/29/2014  10:54:00      -52.881      337.365      -23.674       74.191      112.193       75.940     5504.286    12587.287     5766.862        7.051        1.193      341.484       76.792        0.051      349.542       30.043      865.863
07/29/2014  10:55:00      -97.438      254.739      -21.015       93.623      150.449       67.721     8765.317    22634.838     4586.165        5.540        1.799      272.738       79.873        0.086      349.436       29.860      865.870
07/29/2014  10:56:00     -210.102      322.455      -50.248      108.459      126.196       68.944    11763.250    15925.322     4753.225        9.154        1.622      384.864       72.033        0.035      349.239       29.517      865.883
07/29/2014  10:57:00      -94.232      306.699      -30.896       88.169      112.856       61.262     7773.826    12736.423     3753.012        6.408        1.213      320.849       66.444        0.043      349.471       29.920      865.886
07/29/2014  10:58:00     -154.108      430.993      -38.747       92.637      149.434       57.750     8581.593    22330.474     3335.059       12.262        1.712      457.717       67.351        0.022      349.372       29.747      865.906
07/29/2014  10:59:00      -68.614      354.019      -33.946       77.087       95.467       46.177     5942.421     9114.009     2132.335        7.419        0.859      360.606       43.434        0.015      349.298       29.619      865.899
07/29/2014  11:00:00      -23.855      350.916      -32.943       75.261      106.467       55.448     5664.180    11335.188     3074.519        7.243        1.004      351.726       56.498        0.026      349.432       29.853      865.882
07/29/2014  11:01:00      -17.600      399.632      -42.336       77.232      120.717       64.067     5964.723    14572.549     4104.570        9.322        1.232      400.020       63.778        0.025      349.505       29.977      865.889
07/29/2014  11:02:00     -117.641      369.138      -46.732       93.676      148.204       58.998     8775.125    21964.319     3480.822        9.325        1.711      387.430       60.302        0.024      349.312       29.643      865.904
07/29/2014  11:03:00     -223.102      254.024      -37.871      104.376      160.312       66.523    10894.269    25699.931     4425.282        7.837        2.051      338.087       59.778        0.031      349.482       29.937      865.900
07/29/2014  11:04:00     -180.577      168.254      -17.171      101.518       85.197       56.930    10305.957     7258.588     3240.972        4.100        1.040      246.814       60.529        0.060      349.512       29.991      865.895
07/29/2014  11:05:00      -60.981      281.807      -33.968       82.653      122.300       54.663     6831.466    14957.331     2988.092        5.453        1.239      288.330       67.370        0.055      349.594       30.134      865.885
07/29/2014  11:06:00      -92.998      338.048      -32.679       56.823       98.771       47.950     3228.892     9755.769     2299.181        6.964        0.764      350.606       53.631        0.023      349.776       30.449      865.890
07/29/2014  11:07:00     -129.295      276.918      -31.048      109.542      162.542       71.138    11999.510    26419.869     5060.560        6.891        2.174      305.616       82.130        0.072      349.704       30.324      865.923
07/29/2014  11:08:00      -15.546      396.117      -51.689      101.701      123.074       52.796    10343.021    15147.228     2787.443        9.404        1.414      396.422       56.879        0.021      349.305       29.633      865.900
07/29/2014  11:09:00      -13.388      265.191      -12.455       85.341      185.799       72.735     7283.046    34521.330     5290.317        5.887        2.355      265.529       96.000        0.131      349.547       30.052      865.865
07/29/2014  11:10:00      -55.445      305.206      -30.548       67.422       96.162       54.759     4545.710     9247.203     2998.558        5.697        0.840      310.201       53.691        0.030      349.597       30.138      865.868
07/29/2014  11:11:00       13.526      283.787      -24.832       55.857       98.978       59.493     3120.035     9796.659     3539.476        4.889        0.823      284.109       58.050        0.042      349.480       29.937      865.825
07/29/2014  11:12:00       54.836      139.708        0.771       76.278       96.227       59.714     5818.350     9259.563     3565.714        2.058        0.932      150.084       57.927        0.149      349.766       30.433      865.765
07/29/2014  11:13:00       23.234      217.893      -15.093       51.784      118.199       48.396     2681.533    13971.036     2342.125        3.362        0.950      219.128       53.313        0.059      349.836       30.554      865.753
07/29/2014  11:14:00       39.344      296.771      -19.731      115.821      185.489       87.101    13414.464    34406.284     7586.544        7.270        2.770      299.368       91.061        0.093      349.984       30.811      865.717
07/29/2014  11:15:00       -8.418      379.074      -32.837      136.616      159.522       82.555    18664.016    25447.314     6815.322        9.788        2.546      379.167       83.657        0.049      349.988       30.817      865.693
07/29/2014  11:16:00      -56.641      368.191      -41.986      103.374      158.596       58.310    10686.177    25152.761     3400.019        8.988        1.962      372.522       55.100        0.022      349.776       30.448      865.739
07/29/2014  11:17:00      -92.532      276.971      -30.830       93.221      144.765       45.655     8690.217    20956.863     2084.336        5.897        1.587      292.020       36.710        0.016      349.964       30.776      865.759
07/29/2014  11:18:00     -168.342      265.260      -38.315      124.447      130.292       64.375    15486.958    16975.988     4144.091        6.838        1.830      314.169       73.114        0.054      349.780       30.456      865.788
07/29/2014  11:19:00     -150.956      219.762      -31.930       73.765      114.921       63.833     5441.282    13206.847     4074.614        4.741        1.136      266.614       54.731        0.042      349.811       30.510      865.785
07/29/2014  11:20:00     -215.450      136.011      -27.935      109.324       88.946       57.079    11951.787     7911.370     3258.013        4.440        1.156      254.789       35.288        0.019      349.639       30.210      865.768
07/29/2014  11:21:00      -78.839       24.409        9.056       99.715       80.882       61.468     9943.036     6541.833     3778.329        1.357        1.013       82.531       62.255        0.569      349.992       30.829      865.732
07/29/2014  11:22:00      -62.105       47.986       21.019       76.768       85.535       68.854     5893.313     7316.273     4740.842        1.227        0.898       78.483       45.864        0.341      349.973       30.795      865.707
07/29/2014  11:23:00       65.645      212.556       -3.876      129.809      149.704       87.764    16850.404    22411.175     7702.596        4.822        2.348      222.462       89.625        0.162      349.946       30.745      865.702
07/29/2014  11:24:00       18.454      301.323       -8.185      215.468      157.504       98.714    46426.557    24807.493     9744.377        8.607        4.049      301.887       96.123        0.101      349.850       30.577      865.666
07/29/2014  11:25:00       -6.230      380.967      -41.110       77.157      132.081       72.391     5953.233    17445.336     5240.409        8.775        1.432      381.018       67.256        0.031      349.709       30.335      865.676
07/29/2014  11:26:00       86.863      320.573      -11.652      155.560      184.532      108.158    24198.799    34052.216    11698.077        9.018        3.497      332.133      119.179        0.129      349.861       30.595      865.649
07/29/2014  11:27:00       95.191      123.035        3.201      146.141       84.050       69.340    21357.235     7064.481     4808.017        2.871        1.661      155.560       43.170        0.077      350.038       30.903      865.622
07/29/2014  11:28:00       -3.795      282.052      -32.737       93.476      161.639       65.043     8737.847    26127.099     4230.605        5.986        1.955      282.077       64.745        0.053      350.002       30.842      865.625
07/29/2014  11:29:00      -48.990      247.425      -13.901      138.833      127.770       80.776    19274.727    16325.095     6524.704        5.296        2.106      252.228       86.626        0.118      349.980       30.803      865.644
07/29/2014  11:30:00     -198.274      111.228      -14.999      129.249      161.202       64.522    16705.299    25986.024     4163.068        4.937        2.343      227.341       38.827        0.029      350.168       31.128      865.667
07/29/2014  11:31:00     -256.934      100.988      -22.134      156.715      143.821       98.014    24559.572    20684.603     9606.774        6.577        2.743      276.068       83.198        0.091      349.848       30.575      865.655
07/29/2014  11:32:00     -139.963       98.112      -15.683      140.791      165.266       74.170    19822.159    27312.903     5501.175        4.104        2.632      170.926       88.213        0.266      350.172       31.139      865.656
07/29/2014  11:33:00     -154.254      146.767        0.305      111.860      101.993       73.220    12512.563    10402.632     5361.241        3.680        1.414      212.920       66.197        0.097      350.105       31.021      865.668
07/29/2014  11:34:00     -233.312      124.368      -38.190      153.228      112.988       71.752    23478.718    12766.208     5148.286        5.637        2.070      264.389       81.920        0.096      349.919       30.697      865.704
07/29/2014  11:35:00     -129.657       62.421       -2.443      112.797      101.615       60.428    12723.201    10325.521     3651.579        2.370        1.335      143.900       66.033        0.211      349.951       30.755      865.682
07/29/2014  11:36:00     -141.302      219.003      -24.071       82.086      121.822       58.806     6738.075    14840.598     3458.109        4.677        1.252      260.631       60.192        0.053      349.921       30.703      865.711
07/29/2014  11:37:00      -67.420      299.958      -26.766       59.379       91.294       48.403     3525.923     8334.617     2342.831        5.472        0.710      307.442       46.844        0.023      349.762       30.425      865.722
07/29/2014  11:38:00       22.020      195.053       -1.266       86.089      137.428       72.768     7411.363    18886.458     5295.249        3.506        1.580      196.292       76.496        0.152      350.112       31.035      865.666
07/29/2014  11:39:00      -14.742      263.113      -17.575       94.202      115.215       77.135     8874.055    13274.406     5949.850        4.892        1.405      263.525       79.819        0.092      350.178       31.148      865.671
07/29/2014  11:40:00     -198.106      168.918      -30.141      139.563      162.763       68.000    19477.817    26491.720     4624.012        5.963        2.530      260.345       51.845        0.040      349.950       30.751      865.703
07/29/2014  11:41:00     -177.039      186.262      -43.495       97.391       97.294       62.610     9484.963     9466.078     3920.016        4.540        1.144      256.976       59.382        0.053      350.059       30.941      865.720
07/29/2014  11:42:00     -131.207       58.245       -7.341      104.938       79.575       55.595    11012.040     6332.238     3090.759        2.054        1.022      143.554       56.925        0.157      349.981       30.807      865.736
07/29/2014  11:43:00     -126.656      129.108      -24.773      108.978       95.984       70.970    11876.168     9212.886     5036.690        2.972        1.306      180.861       48.884        0.073      349.896       30.659      865.729
07/29/2014  11:44:00     -140.337      283.903      -22.419       88.791      136.182       51.182     7883.783    18545.531     2619.601        6.492        1.452      316.695       68.774        0.047      349.836       30.554      865.746
07/29/2014  11:45:00     -123.759       41.512        1.376       78.809       83.088       36.692     6210.800     6903.551     1346.318        1.575        0.723      130.536       31.531        0.058      350.027       30.889      865.716
07/29/2014  11:46:00      -79.438       -8.515       -6.378       61.062       49.687       31.300     3728.547     2468.765      979.688        0.680        0.359       79.893       31.790        0.158      350.147       31.097      865.706
07/29/2014  11:47:00      -19.855       28.725        9.555       39.260       63.161       33.327     1541.334     3989.322     1110.698        0.397        0.332       34.919       24.486        0.492      350.388       31.516      865.667
07/29/2014  11:48:00        7.415      117.171       -4.222       34.537       75.880       36.102     1192.803     5757.835     1303.340        1.103        0.413      117.405       30.987        0.070      349.985       30.813      865.641
07/29/2014  11:49:00      -29.520       42.764        4.788       52.201       30.601       29.951     2724.984      936.396      897.053        0.364        0.228       51.964       27.343        0.277      350.428       31.587      865.620
07/29/2014  11:50:00     -206.072      -55.254       -0.735      163.379       75.147       51.302    26692.824     5647.075     2631.867        4.024        1.749      213.351       65.775        0.095      350.036       30.903      865.607
07/29/2014  11:51:00     -228.982       -8.321       -3.339      117.949      103.535       65.419    13912.009    10719.490     4279.635        4.071        1.446      229.133       53.854        0.055      350.217       31.216      865.620
07/29/2014  11:52:00     -167.536       11.623      -14.456       97.645       57.530       49.079     9534.490     3309.719     2408.764        2.183        0.763      167.939       44.993        0.072      349.835       30.553      865.636
07/29/2014  11:53:00      -39.525       77.782       12.872       70.724       86.950       48.080     5001.930     7560.268     2311.641        1.132        0.744       87.248       51.907        0.354      350.744       32.135      865.615
07/29/2014  11:54:00      -60.961       93.717        5.484       83.327      113.170       52.629     6943.453    12807.560     2769.825        1.752        1.126      111.799       43.329        0.150      350.356       31.459      865.616
07/29/2014  11:55:00     -208.739       -3.232      -14.824      133.076      108.627       47.723    17709.285    11799.919     2277.491        3.779        1.589      208.764       42.736        0.042      350.176       31.145      865.580
07/29/2014  11:56:00     -342.616     -105.063      -29.937      150.931      101.335       63.840    22780.069    10268.747     4075.482        8.321        1.856      358.363       50.441        0.020      349.851       30.579      865.579
07/29/2014  11:57:00      -59.948      -19.332       -5.171      102.595       87.776       52.659    10525.662     7704.647     2772.973        1.249        1.050       62.988       45.051        0.512      350.268       31.307      865.586
07/29/2014  11:58:00     -273.632       61.405      -20.966      137.350       91.625       53.502    18864.975     8395.119     2862.442        5.460        1.506      280.437       71.438        0.065      349.987       30.816      865.606
07/29/2014  11:59:00     -236.991       18.184      -24.117      118.640      121.287       56.352    14075.334    14710.476     3175.572        4.451        1.598      237.688       61.944        0.068      349.903       30.671      865.611
07/29/2014  12:00:00     -251.069       17.352      -17.120       96.997       83.152       42.206     9408.343     6914.261     1781.388        4.086        0.905      251.668       41.701        0.027      350.038       30.903      865.612
07/29/2014  12:01:00      -57.869        7.032        3.667       46.220       75.450       42.375     2136.328     5692.664     1795.681        0.652        0.481       58.294       33.660        0.333      350.586       31.861      865.610
07/29/2014  12:02:00      -26.247      160.278       -5.696       74.462       94.691       53.480     5544.570     8966.396     2860.153        2.189        0.869      162.413       59.140        0.133      350.820       32.265      865.602
07/29/2014  12:03:00      -27.240       49.943       -2.999       80.619       68.118       48.001     6499.417     4640.042     2304.108        0.834        0.672       56.889       48.464        0.726      350.908       32.420      865.606
07/29/2014  12:04:00     -143.263       73.019      -12.919       67.681       49.663       40.476     4580.724     2466.371     1638.310        1.735        0.434      160.798       32.295        0.040      350.409       31.551      865.614
07/29/2014  12:05:00     -386.485      -87.518      -20.679      163.711      126.436       73.222    26801.371    15986.007     5361.454       10.279        2.407      396.270       69.985        0.031      350.121       31.050      865.589
07/29/2014  12:06:00     -283.883     -111.145      -27.862      145.523      127.126       67.979    21176.847    16160.943     4621.117        6.783        2.098      304.865       36.291        0.014      350.235       31.245      865.582
07/29/2014  12:07:00     -267.823      -60.837      -26.153      146.272       90.439       59.612    21395.623     8179.138     3553.621        5.461        1.656      274.646       72.635        0.070      350.146       31.092      865.601
07/29/2014  12:08:00     -184.092      -10.782      -11.053      107.926      106.396       49.300    11648.128    11320.045     2430.528        2.976        1.270      184.407       47.180        0.065      350.372       31.486      865.608
07/29/2014  12:09:00     -184.743       -4.164      -11.661      167.978       80.118       44.909    28216.642     6418.883     2016.826        3.546        1.833      184.790       62.997        0.116      350.678       32.018      865.616
07/29/2014  12:10:00     -339.673       67.596      -29.261      134.671      136.741       68.743    18136.386    18698.115     4725.579        8.117        2.078      346.333       71.992        0.043      349.803       30.495      865.692
07/29/2014  12:11:00     -213.918      -28.285      -19.475       78.058       48.852       29.687     6093.070     2386.551      881.299        2.815        0.468      215.779       22.545        0.011      349.641       30.216      865.669
07/29/2014  12:12:00       -0.506      -44.593        2.682       34.562       42.693       30.365     1194.506     1822.690      922.024        0.297        0.197       44.595       28.592        0.411      350.396       31.531      865.620
07/29/2014  12:13:00       33.500       12.579       -0.189       49.211       38.104       31.964     2421.713     1451.901     1021.719        0.309        0.245       35.784       20.294        0.322      350.514       31.735      865.602
07/29/2014  12:14:00     -228.117       30.761      -32.499       89.074       93.328       35.233     7934.134     8710.132     1241.377        3.596        0.894      230.182       13.439        0.003      350.139       31.079      865.615
07/29/2014  12:15:00     -176.124      -16.035       -6.089      124.430      126.155       54.959    15482.926    15915.052     3020.515        3.286        1.721      176.852       47.346        0.072      350.353       31.451      865.622
07/29/2014  12:16:00      -95.196       83.141      -11.695       44.658       52.272       35.828     1994.364     2732.414     1283.635        1.106        0.301      126.391       10.290        0.007      350.012       30.862      865.623
07/29/2014  12:17:00     -106.100       -9.493        6.120      104.115       64.458       51.046    10839.850     4154.797     2605.737        1.449        0.880      106.524       59.380        0.311      350.496       31.703      865.604
07/29/2014  12:18:00     -141.019      123.112      -14.400      126.853      186.746       45.546    16091.802    34874.177     2074.437        4.413        2.652      187.198       39.432        0.044      350.118       31.044      865.592
07/29/2014  12:19:00       83.748      111.550        3.183       92.694       92.485       46.178     8592.164     8553.421     2132.408        1.937        0.964      139.489       40.433        0.084      350.168       31.132      865.570
07/29/2014  12:20:00      -82.979      325.543      -34.256       69.971      205.552       50.241     4895.928    42251.493     2524.133        8.184        2.484      335.952       58.596        0.030      350.263       31.295      865.576
07/29/2014  12:21:00      -66.591      321.930      -18.320      113.331      129.846       62.297    12843.936    16859.871     3880.877        7.099        1.679      328.745       66.351        0.041      350.293       31.348      865.577
07/29/2014  12:22:00      -25.311      388.729      -20.296       97.988      185.634       79.469     9601.728    34460.021     6315.314       10.126        2.519      389.552       93.281        0.057      350.367       31.477      865.546
07/29/2014  12:23:00       76.549      185.893       -4.585      112.659      126.500       77.466    12692.058    16002.184     6001.033        3.756        1.735      201.037       68.260        0.115      350.337       31.424      865.542
07/29/2014  12:24:00       12.509      184.340       -5.433       78.665      100.485       47.739     6188.109    10097.239     2279.039        2.636        0.928      184.764       50.569        0.075      350.416       31.563      865.544
07/29/2014  12:25:00     -151.657      160.373      -21.919       93.370      111.356       52.773     8717.920    12400.108     2784.957        3.655        1.195      220.725       55.351        0.063      350.301       31.362      865.579
07/29/2014  12:26:00     -154.889      286.927      -43.672      135.057      116.046       57.069    18240.357    13466.562     3256.848        7.159        1.748      326.064       38.431        0.014      350.233       31.243      865.564
07/29/2014  12:27:00     -147.845      315.010      -34.088       88.159      108.713       58.563     7771.939    11818.514     3429.678        7.263        1.151      347.979       57.379        0.027      350.031       30.893      865.597
07/29/2014  12:28:00      -77.794      105.160      -15.304       91.393       99.529       40.082     8352.705     9906.084     1606.527        1.860        0.993      130.807       53.971        0.170      350.253       31.281      865.569
07/29/2014  12:29:00     -226.174      133.905      -33.931       76.941      144.575       56.005     5919.927    20901.853     3136.510        5.009        1.498      262.840       58.368        0.049      350.084       30.983      865.556
07/29/2014  12:30:00     -302.409       90.730      -44.232       64.801       73.382       42.193     4199.113     5384.912     1780.265        5.650        0.568      315.726       40.440        0.016      349.762       30.424      865.533
07/29/2014  12:31:00     -184.254       61.487      -25.735       81.635       40.890       24.157     6664.246     1671.978      583.539        2.365        0.446      194.243       17.283        0.008      349.732       30.375      865.505
07/29/2014  12:32:00      -15.856       41.739       12.259       63.673       44.448       38.785     4054.220     1975.616     1504.246        0.484        0.377       44.649       31.512        0.498      350.607       31.896      865.445
07/29/2014  12:33:00     -100.541       57.469       -4.201       77.428       87.003       41.038     5995.106     7569.464     1684.114        1.434        0.762      115.807       39.287        0.115      350.466       31.652      865.454
07/29/2014  12:34:00     -133.456       44.358       -0.660      162.582      214.828       53.517    26432.876    46151.166     2864.022        4.760        3.772      140.635       59.947        0.182      350.642       31.955      865.454
07/29/2014  12:35:00     -317.806     -134.115        4.843      189.437      151.324       84.021    35886.502    22898.962     7059.515        9.241        3.292      344.946       90.854        0.069      350.078       30.972      865.428
07/29/2014  12:36:00     -367.252      -82.576      -16.042      108.619      121.586       56.457    11798.129    14783.234     3187.408        8.585        1.488      376.421       59.184        0.025      350.047       30.921      865.447
07/29/2014  12:37:00     -265.706      -44.969      -18.438       57.320       87.969       36.187     3285.542     7738.629     1309.505        4.265        0.617      269.484       24.412        0.008      349.969       30.783      865.422
07/29/2014  12:38:00     -218.158      -37.839      -17.386      116.111       74.074       51.994    13481.804     5486.995     2703.362        3.550        1.084      221.415       62.215        0.079      350.143       31.085      865.428
07/29/2014  12:39:00     -110.716      -28.441       28.680      178.097       91.872       71.071    31718.558     8440.549     5051.133        2.954        2.261      114.311       96.654        0.715      350.387       31.512      865.394
07/29/2014  12:40:00     -260.759      -10.851      -19.882      151.986      156.663       81.373    23099.779    24543.172     6621.551        6.138        2.713      260.985       70.426        0.073      350.311       31.378      865.414
07/29/2014  12:41:00     -182.651       66.271       -2.600      155.324      100.650       74.827    24125.501    10130.351     5599.082        3.880        1.993      194.302       79.384        0.167      350.380       31.500      865.453
07/29/2014  12:42:00     -227.338       67.232      -17.239      182.434      143.401       59.303    33282.251    20563.799     3516.808        5.692        2.868      237.071       64.635        0.074      350.401       31.536      865.449
07/29/2014  12:43:00     -247.296       19.741      -16.953      142.365      111.392       58.443    20267.805    12408.178     3415.635        4.895        1.805      248.083       60.858        0.060      350.465       31.647      865.442
07/29/2014  12:44:00     -145.989       93.134      -15.718       90.248      114.968       65.551     8144.722    13217.737     4296.889        2.794        1.283      173.167       79.210        0.209      350.550       31.795      865.459
07/29/2014  12:45:00     -116.472      182.489      -15.514      125.009      127.114       57.194    15627.209    16157.993     3271.131        4.108        1.753      216.490       61.405        0.080      350.430       31.586      865.456
07/29/2014  12:46:00     -110.203      204.884      -24.224       89.064       88.961       61.877     7932.485     7914.030     3828.819        3.719        0.984      232.642       55.765        0.057      350.384       31.506      865.463
07/29/2014  12:47:00      -20.558      266.174      -18.552       67.364      111.247       56.926     4537.852    12375.819     3240.588        4.588        1.008      266.967       58.601        0.048      350.438       31.599      865.435
07/29/2014  12:48:00     -114.244      289.161      -46.701       99.365      121.989       51.202     9873.431    14881.240     2621.694        6.311        1.369      310.911       51.951        0.028      350.174       31.141      865.421
07/29/2014  12:49:00      -58.920      352.430      -33.566       97.682      156.239       68.476     9541.864    24410.742     4688.895        8.372        1.932      357.321       71.334        0.040      350.309       31.375      865.425
07/29/2014  12:50:00     -141.595      343.424      -48.096      105.152      214.265       63.953    11057.040    45909.570     4090.002       10.067        3.053      371.468       80.064        0.046      350.053       30.929      865.458
07/29/2014  12:51:00     -158.232       76.073      -16.421      110.568      122.730       48.677    12225.308    15062.570     2369.455        3.037        1.483      175.569       47.748        0.074      350.266       31.301      865.415
07/29/2014  12:52:00      -85.892        5.210       -2.942       77.276      146.779       52.146     5971.614    21544.043     2719.211        1.882        1.512       86.050       51.647        0.360      350.188       31.168      865.387
07/29/2014  12:53:00      -78.628       38.140        7.745       69.781       85.441       36.792     4869.346     7300.123     1353.674        1.061        0.676       87.391       45.066        0.266      350.188       31.168      865.366
07/29/2014  12:54:00       31.704       47.403       10.837       34.069       36.323       25.998     1160.665     1319.348      675.915        0.326        0.158       57.028       22.898        0.161      350.450       31.622      865.332
07/29/2014  12:55:00       32.667       35.465       21.126       67.321       28.168       23.411     4532.179      793.433      548.064        0.432        0.294       48.217       12.880        0.071      350.329       31.415      865.330
07/29/2014  12:56:00      -85.347       20.301      -14.703       53.077       58.617       22.872     2817.185     3435.965      523.107        0.734        0.339       87.728       27.216        0.096      350.349       31.447      865.348
07/29/2014  12:57:00      -75.853       96.467       -7.758       40.435       53.672       36.844     1635.028     2880.692     1357.449        1.050        0.294      122.717       27.498        0.050      350.386       31.510      865.373
07/29/2014  12:58:00      -93.630      110.642       -7.079       63.383       56.805       40.214     4017.456     3226.755     1617.175        1.496        0.443      144.942       38.465        0.070      350.588       31.864      865.379
07/29/2014  12:59:00     -209.991      238.516      -32.725      123.699       99.014       66.031    15301.523     9803.857     4360.076        6.576        1.473      317.783       66.422        0.044      350.367       31.475      865.394
07/29/2014  13:00:00     -242.418      238.057      -42.160       91.421      122.946       60.223     8357.821    15115.616     3626.758        7.215        1.355      339.761       58.794        0.030      350.241       31.256      865.395
07/29/2014  13:01:00     -256.164      117.337      -46.646       93.477       79.682       53.994     8737.906     6349.287     2915.362        4.978        0.900      281.758       55.020        0.038      349.986       30.813      865.409
07/29/2014  13:02:00     -120.041      138.121      -10.056       87.084       87.036       54.002     7583.697     7575.221     2916.263        2.583        0.904      182.995       49.915        0.074      350.419       31.568      865.402
07/29/2014  13:03:00     -182.673      131.256      -32.592      118.083      127.455       65.338    13943.562    16244.745     4269.117        4.305        1.723      224.939       73.225        0.106      350.241       31.258      865.423
07/29/2014  13:04:00     -132.604       26.236      -15.676       85.059       65.608       45.573     7235.056     4304.364     2076.918        1.606        0.681      135.175       51.634        0.146      350.185       31.163      865.404
07/29/2014  13:05:00       62.346      -38.599       14.677       64.682       74.675       59.525     4183.806     5576.344     3543.209        0.945        0.665       73.328       32.522        0.197      350.214       31.213      865.332
07/29/2014  13:06:00      -58.043       68.777       -8.979       51.835       77.037       45.316     2686.895     5934.667     2053.555        0.943        0.534       89.996       24.029        0.071      350.339       31.429      865.311
07/29/2014  13:07:00     -175.868      -31.527        1.001       74.775       88.435       41.405     5591.265     7820.780     1714.356        2.352        0.756      178.671       29.631        0.028      350.734       32.116      865.318
07/29/2014  13:08:00     -123.179       88.254      -19.111      114.305       92.189       59.592    13065.572     8498.727     3551.188        2.422        1.256      151.532       66.437        0.192      350.515       31.736      865.303
07/29/2014  13:09:00       35.167       90.025        6.219       51.689       46.472       36.359     2671.716     2159.605     1321.988        0.777        0.308       96.650       34.062        0.124      350.492       31.698      865.243
07/29/2014  13:10:00      -21.830      -21.647        0.099       40.648       48.429       34.455     1652.296     2345.349     1187.147        0.306        0.259       30.743       26.702        0.754      350.548       31.796      865.215
07/29/2014  13:11:00     -191.949       70.141      -14.793      154.167       79.935       58.743    23767.395     6389.575     3450.778        3.779        1.680      204.363       83.230        0.166      350.676       32.016      865.227
07/29/2014  13:12:00     -217.740      -91.464        8.962      160.594       80.467       64.959    25790.511     6474.981     4219.734        4.616        1.824      236.171       88.042        0.139      350.372       31.486      865.221
07/29/2014  13:13:00        6.806       18.096       53.768       51.818       57.240       29.985     2685.139     3276.389      899.083        0.506        0.343       19.334       31.345        2.628      351.011       32.601      865.190
07/29/2014  13:14:00       94.497       84.251       24.291       57.464       59.890       50.717     3302.073     3586.820     2572.171        1.304        0.473      126.601       31.717        0.063      350.380       31.501      865.208
07/29/2014  13:15:00      -30.367       58.753       22.095      160.223      101.214       74.521    25671.562    10244.314     5553.334        2.316        2.073       66.136       84.398        1.628      350.408       31.550      865.127
07/29/2014  13:16:00     -173.952       37.316       -2.189       92.365       59.749       38.925     8531.246     3569.953     1515.139        2.263        0.681      177.909       38.351        0.046      350.399       31.533      865.176
07/29/2014  13:17:00     -257.992      147.514      -44.487      131.555      203.033       86.166    17306.609    41222.466     7424.626        7.811        3.298      297.187      101.570        0.117      350.356       31.457      865.211
07/29/2014  13:18:00     -359.033      -18.395      -25.715      138.572      132.685       58.398    19202.215    17605.428     3410.333        8.505        2.011      359.504       55.736        0.024      350.226       31.231      865.203
07/29/2014  13:19:00     -316.076      -78.394       -8.417      125.551      120.995       62.685    15763.159    14639.716     3929.399        7.022        1.717      325.652       72.049        0.049      350.190       31.167      865.185
07/29/2014  13:20:00     -265.511       58.782      -30.195       93.584       80.229       46.330     8757.944     6436.673     2146.492        4.610        0.867      271.940       29.543        0.012      350.142       31.084      865.203
07/29/2014  13:21:00     -155.863       84.129      -40.370       84.842      114.892       51.379     7198.132    13200.163     2639.760        2.801        1.152      177.119       64.884        0.134      350.060       30.944      865.204
07/29/2014  13:22:00     -185.855      104.723      -27.121       68.660      134.868       51.956     4714.148    18189.336     2699.392        3.592        1.280      213.328       41.832        0.038      350.293       31.347      865.214
07/29/2014  13:23:00      -45.672      174.919      -10.502       97.870       90.233       49.742     9578.624     8141.952     2474.292        2.649        1.010      180.783       29.528        0.027      350.381       31.501      865.187
07/29/2014  13:24:00      -96.607       61.964       -1.470       69.379      144.003       57.231     4813.503    20736.793     3275.342        2.099        1.441      114.772       48.935        0.182      350.649       31.969      865.147
07/29/2014  13:25:00     -129.798       35.670       -9.553       79.101       66.466       45.909     6256.936     4417.680     2107.680        1.549        0.639      134.610       40.524        0.091      350.654       31.977      865.133
07/29/2014  13:26:00     -225.364       73.594      -27.412       65.671       77.061       38.914     4312.679     5938.429     1514.299        3.436        0.588      237.076       31.157        0.017      350.397       31.527      865.127
07/29/2014  13:27:00     -190.213       64.091      -16.967      127.498      106.931       68.712    16255.772    11434.321     4721.388        3.649        1.621      200.720       66.871        0.111      350.429       31.583      865.113
07/29/2014  13:28:00     -290.891       43.992      -28.189      128.707      153.977       65.634    16565.413    23709.034     4307.773        6.596        2.229      294.199       61.789        0.044      350.454       31.626      865.070
07/29/2014  13:29:00     -184.832      315.928      -52.500      112.150      138.570       68.424    12577.521    19201.721     4681.792        8.659        1.823      366.024       76.570        0.044      350.345       31.437      865.126
07/29/2014  13:30:00       80.723      246.048      -19.764      108.871      157.062       74.162    11852.994    24668.427     5499.983        5.473        2.101      258.951       79.962        0.095      350.231       31.241      865.135
07/29/2014  13:31:00       73.009      140.251       -8.561       90.811       70.114       48.395     8246.622     4915.940     2342.124        2.029        0.775      158.116       47.850        0.092      350.256       31.285      865.122
07/29/2014  13:32:00     -152.102      134.289      -31.026      105.789      109.535       49.294    11191.295    11997.839     2429.916        3.387        1.281      202.901       54.129        0.071      350.308       31.373      865.167
07/29/2014  13:33:00     -207.940      204.522      -39.499      104.235       87.805       57.444    10864.914     7709.788     3299.773        5.425        1.094      291.664       50.124        0.030      350.304       31.366      865.160
07/29/2014  13:34:00     -227.878      108.616      -24.563      105.625       83.397       59.905    11156.694     6955.040     3588.567        4.301        1.085      252.440       60.888        0.058      350.402       31.538      865.150
07/29/2014  13:35:00     -246.994       54.419      -19.598      118.391      147.340       67.769    14016.472    21709.055     4592.689        5.233        2.016      252.918       72.887        0.083      350.251       31.273      865.144
07/29/2014  13:36:00     -187.040      -35.923      -12.726      115.053      168.945       53.960    13237.163    28542.569     2911.703        4.055        2.235      190.458       42.304        0.049      350.387       31.512      865.101
07/29/2014  13:37:00     -314.013      -41.641      -33.402      145.530      100.372       54.286    21179.030    10074.500     2947.020        6.782        1.710      316.762       51.022        0.026      350.356       31.456      865.085
07/29/2014  13:38:00     -290.279      -80.574      -19.105      234.177      115.970       67.573    54839.035    13448.973     4566.173        8.197        3.643      301.254       87.788        0.085      350.419       31.568      865.053
07/29/2014  13:39:00     -393.120      -34.582      -37.550      166.181      147.305       82.670    27616.134    21698.832     6834.386       10.664        2.807      394.638       89.037        0.051      350.421       31.570      865.080
07/29/2014  13:40:00     -405.495     -138.916      -11.564      138.749      135.340       79.141    19251.256    18316.907     6263.279       11.384        2.192      428.630       79.952        0.035      350.218       31.218      865.058
07/29/2014  13:41:00     -366.991     -101.598      -13.406      109.117       76.222       51.254    11906.546     5809.732     2626.942        8.276        1.017      380.795       52.112        0.019      350.092       30.998      865.033
07/29/2014  13:42:00     -326.717      -61.782      -13.231       94.524       97.906       50.780     8934.860     9585.609     2578.608        6.591        1.055      332.508       45.374        0.019      350.191       31.170      865.040
07/29/2014  13:43:00     -246.361      -33.160      -25.064      105.590       72.900       46.998    11149.319     5314.417     2208.806        4.054        0.934      248.583       53.863        0.047      350.099       31.009      865.020
07/29/2014  13:44:00     -176.712      -33.758       -8.677       91.941       77.219       50.502     8453.114     5962.821     2550.456        2.470        0.848      179.908       58.503        0.106      350.199       31.185      864.981
07/29/2014  13:45:00      -99.978       93.740       -0.912       79.248      118.255       46.459     6280.231    13984.218     2158.431        2.060        1.121      137.050       57.283        0.175      350.332       31.417      864.970
07/29/2014  13:46:00     -284.118      236.773      -52.311      142.800      159.379       86.563    20391.727    25401.549     7493.146        9.639        2.664      369.844       78.577        0.045      350.256       31.284      865.062
07/29/2014  13:47:00     -350.457       71.081      -35.438      153.729      116.260       81.980    23632.548    13516.451     6720.781        8.649        2.193      357.593       63.491        0.032      350.242       31.258      865.056
07/29/2014  13:48:00     -174.266       58.072      -28.456      140.664      169.391       82.075    19786.373    28693.153     6736.232        4.487        2.761      183.687       59.938        0.106      350.168       31.131      865.072
07/29/2014  13:49:00     -247.590      177.883      -59.279      146.420      146.435       80.572    21438.886    21443.119     6491.815        7.291        2.469      304.866       81.791        0.072      350.126       31.055      865.114
07/29/2014  13:50:00     -210.632       56.646      -26.313      122.981       86.121       52.669    15124.447     7416.828     2774.010        3.679        1.266      218.116       56.016        0.066      350.095       31.004      865.086
07/29/2014  13:51:00     -313.927       74.233      -53.932      101.147      120.805       48.389    10230.816    14593.830     2341.459        6.706        1.358      322.584       39.575        0.015      350.002       30.841      865.083
07/29/2014  13:52:00     -167.435      -40.926      -14.038       63.954       76.032       48.642     4090.098     5780.813     2365.999        2.107        0.612      172.364       36.297        0.044      350.170       31.135      865.049
07/29/2014  13:53:00      -83.541       66.793        7.455       89.132       61.071       45.229     7944.565     3729.664     2045.687        1.261        0.686      106.960       45.852        0.184      350.271       31.311      865.051
07/29/2014  13:54:00      -58.973      -24.794        6.321       76.813       52.147       33.301     5900.217     2719.280     1108.983        0.693        0.486       63.974       28.727        0.202      350.374       31.491      865.029
07/29/2014  13:55:00     -214.756       50.638      -14.040      134.924      103.363       50.469    18204.586    10683.839     2547.091        4.015        1.572      220.645       55.757        0.064      350.344       31.436      865.038
07/29/2014  13:56:00     -314.426      -52.381      -29.336      180.920      121.563       86.806    32732.027    14777.627     7535.320        7.875        2.752      318.760       88.028        0.076      350.214       31.209      865.022
07/29/2014  13:57:00     -394.827      -87.049      -15.415      140.885       99.853       72.116    19848.485     9970.570     5200.738        9.935        1.751      404.309       72.699        0.032      350.140       31.081      865.027
07/29/2014  13:58:00     -332.833      -88.534        7.894      151.025      107.821       67.686    22808.411    11625.359     4581.339        7.884        1.951      344.407       66.222        0.037      350.137       31.075      864.992
07/29/2014  13:59:00     -182.824      -92.533       17.471      199.209      141.369       86.117    39684.317    19985.264     7416.136        5.468        3.354      204.907       94.046        0.211      350.242       31.261      864.959
07/29/2014  14:00:00      -92.552      -62.761       -1.824      107.470       85.718       50.926    11549.853     7347.590     2593.434        1.700        1.075      111.825       50.881        0.207      350.379       31.499      864.999
07/29/2014  14:01:00     -275.526       66.027      -29.667      117.746      115.154       60.942    13864.233    13260.338     3713.906        5.599        1.542      283.327       55.622        0.039      350.270       31.307      865.043
07/29/2014  14:02:00     -163.015       62.132      -12.068      106.785       93.008       55.351    11403.141     8650.577     3063.780        2.684        1.156      174.454       38.266        0.048      350.350       31.447      865.059
07/29/2014  14:03:00     -145.371       87.458       -7.955      103.514       82.192       53.043    10715.155     6755.607     2813.552        2.456        1.014      169.652       51.494        0.092      350.321       31.397      865.055
07/29/2014  14:04:00     -183.253       58.267      -19.862      104.881       91.428       51.424    11000.050     8359.071     2644.398        2.968        1.100      192.294       24.435        0.016      350.244       31.261      865.026
07/29/2014  14:05:00     -335.051      124.710      -55.313      128.501      164.030       74.571    16512.546    26905.753     5560.874        8.992        2.449      357.508       71.341        0.040      350.095       31.002      865.045
07/29/2014  14:06:00     -325.764      136.749      -59.458      162.300      128.695       79.545    26341.212    16562.525     6327.413        8.878        2.462      353.303       73.017        0.043      350.007       30.850      865.064
07/29/2014  14:07:00     -299.393      -43.449      -15.706      163.213      159.455       64.818    26638.454    25425.782     4201.365        7.401        2.813      302.530       60.499        0.040      350.078       30.973      865.027
07/29/2014  14:08:00     -339.173      -28.825      -15.545      132.725      143.642       75.874    17615.986    20633.051     5756.829        8.005        2.200      340.396       61.533        0.033      350.082       30.979      865.033
07/29/2014  14:09:00     -269.441      149.376      -38.107      169.772      173.525       76.851    28822.418    30110.931     5906.018        8.059        3.242      308.077       78.799        0.065      350.117       31.041      865.067
07/29/2014  14:10:00     -216.416      149.882      -32.792      158.173      147.392       77.851    25018.633    21724.547     6060.708        6.158        2.640      263.249       82.085        0.097      350.078       30.973      865.076
07/29/2014  14:11:00     -247.864       10.750      -15.512      167.184      147.604       61.898    27950.563    21786.896     3831.351        5.767        2.678      248.097       67.134        0.073      350.064       30.950      865.040
07/29/2014  14:12:00     -413.577      -47.221      -22.043      134.163      118.395       65.458    17999.584    14017.388     4284.753       10.502        1.815      416.264       66.339        0.025      350.061       30.943      865.044
07/29/2014  14:13:00     -250.817      -67.808      -15.681      115.577       97.300       52.752    13357.950     9467.232     2782.799        4.668        1.280      259.822       53.453        0.042      350.074       30.968      865.059
07/29/2014  14:14:00     -294.775      191.407      -43.170      140.634      223.621       86.428    19777.811    50006.544     7469.879       10.131        3.863      351.467      101.097        0.083      350.112       31.031      865.072
07/29/2014  14:15:00     -176.990      139.090      -13.897      149.465      231.829       78.101    22339.868    53744.797     6099.769        6.651        4.109      225.103       72.986        0.105      350.165       31.125      865.064
07/29/2014  14:16:00     -223.384      -40.456      -26.516      101.995      141.306       62.295    10402.975    19967.397     3880.631        4.324        1.713      227.018       37.839        0.028      350.093       31.001      865.056
07/29/2014  14:17:00      -52.826       35.723       39.518       87.257       61.785       50.066     7613.744     3817.337     2506.558        0.978        0.697       63.771       35.679        0.313      350.328       31.411      865.068
07/29/2014  14:18:00     -328.437      -55.569      -22.135      149.830      138.050       69.462    22449.025    19057.713     4825.010        7.888        2.317      333.105       43.087        0.017      350.073       30.963      865.082
07/29/2014  14:19:00     -298.788       50.468      -46.241      149.866      200.772       69.657    22459.782    40309.230     4852.138        8.078        3.381      303.021       69.502        0.053      350.025       30.883      865.050
07/29/2014  14:20:00     -296.721      128.588      -47.439      133.404      127.945       72.723    17796.648    16369.818     5288.565        7.313        1.973      323.386       72.434        0.050      349.963       30.774      865.075
07/29/2014  14:21:00     -331.109      -64.824      -30.119      185.824      120.748       76.362    34530.414    14580.052     5831.205        8.483        2.747      337.395       75.006        0.049      349.974       30.793      865.039
07/29/2014  14:22:00     -276.107      -66.613      -19.321      140.769       79.845       60.396    19815.849     6375.280     3647.697        5.544        1.492      284.029       60.268        0.045      350.059       30.939      865.051
07/29/2014  14:23:00     -317.333      -29.146      -23.504      172.268      154.401       69.412    29676.257    23839.605     4818.014        8.021        2.917      318.669       73.198        0.053      350.046       30.916      865.049
07/29/2014  14:24:00     -232.607      -74.876        1.179      130.386      158.113       62.496    17000.415    24999.865     3905.745        5.280        2.295      244.362       66.393        0.074      350.054       30.930      865.042
07/29/2014  14:25:00       48.302      -69.669       31.585       81.221       49.110       66.627     6596.906     2411.766     4439.175        1.081        0.672       84.775       47.103        0.309      350.111       31.035      864.997
07/29/2014  14:26:00     -114.634      -36.785       -2.020       63.619       49.327       32.222     4047.413     2433.160     1038.231        1.101        0.376      120.391       35.340        0.086      350.064       30.952      864.980
07/29/2014  14:27:00     -139.660       14.287       -3.280       54.807       39.536       23.883     3003.792     1563.129      570.412        1.243        0.257      140.389       22.467        0.026      350.066       30.955      865.011
07/29/2014  14:28:00     -229.683      -49.294       -5.077      116.182      113.158       43.183    13498.266    12804.691     1864.747        4.168        1.408      234.913       21.451        0.008      350.124       31.054      865.024
07/29/2014  14:29:00     -241.597       -2.898      -11.089      140.891      127.179       75.309    19850.216    16174.558     5671.411        5.009        2.085      241.614       67.976        0.079      350.145       31.091      865.020
07/29/2014  14:30:00     -205.506        1.827       -7.921      111.510       89.516       42.230    12434.396     8013.060     1783.351        3.226        1.112      205.514       34.502        0.028      350.159       31.115      865.043
07/29/2014  14:31:00      -23.263       27.864       23.906       56.285       65.273       40.650     3167.959     4260.548     1652.440        0.548        0.454       36.299       33.548        0.854      350.292       31.349      865.040
07/29/2014  14:32:00     -109.344       -0.539        4.913       77.328       71.741       41.692     5979.665     5146.745     1738.249        1.242        0.643      109.345       42.622        0.152      350.237       31.252      865.034
07/29/2014  14:33:00      -28.649       41.421       11.853       58.505       44.334       34.480     3422.835     1965.507     1188.874        0.463        0.329       50.363       28.131        0.312      350.290       31.346      865.009
07/29/2014  14:34:00      -59.606       31.340      -13.368       40.806       30.065       22.981     1665.125      903.916      528.118        0.390        0.155       67.343       22.120        0.108      350.274       31.316      865.015
07/29/2014  14:35:00      -86.189      -12.162       -9.866       41.669       58.073       19.385     1736.314     3372.466      375.763        0.658        0.274       87.043        6.315        0.005      350.263       31.298      865.014
07/29/2014  14:36:00      -49.360       17.467      -10.054       51.173       35.267       33.211     2618.683     1243.737     1102.972        0.390        0.248       52.359       26.273        0.252      350.348       31.448      865.004
07/29/2014  14:37:00      -49.367      -30.906        2.116       68.430       54.584       39.620     4682.626     2979.409     1569.720        0.631        0.462       58.243       45.328        0.606      350.297       31.358      864.985
07/29/2014  14:38:00     -109.134      -27.743        4.236       79.038       84.154       43.021     6246.950     7081.868     1850.766        1.394        0.759      112.605       37.016        0.108      350.177       31.148      864.974
07/29/2014  14:39:00     -213.250       73.217      -24.117       98.331       81.427       48.604     9668.913     6630.289     2362.362        3.504        0.933      225.469       45.694        0.041      350.192       31.170      865.004
07/29/2014  14:40:00     -182.626       29.119      -27.676      121.765      118.646       56.725    14826.765    14076.960     3217.729        3.354        1.606      184.932       46.925        0.064      350.129       31.062      864.989
07/29/2014  14:41:00     -161.727       33.990       -1.742      115.711       92.831       70.057    13389.043     8617.565     4907.990        2.711        1.346      165.261       65.076        0.155      350.121       31.047      864.981
07/29/2014  14:42:00     -161.519        2.216       -0.945      154.603       67.161       57.442    23902.202     4510.638     3299.635        2.890        1.586      161.534       71.391        0.195      350.205       31.195      864.964
07/29/2014  14:43:00       12.432      134.040       -0.766       56.546       96.533       52.849     3197.464     9318.574     2793.061        1.671        0.765      134.615       59.827        0.198      350.262       31.295      864.958
07/29/2014  14:44:00      -38.104      238.658      -29.255       72.339       97.363       33.873     5232.907     9479.626     1147.411        3.756        0.793      241.681       34.807        0.021      350.085       30.984      864.929
07/29/2014  14:45:00      -42.322      132.579      -13.123       49.977       77.156       29.092     2497.731     5953.015      846.368        1.442        0.465      139.170       33.854        0.059      350.212       31.210      864.932
07/29/2014  14:46:00      -58.694      128.775       -8.078       46.714      115.790       42.466     2182.175    13407.422     1803.321        1.874        0.870      141.520       61.863        0.191      350.289       31.342      864.921
07/29/2014  14:47:00     -199.333       34.504      -26.806       92.367       70.002       35.895     8531.650     4900.337     1288.436        2.818        0.736      202.297       31.520        0.024      350.202       31.190      864.917
07/29/2014  14:48:00     -229.399       31.647      -38.878       73.466       64.896       36.581     5397.193     4211.433     1338.167        3.304        0.547      231.572       25.538        0.012      350.232       31.242      864.924
07/29/2014  14:49:00     -145.277       45.178      -15.679      102.566       59.786       44.303    10519.843     3574.343     1962.785        1.972        0.803      152.140       56.982        0.140      350.302       31.364      864.925
07/29/2014  14:50:00     -189.540       38.107      -43.050       83.338       73.019       46.650     6945.202     5331.810     2176.193        2.684        0.723      193.332       38.381        0.039      350.105       31.022      864.907
07/29/2014  14:51:00      -69.716      -24.984        5.832       90.865       83.611       60.730     8256.446     6990.834     3688.171        1.222        0.947       74.057       60.361        0.664      350.252       31.278      864.871
07/29/2014  14:52:00      -94.622      -30.303        7.967       60.855       52.908       35.932     3703.307     2799.287     1291.113        0.886        0.390       99.356       33.089        0.111      350.171       31.138      864.863
07/29/2014  14:53:00        7.739       30.840       37.510       57.523       45.295       31.107     3308.919     2051.678      967.624        0.437        0.316       31.796       36.899        1.347      350.176       31.147      864.849
07/29/2014  14:54:00     -171.417      -51.171      -15.444       58.674       59.182       47.872     3442.613     3502.564     2291.682        2.074        0.462      178.892       26.390        0.022      350.223       31.225      864.843
07/29/2014  14:55:00     -255.283       14.901      -23.487      167.038       91.308       59.764    27901.833     8337.101     3571.767        5.287        1.991      255.717       83.298        0.106      350.214       31.209      864.868
07/29/2014  14:56:00     -173.219       28.762       -9.986       93.439      108.063       46.083     8730.825    11677.560     2123.623        2.673        1.127      175.590       48.064        0.075      350.228       31.235      864.854
07/29/2014  14:57:00     -173.534       57.126      -20.909       77.721       61.995       42.066     6040.504     3843.361     1769.554        2.273        0.583      182.695       39.462        0.047      350.186       31.161      864.830
07/29/2014  14:58:00     -145.080       16.588      -25.103       61.420       49.476       31.364     3772.399     2447.843      983.729        1.458        0.360      146.026       24.838        0.029      350.247       31.270      864.807
07/29/2014  14:59:00      -68.579       12.753      -16.258       48.652       43.663       38.509     2366.988     1906.454     1482.907        0.544        0.288       69.754       22.033        0.100      350.282       31.331      864.774
07/29/2014  15:00:00      -93.379       16.936       -5.623       53.938       52.253       23.781     2909.289     2730.418      565.539        0.762        0.310       94.902       22.714        0.057      350.522       31.749      864.780
07/29/2014  15:01:00     -167.915       34.277       -1.844      117.139       98.898       53.063    13721.592     9780.781     2815.683        2.784        1.316      171.378       56.335        0.108      350.592       31.867      864.787
07/29/2014  15:02:00     -226.761      103.924      -20.285      167.142      117.161       69.053    27936.510    13726.660     4768.283        5.452        2.322      249.441       81.819        0.108      350.294       31.349      864.779
07/29/2014  15:03:00     -290.063       18.014      -23.955      114.388      113.057       70.053    13084.619    12781.851     4907.486        5.790        1.539      290.622       62.125        0.046      350.282       31.329      864.762
07/29/2014  15:04:00     -322.586      -37.713      -60.977      125.924      112.318       70.493    15856.818    12615.383     4969.314        7.132        1.672      324.783       44.666        0.019      350.238       31.252      864.771
07/29/2014  15:05:00     -311.202      155.345      -59.958      132.120      132.974       81.209    17455.714    17682.091     6594.942        8.315        2.087      347.820       81.330        0.055      350.122       31.050      864.790
07/29/2014  15:06:00     -116.514       30.503      -21.210       85.132      112.444       53.398     7247.405    12643.735     2851.313        1.884        1.137      120.441       41.923        0.121      350.258       31.287      864.764
07/29/2014  15:07:00     -176.535       14.169      -19.496      132.775       79.237       44.792    17629.314     6278.519     2006.347        2.882        1.296      177.103       51.521        0.085      350.330       31.413      864.751
07/29/2014  15:08:00     -265.984       -4.491      -13.684      155.831      130.772       73.513    24283.337    17101.446     5404.111        5.886        2.339      266.022       81.710        0.094      350.326       31.404      864.760
07/29/2014  15:09:00     -215.953      -16.719      -25.890      154.738      120.585       78.681    23943.710    14540.652     6190.655        4.612        2.234      216.599       73.934        0.117      350.222       31.223      864.745
07/29/2014  15:10:00     -268.680       41.182      -45.824      125.410      119.597       58.364    15727.557    14303.458     3406.340        5.470        1.672      271.818       21.935        0.007      350.265       31.299      864.727
07/29/2014  15:11:00     -335.625      -83.222      -11.700      230.287      152.728       97.073    53032.148    23325.894     9423.228       10.273        4.289      345.789      117.382        0.115      350.226       31.230      864.698
07/29/2014  15:12:00     -145.824       -9.211      -10.353       87.865       86.134       57.453     7720.244     7419.038     3300.878        1.994        0.922      146.114       42.864        0.086      350.407       31.547      864.688
07/29/2014  15:13:00     -102.566       34.968        8.064       95.481      117.846       66.703     9116.591    13887.639     4449.249        1.963        1.373      108.363       65.178        0.362      350.634       31.942      864.696
07/29/2014  15:14:00     -307.017     -130.477      -10.048      155.410      127.253       81.382    24152.172    16193.345     6622.999        7.917        2.348      333.592       69.689        0.044      350.401       31.535      864.675
07/29/2014  15:15:00     -310.470      -65.252      -20.247       90.237      113.295       57.940     8142.648    12835.726     3356.986        6.269        1.217      317.253       43.941        0.019      350.306       31.370      864.655
07/29/2014  15:16:00     -197.932        0.461      -18.367      113.430       97.437       51.038    12866.478     9493.884     2604.863        3.224        1.248      197.933       54.231        0.075      350.462       31.641      864.635
07/29/2014  15:17:00     -319.728        5.833      -25.107      107.316      124.917       58.478    11516.798    15604.286     3419.700        6.671        1.527      319.781       52.982        0.027      350.383       31.502      864.614
07/29/2014  15:18:00     -294.943     -166.221        3.255      189.759      127.125       68.842    36008.561    16160.735     4739.200        8.576        2.845      338.557       77.433        0.052      350.390       31.515      864.595
07/29/2014  15:19:00     -245.342       66.315      -20.403      116.417      155.722       61.307    13552.875    24249.403     3758.574        5.328        2.078      254.146       53.667        0.045      350.346       31.439      864.613
07/29/2014  15:20:00     -289.006       -6.176      -23.642      109.854      132.654       69.765    12067.891    17597.058     4867.169        5.932        1.727      289.072       67.494        0.055      350.257       31.284      864.648
07/29/2014  15:21:00     -176.442       40.726      -14.773      106.584      116.656       64.867    11360.243    13608.523     4207.721        3.109        1.459      181.082       66.927        0.137      350.233       31.243      864.624
07/29/2014  15:22:00     -226.328      -23.992      -15.480       96.929      102.400       53.682     9395.253    10485.697     2881.738        3.740        1.138      227.596       39.069        0.029      350.255       31.280      864.589
07/29/2014  15:23:00     -355.305        0.408      -43.065      123.300      149.953       61.189    15202.844    22485.813     3744.131        8.476        2.072      355.306       58.882        0.027      350.289       31.340      864.587
07/29/2014  15:24:00     -136.206       -3.464       -9.720      146.854      155.763       64.087    21566.205    24262.179     4107.158        3.429        2.497      136.250       72.838        0.286      350.500       31.707      864.576
07/29/2014  15:25:00     -302.096      -26.839      -19.560      230.934      141.996       73.622    53330.505    20162.918     5420.270        8.562        3.946      303.286       86.686        0.082      350.422       31.573      864.568
07/29/2014  15:26:00     -361.098       11.359      -46.730      117.754      112.700       53.443    13866.012    12701.401     2856.112        8.106        1.471      361.276       45.409        0.016      350.257       31.285      864.555
07/29/2014  15:27:00     -232.264      -32.255      -21.614       85.624       96.685       47.451     7331.495     9347.957     2251.610        3.719        0.947      234.493       45.577        0.038      350.316       31.385      864.554
07/29/2014  15:28:00     -251.732       22.215      -21.343      128.141       84.801       51.962    16420.144     7191.169     2700.072        4.531        1.316      252.711       63.619        0.063      350.508       31.723      864.545
07/29/2014  15:29:00     -165.524       80.997      -10.828      101.296       94.043       51.113    10260.968     8844.162     2612.494        2.789        1.086      184.279       48.180        0.068      350.494       31.699      864.544
07/29/2014  15:30:00     -242.041      -88.015      -30.341      107.848       83.764       48.020    11631.283     7016.375     2305.915        4.410        1.048      257.547       41.834        0.026      350.385       31.507      864.509
07/29/2014  15:31:00     -254.633      -40.764      -21.424      149.206       78.508       55.127    22262.507     6163.510     3039.008        4.921        1.573      257.876       57.317        0.049      350.370       31.483      864.510
07/29/2014  15:32:00      -55.007       20.901        1.134       59.339       81.905       45.638     3521.066     6708.434     2082.870        0.789        0.616       58.844       35.324        0.360      350.678       32.019      864.487
07/29/2014  15:33:00     -133.315      -10.677       -6.895       96.757      116.973       41.773     9361.886    13682.608     1744.978        2.136        1.239      133.742       46.622        0.122      350.713       32.079      864.469
07/29/2014  15:34:00     -254.994      -45.880       10.576      163.904      148.769       65.191    26864.623    22132.312     4249.895        6.023        2.662      259.088       76.991        0.088      350.767       32.171      864.455
07/29/2014  15:35:00     -326.340     -107.742      -25.664      140.073      131.412       72.105    19620.416    17269.238     5199.137        8.042        2.104      343.666       53.572        0.024      350.446       31.613      864.439
07/29/2014  15:36:00     -368.724      -83.267      -10.257      115.604       97.775       54.593    13364.381     9559.954     2980.407        8.445        1.295      378.009       50.119        0.018      350.346       31.439      864.447
07/29/2014  15:37:00     -328.556      -11.966      -29.126      118.841       93.554       51.939    14123.076     8752.264     2697.646        6.725        1.279      328.774       51.508        0.025      350.431       31.588      864.474
07/29/2014  15:38:00     -207.053      125.486      -46.950      100.222      116.100       55.328    10044.530    13479.284     3061.180        4.370        1.329      242.111       45.590        0.035      350.450       31.620      864.485
07/29/2014  15:39:00      -92.245      -21.288      -13.269       96.140       58.842       39.150     9242.996     3462.377     1532.755        1.169        0.712       94.669       22.424        0.056      350.567       31.827      864.445
07/29/2014  15:40:00     -198.075      -63.211      -22.232      124.637       69.796       59.379    15534.353     4871.460     3525.847        3.382        1.197      207.917       56.952        0.075      350.495       31.699      864.435
07/29/2014  15:41:00     -212.570      -60.239      -11.642       97.334       81.365       48.482     9473.994     6620.310     2350.464        3.369        0.922      220.941       46.699        0.045      350.471       31.658      864.429
07/29/2014  15:42:00     -151.506      -40.971       12.318      144.944       84.463       57.529    21008.814     7134.053     3309.531        2.811        1.573      156.948       58.127        0.137      350.595       31.874      864.412
07/29/2014  15:43:00     -132.719       48.466      -24.668       83.314      110.879       51.238     6941.283    12294.145     2625.325        2.121        1.093      141.291       34.764        0.061      350.524       31.750      864.423
07/29/2014  15:44:00     -190.357      244.984      -42.674       97.702      108.915       71.500     9545.726    11862.504     5112.308        6.229        1.326      310.246       47.793        0.024      350.407       31.545      864.444
07/29/2014  15:45:00     -158.009       81.834       -4.417       94.984       95.248       59.474     9021.972     9072.199     3537.179        2.665        1.082      177.943       52.514        0.087      350.519       31.741      864.426
07/29/2014  15:46:00     -199.213       83.844      -32.844      100.795       82.845       55.543    10159.639     6863.362     3085.025        3.395        1.005      216.138       53.814        0.062      350.336       31.422      864.442
07/29/2014  15:47:00      -11.243       41.071       43.873       66.789       39.379       35.738     4460.720     1550.676     1277.197        0.551        0.364       42.582       34.366        0.651      350.589       31.865      864.406
07/29/2014  15:48:00      -99.996       -1.755      -10.711       63.415       41.416       27.317     4021.420     1715.296      746.217        0.830        0.324      100.011       30.783        0.095      350.502       31.715      864.390
07/29/2014  15:49:00     -357.571      -31.937      -47.790      140.240      108.790       59.734    19667.315    11835.219     3568.194        8.311        1.754      358.994       58.305        0.026      350.214       31.209      864.389
07/29/2014  15:50:00     -232.560      -10.089      -19.012       99.177       86.138       52.865     9836.170     7419.800     2794.696        3.730        1.003      232.779       53.010        0.052      350.229       31.236      864.369
07/29/2014  15:51:00     -274.954      -79.340      -12.632      135.365       85.056       58.135    18323.762     7234.594     3379.729        5.549        1.447      286.172       66.974        0.055      350.435       31.595      864.341
07/29/2014  15:52:00     -278.940      -93.801       -0.535      136.762      141.484       62.589    18703.961    20017.854     3917.405        6.461        2.132      294.289       56.234        0.037      350.420       31.566      864.332
07/29/2014  15:53:00     -223.187      -17.255      -14.558      106.943       74.784       54.857    11436.699     5592.696     3009.310        3.518        1.002      223.853       61.430        0.075      350.539       31.776      864.316
07/29/2014  15:54:00     -292.066     -115.035       -8.354       98.345       83.853       49.658     9671.660     7031.335     2465.902        5.888        0.958      313.904       39.843        0.016      350.582       31.850      864.319
07/29/2014  15:55:00     -326.915      -73.817      -43.048      130.815      148.777       70.227    17112.623    22134.668     4931.789        7.917        2.209      335.146       61.966        0.034      350.498       31.704      864.329
07/29/2014  15:56:00     -196.843       63.940       -4.010      197.150      144.691       97.296    38868.222    20935.495     9466.529        5.605        3.464      206.967      107.451        0.270      350.692       32.041      864.287
07/29/2014  15:57:00     -370.540      108.773      -55.185      139.897      137.523       83.903    19571.139    18912.640     7039.638        9.884        2.276      386.176       66.728        0.030      350.617       31.909      864.297
07/29/2014  15:58:00     -202.040      178.376      -16.526      117.178      133.040       77.396    13730.582    17699.552     5990.160        5.516        1.871      269.515       62.331        0.053      350.629       31.930      864.332
07/29/2014  15:59:00     -264.345       88.596      -39.262       77.153      154.532       55.225     5952.617    23880.290     3049.764        5.607        1.644      278.796       34.502        0.015      350.553       31.797      864.319
07/29/2014  16:00:00     -201.914       41.114      -36.659       82.775       94.513       57.285     6851.726     8932.703     3281.541        3.143        0.953      206.057       41.140        0.040      350.464       31.645      864.308
07/29/2014  16:01:00     -147.024       35.017       -5.636       83.720       94.942       71.069     7008.990     9014.070     5050.766        2.197        1.054      151.136       54.813        0.132      350.529       31.759      864.293
07/29/2014  16:02:00      -91.248       99.788       -0.753      102.768      125.114       57.737    10561.249    15653.638     3333.595        2.391        1.477      135.217       52.570        0.151      350.459       31.639      864.285
07/29/2014  16:03:00     -182.064       22.845       -4.252      100.890      117.724       54.951    10178.844    13859.026     3019.600        3.037        1.353      183.492       37.643        0.042      350.514       31.732      864.267
07/29/2014  16:04:00     -244.327       56.119      -19.292      176.116      101.143       58.774    31016.676    10229.890     3454.337        5.395        2.235      250.689       65.405        0.068      350.553       31.800      864.279
07/29/2014  16:05:00      -74.378      334.498      -34.200       58.704      148.545       55.467     3446.160    22065.757     3076.564        7.358        1.429      342.667       65.173        0.036      350.429       31.583      864.300
07/29/2014  16:06:00     -120.752      427.209      -43.534      114.458      124.767       69.839    13100.542    15566.692     4877.440       11.626        1.677      443.947       61.912        0.019      350.422       31.570      864.310
07/29/2014  16:07:00     -115.979      423.865      -48.497       87.944      149.321       56.670     7734.106    22296.837     3211.493       11.435        1.662      439.446       55.239        0.016      350.462       31.639      864.303
07/29/2014  16:08:00     -207.102      240.210      -43.879       97.030      134.581       61.073     9414.811    18112.002     3729.866        6.688        1.563      317.162       60.096        0.036      350.537       31.771      864.292
07/29/2014  16:09:00     -109.573      413.568      -34.659       94.873      165.303       64.685     9000.901    27325.180     4184.159       11.237        2.026      427.838       56.745        0.018      350.487       31.685      864.293
07/29/2014  16:10:00     -294.191      220.845      -67.808      149.981      134.852       67.476    22494.215    18184.987     4553.014        9.257        2.262      367.860       71.270        0.038      350.564       31.817      864.299
07/29/2014  16:11:00     -240.571      244.242      -50.083      110.904      142.261       79.141    12299.688    20238.203     6263.360        7.941        1.940      342.825       65.735        0.037      350.485       31.681      864.313
07/29/2014  16:12:00     -116.689      201.619      -27.704       96.514       93.852       48.784     9314.918     8808.256     2379.909        3.776        1.025      232.952       38.065        0.027      350.607       31.894      864.311
07/29/2014  16:13:00      -46.268       24.135       10.541       62.847       48.959       41.793     3949.789     2396.952     1746.686        0.546        0.405       52.184       22.450        0.185      350.839       32.299      864.277
07/29/2014  16:14:00      -70.274      119.676       -7.732       73.837       80.597       51.678     5451.972     6495.805     2670.643        1.697        0.731      138.783       59.188        0.182      350.666       31.997      864.260
07/29/2014  16:15:00     -170.770      131.496      -26.092       89.940       59.079       46.205     8089.258     3490.365     2134.877        3.042        0.686      215.531       41.725        0.037      350.278       31.322      864.241
07/29/2014  16:16:00     -141.348      145.469      -15.954       83.850       86.365       54.803     7030.815     7458.933     3003.325        2.944        0.875      202.831       32.067        0.025      350.470       31.655      864.195
07/29/2014  16:17:00     -261.509      337.575      -68.265      260.881      137.966      103.282    68058.947    19034.573    10667.130       14.236        4.888      427.017      130.690        0.094      350.435       31.593      864.210
07/29/2014  16:18:00     -132.730      323.509      -27.702      131.080      202.878       88.067    17182.049    41159.488     7755.724        9.456        3.305      349.679       85.847        0.060      350.379       31.497      864.269
07/29/2014  16:19:00     -155.885      263.204      -38.415       97.936      110.444       60.723     9591.551    12197.919     3687.285        6.026        1.274      305.902       65.939        0.046      350.241       31.254      864.276
07/29/2014  16:20:00     -187.481      238.087      -55.416       92.029       94.800       56.744     8469.375     8987.053     3219.919        5.779        1.034      303.042       52.331        0.030      350.286       31.336      864.279
07/29/2014  16:21:00      -67.932      175.563       -7.195       77.079      108.424       55.767     5941.200    11755.752     3109.985        2.814        1.040      188.247       52.469        0.078      350.324       31.402      864.282
07/29/2014  16:22:00      -86.171      410.463      -57.775      109.909      159.167       59.141    12080.032    25334.026     3497.667       11.007        2.046      419.410       71.482        0.029      350.210       31.201      864.283
07/29/2014  16:23:00     -143.985      400.700      -52.022      128.665      120.260       62.675    16554.558    14462.535     3928.152       10.946        1.747      425.784       60.103        0.020      350.196       31.178      864.282
07/29/2014  16:24:00     -158.679      199.878      -33.792       68.790       95.675       48.975     4732.043     9153.748     2398.561        4.128        0.814      255.207       44.814        0.031      350.239       31.252      864.279
07/29/2014  16:25:00       -5.334      199.922      -12.063      105.624      136.362       50.830    11156.457    18594.686     2583.692        3.623        1.617      199.993       61.691        0.095      350.286       31.336      864.281
07/29/2014  16:26:00       56.333      321.024      -25.717      104.906      139.220       85.911    11005.342    19382.343     7380.767        7.232        1.888      325.930       89.942        0.076      350.226       31.231      864.253
07/29/2014  16:27:00      -31.875      309.091      -38.873       87.424      114.172       51.463     7642.972    13035.329     2648.461        6.069        1.166      310.731       39.762        0.016      350.261       31.291      864.275
07/29/2014  16:28:00     -109.084      342.948      -39.719       77.073      117.753       60.446     5940.313    13865.784     3653.699        7.727        1.173      359.878       64.303        0.032      350.170       31.133      864.296
07/29/2014  16:29:00     -185.276      184.495      -39.651      118.506      145.129       51.398    14043.592    21062.379     2641.749        5.384        1.887      261.468       44.144        0.029      350.261       31.290      864.296
07/29/2014  16:30:00     -268.414       -7.684      -37.611      135.872      124.536       76.625    18461.318    15509.215     5871.346        5.667        1.992      268.524       79.879        0.088      350.197       31.179      864.279
07/29/2014  16:31:00     -171.693       25.002      -11.654       63.070       61.787       50.862     3977.783     3817.590     2586.946        2.031        0.519      173.504       36.276        0.044      350.197       31.181      864.253
07/29/2014  16:32:00     -166.199      -23.278      -22.953       78.845       81.721       43.275     6216.472     6678.321     1872.716        2.173        0.738      167.821       49.376        0.087      350.232       31.241      864.233
07/29/2014  16:33:00     -105.799       34.435      -13.115       63.438       37.566       35.579     4024.390     1411.223     1265.879        0.963        0.335      111.262       37.325        0.113      350.380       31.503      864.242
07/29/2014  16:34:00     -166.008      225.502      -32.081      111.220      168.383       75.582    12369.996    28352.846     5712.568        6.293        2.322      280.018       61.364        0.048      350.484       31.678      864.248
07/29/2014  16:35:00     -220.482      328.734      -42.031      135.649      139.062       76.568    18400.550    19338.327     5862.632       10.101        2.180      395.826       84.232        0.045      350.430       31.586      864.276
07/29/2014  16:36:00     -168.286      216.186      -31.741      137.928      138.866       54.848    19024.138    19283.636     3008.269        5.868        2.066      273.965       50.787        0.034      350.574       31.836      864.261
07/29/2014  16:37:00      -93.596      330.842      -34.449       89.849      114.710       57.618     8072.763    13158.490     3319.807        7.197        1.228      343.827       52.334        0.023      350.486       31.681      864.265
07/29/2014  16:38:00     -105.177      350.387      -40.909      104.980      133.206       79.538    11020.762    17743.793     6326.318        8.529        1.755      365.832       44.398        0.015      350.443       31.608      864.250
07/29/2014  16:39:00     -187.478      315.543      -46.419       94.921      181.019       56.255     9009.939    32767.925     3164.577        9.090        2.247      367.036       51.636        0.020      350.475       31.664      864.252
07/29/2014  16:40:00      -39.371      261.169      -18.499       77.052      116.656       54.944     5937.024    13608.568     3018.794        4.633        1.128      264.120       47.679        0.033      350.566       31.821      864.249
07/29/2014  16:41:00      -83.725      184.085      -11.570       54.702      120.808       56.164     2992.262    14594.673     3154.409        3.088        1.037      202.230       32.973        0.027      350.597       31.877      864.224
07/29/2014  16:42:00     -145.277      108.796      -39.147      118.327      138.679       61.661    14001.238    19231.970     3802.107        3.575        1.852      181.499       63.267        0.122      350.701       32.058      864.225
07/29/2014  16:43:00       35.413       55.697       -7.221       53.309       83.323       48.294     2841.889     6942.741     2332.327        0.826        0.606       66.002       33.943        0.264      350.681       32.023      864.188
07/29/2014  16:44:00     -152.068      294.392      -43.134      132.079      188.555       65.793    17444.906    35552.911     4328.755        8.448        2.866      331.347       76.918        0.054      350.564       31.820      864.205
07/29/2014  16:45:00     -180.730      257.498      -40.861       88.109      113.362       59.971     7763.143    12850.840     3596.496        6.242        1.211      314.593       64.051        0.041      350.644       31.956      864.204
07/29/2014  16:46:00     -205.749      194.837      -25.072       95.716       93.781       68.275     9161.641     8794.877     4661.536        5.177        1.131      283.362       53.899        0.036      350.660       31.986      864.194
07/29/2014  16:47:00     -191.751      250.959      -31.036      102.553      120.357       63.649    10517.022    14485.719     4051.248        6.488        1.453      315.831       58.187        0.034      350.622       31.918      864.190
07/29/2014  16:48:00     -170.531      120.869      -24.293      115.999       88.765       55.033    13455.835     7879.138     3028.610        3.432        1.218      209.022       76.943        0.136      350.685       32.031      864.178
07/29/2014  16:49:00     -144.255       42.723      -17.504       93.912      125.458       37.624     8819.451    15739.700     1415.562        2.445        1.299      150.448       33.231        0.049      350.948       32.490      864.155
07/29/2014  16:50:00      -73.865       42.243        9.159      121.559      172.681       67.695    14776.650    29818.851     4582.585        2.824        2.459       85.092       69.000        0.658      350.806       32.240      864.124
07/29/2014  16:51:00     -189.224      131.672      -42.603       76.779       66.241       45.200     5894.970     4387.865     2043.061        3.364        0.616      230.528       42.493        0.034      350.827       32.276      864.156
07/29/2014  16:52:00     -203.939       85.862      -42.272       95.181      120.521       48.876     9059.366    14525.313     2388.834        3.836        1.299      221.277       45.848        0.043      350.868       32.347      864.159
07/29/2014  16:53:00     -222.762      -70.606      -26.591      100.610       87.353       51.239    10122.424     7630.505     2625.447        3.784        1.019      233.683       40.564        0.030      350.692       32.042      864.168
07/29/2014  16:54:00     -265.215       21.369      -22.109      127.202      108.522       64.057    16180.378    11776.950     4103.242        5.167        1.603      266.075       46.797        0.031      350.652       31.971      864.154
07/29/2014  16:55:00      -32.800       87.774       40.245       93.070       89.994       52.990     8662.106     8098.937     2807.934        1.498        0.978       93.702       41.589        0.197      350.779       32.194      864.152
07/29/2014  16:56:00      -71.830      101.079       -7.937       62.951       95.332       50.461     3962.856     9088.245     2546.298        1.552        0.780      124.002       57.547        0.215      350.809       32.248      864.142
07/29/2014  16:57:00     -148.583      216.031      -45.790       79.870       75.974       43.918     6379.237     5772.074     1928.773        4.246        0.704      262.195       48.474        0.034      350.575       31.837      864.142
07/29/2014  16:58:00     -134.746      113.935      -28.007       91.933       79.354       47.584     8451.613     6297.017     2264.261        2.446        0.851      176.459       54.519        0.095      350.695       32.047      864.148
07/29/2014  16:59:00      -63.049       69.849       -5.706       53.842       51.070       39.416     2898.937     2608.176     1553.613        0.797        0.353       94.096       42.001        0.199      350.831       32.286      864.140
07/29/2014  17:00:00        6.577        7.483       24.402       35.571       30.964       29.472     1265.267      958.756      868.582        0.189        0.155        9.962       25.154        6.375      350.889       32.388      864.119
07/29/2014  17:01:00       -0.017       22.930       20.093       55.616       21.976       21.687     3093.127      482.947      470.346        0.249        0.202       22.930       10.897        0.226      350.716       32.087      864.098
07/29/2014  17:02:00       89.030       39.911        0.915       61.352       35.537       29.338     3764.078     1262.892      860.746        0.770        0.294       97.567       16.576        0.029      350.450       31.623      864.101
07/29/2014  17:03:00       56.240       94.803       -4.215       63.062       49.642       28.002     3976.815     2464.345      784.118        0.970        0.361      110.230       25.356        0.053      350.626       31.928      864.099
07/29/2014  17:04:00      184.753      109.065        8.911       68.470       64.180       48.998     4688.145     4119.024     2400.768        2.866        0.560      214.543       39.368        0.034      350.535       31.767      864.097
07/29/2014  17:05:00      166.717      107.903       55.538       97.750       53.735       60.725     9554.992     2887.491     3687.538        2.932        0.807      198.589       50.828        0.066      350.399       31.533      864.070
07/29/2014  17:06:00       -3.886      225.617      -18.644       72.343      105.021       54.245     5233.481    11029.447     2942.511        3.523        0.960      225.650       51.719        0.053      350.632       31.934      864.090
07/29/2014  17:07:00      124.967      120.689       -2.400       97.779       94.087       55.831     9560.694     8852.395     3117.084        2.585        1.077      173.731       45.535        0.069      350.544       31.785      864.081
07/29/2014  17:08:00       38.270      212.875      -25.448       62.524      105.863       53.249     3909.282    11207.012     2835.432        3.269        0.898      216.287       60.495        0.078      350.518       31.740      864.097
07/29/2014  17:09:00      -34.470      290.491      -31.628       96.918      111.421       47.958     9393.080    12414.741     2299.958        5.534        1.205      292.529       48.891        0.028      350.589       31.860      864.094
07/29/2014  17:10:00     -177.534      139.783      -25.413       95.213       65.922       54.814     9065.435     4345.724     3004.625        3.406        0.821      225.960       50.209        0.049      350.526       31.753      864.133
07/29/2014  17:11:00     -188.026      246.855      -47.269       81.408       89.188       57.239     6627.321     7954.508     3276.320        5.819        0.893      310.308       45.564        0.022      350.408       31.546      864.132
07/29/2014  17:12:00     -156.361      293.453      -49.955       98.346       93.124       44.160     9671.858     8672.109     1950.129        6.667        1.015      332.511       45.431        0.019      350.343       31.433      864.105
07/29/2014  17:13:00     -166.122      306.152      -45.487      105.203      115.147       61.683    11067.775    13258.877     3804.845        7.576        1.407      348.318       57.461        0.027      350.308       31.376      864.111
07/29/2014  17:14:00     -178.893      199.505      -39.610       69.551       95.268       48.217     4837.406     9075.979     2324.910        4.480        0.812      267.965       41.721        0.024      350.222       31.224      864.115
07/29/2014  17:15:00     -234.782      205.471      -54.020       97.177       89.897       53.823     9443.330     8081.556     2896.964        6.034        1.021      311.995       47.884        0.024      350.307       31.373      864.094
07/29/2014  17:16:00      -48.254      190.473      -22.475       97.909      106.296       54.641     9586.082    11298.807     2985.678        3.149        1.194      196.490       28.464        0.021      350.374       31.488      864.093
07/29/2014  17:17:00      -45.756       75.153       -2.626       66.533       61.829       39.437     4426.695     3822.846     1555.255        0.877        0.490       87.986       32.132        0.133      350.390       31.519      864.096
07/29/2014  17:18:00       58.233       86.174       -3.491       79.191       72.520       44.222     6271.181     5259.145     1955.545        1.215        0.674      104.005       26.939        0.067      350.356       31.458      864.089
07/29/2014  17:19:00      104.409      115.269       13.853      108.690       70.087       49.443    11813.530     4912.201     2444.642        2.177        0.959      155.525       36.754        0.056      350.290       31.345      864.069
07/29/2014  17:20:00       44.305      169.727      -31.175       57.293       75.803       33.653     3282.460     5746.031     1132.551        2.095        0.508      175.414       27.826        0.025      350.344       31.438      864.066
07/29/2014  17:21:00       17.775      320.309      -45.551       52.094      150.719       44.855     2713.811    22716.255     2011.964        6.621        1.372      320.802       60.448        0.036      350.429       31.585      864.068
07/29/2014  17:22:00      -32.390      347.250      -42.511       76.299      101.131       39.747     5821.480    10227.548     1579.855        7.053        0.881      348.758       41.886        0.014      350.407       31.546      864.074
07/29/2014  17:23:00      -62.410      128.072      -11.844       75.541       66.298       41.939     5706.396     4395.373     1758.872        1.615        0.593      142.469       37.681        0.070      350.488       31.688      864.089
07/29/2014  17:24:00     -159.328      108.524      -31.724       81.224      142.550       60.325     6597.308    20320.503     3639.046        3.436        1.528      192.777       57.869        0.090      350.490       31.690      864.097
07/29/2014  17:25:00     -137.679       12.759       -3.848      111.965       74.339       48.611    12536.241     5526.254     2362.998        1.978        1.021      138.269       57.121        0.171      350.400       31.535      864.100
07/29/2014  17:26:00     -213.970       43.648      -25.831       84.243       73.761       40.124     7096.963     5440.643     1609.968        3.125        0.707      218.376       38.107        0.030      350.341       31.431      864.103
07/29/2014  17:27:00     -218.748       20.162      -20.389       75.557       61.910       32.012     5708.915     3832.860     1024.764        2.962        0.528      219.676       24.795        0.013      350.305       31.369      864.096
07/29/2014  17:28:00     -217.916      -40.553      -25.555       78.310       64.724       36.106     6132.466     4189.250     1303.671        3.070        0.581      221.657       35.374        0.025      350.335       31.420      864.073
07/29/2014  17:29:00     -123.679      -12.998       -7.162       65.658       58.396       24.418     4310.917     3410.063      596.242        1.192        0.416      124.360       28.023        0.051      350.371       31.487      864.072
07/29/2014  17:30:00     -111.669        9.236      -13.484       40.790       47.152       26.201     1663.785     2223.288      686.509        0.865        0.229      112.050       20.096        0.032      350.336       31.425      864.079
07/29/2014  17:31:00     -142.881      -58.852       -9.875       54.026       53.644       30.280     2918.833     2877.655      916.862        1.534        0.336      154.527       26.449        0.029      350.306       31.374      864.074
07/29/2014  17:32:00      -47.759       18.883       24.478       65.495       41.761       32.296     4289.612     1743.972     1043.042        0.516        0.354       51.357       38.931        0.575      350.254       31.282      864.083
07/29/2014  17:33:00     -128.823       55.816      -21.963       51.694       71.188       35.502     2672.225     5067.745     1260.378        1.459        0.450      140.395       46.006        0.107      350.260       31.288      864.096
07/29/2014  17:34:00      -88.981      -11.308       -8.269       48.364       28.061       23.538     2339.107      787.440      554.019        0.590        0.184       89.697       18.247        0.041      350.339       31.430      864.091
07/29/2014  17:35:00      -99.238      -41.837      -15.886       47.756       29.459       23.077     2280.605      867.824      532.530        0.777        0.184      107.697       20.531        0.036      350.285       31.336      864.076
07/29/2014  17:36:00     -189.335      -69.556      -13.445       67.884       51.337       25.591     4608.291     2635.441      654.892        2.438        0.395      201.707       22.783        0.013      350.225       31.228      864.076
07/29/2014  17:37:00      -99.734      -56.147        9.431       74.454       34.205       27.333     5543.327     1169.986      747.102        1.032        0.373      114.452       36.841        0.104      350.248       31.270      864.050
07/29/2014  17:38:00     -152.660      -14.140      -11.455       39.754       35.896       20.194     1580.372     1288.542      407.806        1.346        0.164      153.314       15.259        0.010      350.215       31.213      864.055
07/29/2014  17:39:00     -112.552      -33.674        1.421       59.366       59.394       29.980     3524.265     3527.649      898.786        1.088        0.398      117.481       29.652        0.064      350.245       31.266      864.048
07/29/2014  17:40:00     -179.213      -85.673       -1.442       75.517       65.797       38.013     5702.755     4329.238     1444.986        2.547        0.574      198.638       35.483        0.032      350.193       31.174      864.035
07/29/2014  17:41:00     -135.266      -41.342        3.792       71.662       65.284       35.482     5135.458     4262.056     1259.000        1.534        0.533      141.443       38.416        0.074      350.127       31.059      864.041
07/29/2014  17:42:00      -69.530       74.797       -0.942       66.052       38.408       29.604     4362.886     1475.177      876.412        0.857        0.336      102.123       33.305        0.106      349.909       30.683      864.043
07/29/2014  17:43:00      -61.049      101.270       -9.854       43.849       56.753       30.833     1922.731     3220.946      950.676        1.009        0.305      118.248       34.728        0.086      350.150       31.100      864.046
07/29/2014  17:44:00      -28.922       79.383        3.401       31.169       42.334       23.314      971.516     1792.160      543.556        0.523        0.165       84.487       27.407        0.105      350.116       31.043      864.045
07/29/2014  17:45:00      -18.589       87.544       -4.994       37.957       38.766       21.590     1440.739     1502.814      466.115        0.572        0.170       89.496       13.568        0.023      350.116       31.042      864.048
07/29/2014  17:46:00      -22.941      172.071      -22.535       54.509       60.271       33.877     2971.226     3632.586     1147.646        1.920        0.388      173.594       34.941        0.041      350.179       31.151      864.036
07/29/2014  17:47:00      -83.367      145.885      -14.150       35.581       59.495       25.057     1266.042     3539.652      627.868        1.693        0.272      168.025       23.691        0.020      350.082       30.984      864.031
07/29/2014  17:48:00      -35.582      113.931      -13.039       56.871       51.614       29.477     3234.321     2663.959      868.894        1.059        0.338      119.358       30.888        0.067      350.213       31.210      864.037
07/29/2014  17:49:00      -49.780      103.594       -6.232       32.629       39.399       24.504     1064.636     1552.291      600.447        0.823        0.161      114.934       19.906        0.030      350.090       30.998      864.027
07/29/2014  17:50:00      -17.485       23.279       12.157       44.386       25.840       27.629     1970.136      667.682      763.368        0.220        0.170       29.114       30.785        1.118      350.152       31.106      864.022
07/29/2014  17:51:00     -108.524      -27.441       -8.635       37.384       47.589       28.542     1397.600     2264.715      814.645        0.854        0.224      111.940       21.810        0.038      350.262       31.297      864.029
07/29/2014  17:52:00     -141.464      -34.753       -6.831       48.900       49.413       32.090     2391.176     2441.597     1029.798        1.356        0.293      145.670       23.416        0.026      350.249       31.271      864.025
07/29/2014  17:53:00      -45.232       -0.769       12.288       55.201       56.933       22.907     3047.097     3241.384      524.714        0.450        0.341       45.239       31.496        0.485      350.188       31.165      864.016
07/29/2014  17:54:00     -101.277      -24.510        3.844       50.241       51.460       26.795     2524.192     2648.150      717.985        0.838        0.295      104.201       25.786        0.061      350.176       31.146      864.021
07/29/2014  17:55:00     -154.291       12.084      -12.989       27.633       31.309       16.845      763.557      980.256      283.755        1.307        0.101      154.763       13.805        0.008      350.137       31.078      864.022
07/29/2014  17:56:00     -130.235        7.642      -11.649       55.766       53.662       23.838     3109.809     2879.612      568.230        1.186        0.328      130.459       17.069        0.017      350.063       30.951      864.012
07/29/2014  17:57:00     -127.893      -34.945       -8.596       36.178       53.204       25.183     1308.830     2830.700      634.160        1.121        0.239      132.581       23.775        0.032      350.122       31.052      864.017
07/29/2014  17:58:00     -123.919       40.101       -1.699       74.668       94.937       35.761     5575.264     9013.025     1278.881        1.641        0.793      130.246       31.087        0.057      350.177       31.146      864.024
07/29/2014  17:59:00      -64.913       97.863       -1.145       45.156       54.896       34.375     2039.048     3013.576     1181.663        1.001        0.312      117.435       26.378        0.050      350.172       31.139      864.012
07/29/2014  18:00:00     -120.328        8.006       -7.479       48.649       66.199       32.671     2366.737     4382.250     1067.379        1.121        0.391      120.594       26.403        0.048      350.218       31.218      864.000
07/29/2014  18:01:00     -148.683       87.556       -4.225       81.464       49.062       45.255     6636.313     2407.034     2047.976        2.044        0.555      172.548       48.108        0.078      350.142       31.087      864.017
07/29/2014  18:02:00     -166.050       -2.034      -19.814       69.704       64.047       34.006     4858.668     4102.015     1156.402        1.904        0.506      166.063       37.039        0.050      350.174       31.141      864.018
07/29/2014  18:03:00      -70.852       62.789       -9.538       53.224       48.120       26.157     2832.766     2315.554      684.182        0.744        0.292       94.670       21.318        0.051      350.233       31.242      863.998
07/29/2014  18:04:00      -13.118       25.542       16.001       27.442       50.280       19.993      753.072     2528.033      399.720        0.238        0.184       28.714       13.338        0.216      350.250       31.274      863.993
07/29/2014  18:05:00     -110.880      -42.633       -5.587       29.256       30.742       20.818      855.927      945.095      433.408        0.819        0.112      118.793       17.039        0.021      350.230       31.241      863.994
07/29/2014  18:06:00     -106.573       70.703      -19.076       41.310       47.855       23.859     1706.513     2290.058      569.233        1.064        0.228      127.893       21.527        0.028      350.241       31.259      863.989
07/29/2014  18:07:00      -83.252       21.872       -6.960       45.839       74.230       26.117     2101.194     5510.131      682.100        0.787        0.415       86.077       16.447        0.037      350.256       31.284      863.988
07/29/2014  18:08:00     -115.092      -20.735       -7.685       29.814       38.650       17.465      888.889     1493.825      305.021        0.821        0.134      116.945       13.935        0.014      350.291       31.349      863.991
07/29/2014  18:09:00      -29.184        0.719        2.424       40.171       19.107       18.351     1613.672      365.076      336.751        0.159        0.116       29.192       17.479        0.358      350.172       31.139      863.990
07/29/2014  18:10:00      -99.492      -40.170       -6.563       46.738       45.269       27.773     2184.422     2049.293      771.327        0.828        0.250      107.295       25.122        0.055      350.264       31.300      863.975
07/29/2014  18:11:00      -95.525      -72.265       -4.866       58.700       50.874       33.068     3445.724     2588.172     1093.505        1.075        0.356      119.780       37.044        0.096      350.249       31.273      863.970
07/29/2014  18:12:00      -98.716      -66.819       -6.633       45.242       44.177       27.411     2046.875     1951.649      751.386        0.950        0.237      119.205       24.504        0.042      350.295       31.353      863.968
07/29/2014  18:13:00      -89.403      -12.537        2.002       66.147       39.380       26.856     4375.476     1550.766      721.266        0.740        0.332       90.277       31.275        0.120      350.289       31.345      863.976
07/29/2014  18:14:00     -159.099       49.866       -5.176       67.896       50.778       34.056     4609.878     2578.385     1159.809        1.809        0.417      166.731       21.525        0.017      350.258       31.288      863.972
07/29/2014  18:15:00     -202.154      -11.418      -27.015       42.875       35.244       21.463     1838.252     1242.127      460.679        2.263        0.177      202.476       16.323        0.006      350.277       31.320      863.964
07/29/2014  18:16:00     -153.856      -34.168      -18.697       34.069       19.820       14.222     1160.671      392.820      202.273        1.347        0.088      157.605        7.734        0.002      350.277       31.326      863.955
07/29/2014  18:17:00      -82.505      -63.140        0.388       38.765       22.040       22.455     1502.721      485.751      504.212        0.664        0.125      103.893       20.631        0.039      350.308       31.378      863.953
07/29/2014  18:18:00      -56.797      -44.288        8.197       54.273       37.092       30.690     2945.597     1375.793      941.865        0.526        0.263       72.023       28.512        0.157      350.297       31.358      863.958
07/29/2014  18:19:00      -26.704      -34.071        4.435       31.091       30.807       18.419      966.639      949.100      339.262        0.207        0.113       43.289       15.956        0.136      350.285       31.335      863.953
07/29/2014  18:20:00      -10.831      -15.318       15.058       28.350       17.118       19.993      803.733      293.039      399.711        0.104        0.075       18.761       19.362        1.065      350.291       31.349      863.954
07/29/2014  18:21:00      -23.203      -39.830       12.171       33.106       23.845       16.678     1095.986      568.570      278.140        0.211        0.097       46.095       15.155        0.108      350.289       31.344      863.944
07/29/2014  18:22:00      -18.416      -75.108        2.621       27.648       33.679       21.242      764.404     1134.293      451.233        0.417        0.117       77.332       17.884        0.053      350.329       31.411      863.948
07/29/2014  18:23:00       -0.900     -113.710        4.168       26.937       54.124       25.449      725.606     2929.377      647.672        0.862        0.215      113.714       25.031        0.048      350.242       31.264      863.955
07/29/2014  18:24:00        7.324      -66.941       12.496       69.074       51.497       27.668     4771.167     2651.969      765.531        0.644        0.409       67.340        3.899        0.003      350.011       30.859      863.940
07/29/2014  18:25:00      -19.321      -44.430        9.119       42.031       25.798       23.727     1766.636      665.515      562.993        0.271        0.150       48.449       14.820        0.094      350.081       30.980      863.930
07/29/2014  18:26:00       13.917      -84.698        0.883       53.020       83.544       40.037     2811.115     6979.600     1602.990        0.938        0.570       85.834       45.256        0.278      349.940       30.736      863.914
07/29/2014  18:27:00       44.936     -106.019        2.708       77.149       73.271       41.437     5952.004     5368.613     1717.017        1.315        0.652      115.149       39.302        0.116      349.990       30.823      863.913
07/29/2014  18:28:00       77.258     -106.831       -9.696       57.628       54.382       37.034     3320.958     2957.353     1371.530        1.256        0.382      131.840       30.621        0.054      350.086       30.992      863.905
07/29/2014  18:29:00       51.763       -9.479       68.243       75.418      120.202       91.401     5687.870    14448.516     8354.086        1.795        1.425       52.624       99.056        3.543      349.891       30.651      863.905
07/29/2014  18:30:00      179.655     -207.251       33.362      202.346      275.684      148.877    40943.901    76001.434    22164.245       10.770        6.955      274.278      180.383        0.433      349.583       30.114      863.804
07/29/2014  18:31:00      143.802     -390.446      -31.210      183.227      213.073      115.583    33572.030    45399.911    13359.374       13.320        4.617      416.086       74.399        0.032      349.516       29.998      863.825
07/29/2014  18:32:00       95.045     -188.227        4.377      124.744      165.535       97.346    15560.944    27401.897     9476.148        4.845        2.622      210.863       86.350        0.168      349.322       29.662      863.862
07/29/2014  18:33:00      -43.133     -166.865       -7.367      104.298      105.092       63.724    10878.037    11044.320     4060.701        2.787        1.299      172.350       49.566        0.083      349.426       29.844      863.871
07/29/2014  18:34:00       17.691     -101.921       23.198       83.779       91.464       56.411     7018.845     8365.741     3182.192        1.490        0.928      103.445       53.968        0.272      349.426       29.844      863.901
07/29/2014  18:35:00       95.928     -157.197       15.340       80.759      126.629       59.863     6521.939    16034.860     3583.618        3.014        1.307      184.155       55.235        0.090      349.249       29.535      863.888
07/29/2014  18:36:00      140.100     -212.804       -0.611      114.542      121.405       78.239    13119.903    14739.272     6121.299        4.944        1.699      254.781       74.299        0.085      349.218       29.482      863.891
07/29/2014  18:37:00       18.056     -158.030       33.836      105.583      130.764       63.401    11147.810    17099.201     4019.671        2.935        1.613      159.059       72.518        0.208      349.315       29.649      863.904
07/29/2014  18:38:00       26.146     -120.853        8.528       99.604      118.339       80.018     9920.956    14004.106     6402.834        2.284        1.516      123.649       64.295        0.270      349.287       29.603      863.890
07/29/2014  18:39:00      137.385     -252.764      -19.542      117.648      152.870       76.095    13840.969    23369.337     5790.424        6.307        2.150      287.688       72.149        0.063      349.063       29.213      863.923
07/29/2014  18:40:00      124.464     -275.468      -43.205      149.655      143.674       87.922    22396.725    20642.293     7730.305        7.199        2.538      302.281       80.541        0.071      349.025       29.148      863.928
07/29/2014  18:41:00      103.944     -212.397       -2.477      186.941      127.913       82.512    34946.779    16361.621     6808.188        5.701        2.906      236.467       68.265        0.083      349.028       29.153      863.944
07/29/2014  18:42:00       18.723     -132.155       24.636      113.839      127.044       69.492    12959.281    16140.230     4829.154        2.617        1.696      133.475       58.643        0.193      349.134       29.338      863.959
07/29/2014  18:43:00       43.874      -84.043       29.135       73.896       90.556       65.368     5460.558     8200.363     4272.917        1.388        0.897       94.806       66.964        0.499      349.144       29.355      863.969
07/29/2014  18:44:00      119.591     -166.581       23.379      105.406      128.662       69.662    11110.450    16553.895     4852.842        3.755        1.626      205.064       76.010        0.137      349.079       29.241      863.966
07/29/2014  18:45:00       58.049       27.970      100.627      108.727      112.598       68.860    11821.511    12678.198     4741.763        2.175        1.462       64.436       80.655        1.567      349.110       29.296      863.945
07/29/2014  18:46:00      143.423     -172.596       27.089      191.084      204.007      112.299    36513.016    41618.686    12611.064        7.090        4.537      224.409      145.470        0.420      349.125       29.320      863.927
07/29/2014  18:47:00      132.764     -151.652      -13.152      107.458      130.185       81.789    11547.302    16948.250     6689.464        3.798        1.759      201.555       82.181        0.166      349.161       29.382      863.937
07/29/2014  18:48:00       38.534     -122.311       43.985      114.524      123.143       77.427    13115.839    15164.268     5994.909        2.632        1.714      128.237       77.244        0.363      349.223       29.492      863.981
07/29/2014  18:49:00       65.754      -88.080       55.277       96.284      148.522       86.003     9270.593    22058.816     7396.544        2.692        1.936      109.917       94.692        0.742      349.083       29.248      863.991
07/29/2014  18:50:00      103.800      -93.694       45.359      121.580      195.422      114.801    14781.648    38189.617    13179.383        4.387        3.308      139.832      127.511        0.832      349.049       29.188      863.964
07/29/2014  18:51:00       95.710     -221.101      -39.290      135.092      123.386       90.676    18249.731    15224.037     8222.212        5.063        2.085      240.928       55.294        0.053      349.034       29.162      863.968
07/29/2014  18:52:00       45.555      -94.666       22.217       77.779       91.153       56.663     6049.609     8308.818     3210.642        1.455        0.878      105.057       60.022        0.326      349.054       29.199      863.999
07/29/2014  18:53:00      127.218     -103.953       26.371      109.473      140.151       81.679    11984.312    19642.290     6671.417        3.298        1.915      164.288       87.702        0.285      348.980       29.071      863.993
07/29/2014  18:54:00       31.855      -64.852       69.331       89.169      117.290       61.707     7951.112    13756.936     3807.728        1.777        1.276       72.253       62.493        0.748      349.052       29.196      863.989
07/29/2014  18:55:00      149.486     -227.061       -8.441       86.318      115.693       79.627     7450.786    13384.897     6340.519        5.057        1.359      271.851       69.154        0.065      348.992       29.090      863.980
07/29/2014  18:56:00      112.521      -52.306       98.985      176.792      224.953      135.966    31255.332    50603.779    18486.854        6.275        5.017      124.085      174.956        1.988      348.967       29.048      863.944
07/29/2014  18:57:00      155.014      -94.848       51.309      166.119      177.945      125.584    27595.610    31664.249    15771.367        5.533        3.752      181.729      146.715        0.652      349.021       29.140      863.945
07/29/2014  18:58:00       59.356     -135.574       36.330      113.828      173.973      103.622    12956.842    30266.587    10737.455        3.858        2.698      147.999      110.378        0.556      348.969       29.050      863.987
07/29/2014  18:59:00       -0.186      -81.280        9.810       71.239       76.996       49.974     5075.042     5928.334     2497.359        1.010        0.675       81.280       45.438        0.313      349.122       29.318      864.033
07/29/2014  19:00:00      -12.416      -15.823       20.054       49.844       53.086       51.744     2484.401     2818.075     2677.423        0.439        0.399       20.113       41.723        4.303      349.099       29.277      864.039
07/29/2014  19:01:00       44.792     -170.434        4.492      104.262      155.935       67.609    10870.661    24315.687     4570.970        3.541        1.988      176.222       59.207        0.113      348.987       29.083      864.057
07/29/2014  19:02:00       83.238      -90.437       48.662      121.934      137.834       85.913    14867.823    18998.147     7381.083        2.935        2.062      122.912       87.872        0.511      348.931       28.986      864.044
07/29/2014  19:03:00       87.641      -91.461       30.288       82.257      113.004       61.127     6766.277    12769.798     3736.499        2.011        1.164      126.673       65.605        0.268      348.914       28.958      864.042
07/29/2014  19:04:00       73.445      -68.239       52.887       64.200      118.566       67.597     4121.638    14057.810     4569.320        1.779        1.137      100.253       79.106        0.623      348.811       28.778      864.036
07/29/2014  19:05:00       90.372     -150.786       28.385       84.937      160.720       89.861     7214.214    25831.049     8075.047        3.641        2.056      175.793      108.898        0.384      348.820       28.792      864.020
07/29/2014  19:06:00       94.799      -32.596       55.868       96.876      132.923       95.741     9384.889    17668.582     9166.333        2.469        1.811      100.246       99.628        0.988      348.880       28.896      864.012
07/29/2014  19:07:00      178.931     -118.238       36.104      150.509      161.110      125.720    22653.098    25956.465    15805.456        5.584        3.221      214.468      129.417        0.364      348.902       28.935      863.988
07/29/2014  19:08:00      151.522     -132.958       44.761      146.150      174.261      123.058    21359.707    30366.768    15143.378        5.474        3.343      201.586      113.282        0.316      348.842       28.830      863.993
07/29/2014  19:09:00       97.897     -125.827       50.713      104.816      204.605      122.521    10986.308    41863.307    15011.434        4.791        3.393      159.425      146.923        0.849      348.839       28.824      864.043
07/29/2014  19:10:00       92.670        4.044      106.509      107.787      186.789      118.663    11617.960    34889.999    14080.829        4.026        3.029       92.758      132.793        2.049      348.832       28.813      864.050
07/29/2014  19:11:00       12.060     -122.310       -1.777      108.998       85.833       65.442    11880.524     7367.317     4282.640        1.931        1.177      122.903       62.763        0.261      348.845       28.838      864.099
07/29/2014  19:12:00      140.694     -200.295      -25.869      115.044      116.805       50.969    13235.119    13643.324     2597.853        4.502        1.474      244.771       54.182        0.049      348.747       28.666      864.111
07/29/2014  19:13:00      101.168     -194.598       -8.209      140.478      104.333       63.057    19734.072    10885.381     3976.129        4.138        1.730      219.324       61.124        0.078      348.767       28.702      864.131
07/29/2014  19:14:00      175.542     -176.551        0.973      114.449      150.301       67.100    13098.580    22590.253     4502.428        5.108        2.010      248.969       86.903        0.122      348.767       28.701      864.110
07/29/2014  19:15:00       87.596      -31.843       71.602      113.045      153.461       92.558    12779.168    23550.188     8567.068        2.935        2.245       93.204      106.552        1.307      348.769       28.705      864.094
07/29/2014  19:16:00       14.965       78.074      137.382       67.624      107.113       65.569     4572.981    11473.205     4299.271        2.277        1.017       79.495       66.505        0.700      348.787       28.736      864.083
07/29/2014  19:17:00       70.528      -19.986       59.392       82.985      108.709       66.844     6886.447    11817.593     4468.186        1.603        1.159       73.305       62.985        0.738      348.698       28.584      864.103
07/29/2014  19:18:00      132.827       -1.679      138.844      146.476      206.104      120.331    21455.208    42478.892    14479.569        5.765        3.921      132.838      146.170        1.211      348.784       28.729      864.078
07/29/2014  19:19:00      122.168      -70.187       68.406      150.282      220.088      172.493    22584.696    48438.661    29753.695        6.263        5.039      140.894      182.203        1.672      348.779       28.720      864.067
07/29/2014  19:20:00      214.306     -179.382      -21.987      106.177      163.362      102.932    11273.498    26687.049    10594.994        6.356        2.428      279.472      117.639        0.177      348.740       28.655      864.109
07/29/2014  19:21:00       40.079       36.735       81.801       84.979      109.438       81.820     7221.405    11976.659     6694.463        1.776        1.295       54.368       84.248        2.401      348.751       28.674      864.121
07/29/2014  19:22:00      124.168      -82.419       43.504      140.778      139.811       99.921    19818.442    19547.096     9984.178        3.672        2.467      149.032      108.621        0.531      348.782       28.727      864.099
07/29/2014  19:23:00      140.429     -163.391       15.904      117.359      143.286       72.884    13773.085    20530.873     5312.087        4.314        1.981      215.446       83.721        0.151      348.753       28.679      864.105
07/29/2014  19:24:00      114.660      -46.621       66.149      118.808      213.367       88.954    14115.304    45525.512     7912.763        4.361        3.378      123.776      128.406        1.076      348.633       28.470      864.092
07/29/2014  19:25:00      147.412     -150.768       19.325      129.584      161.011       98.691    16791.941    25924.449     9739.992        4.864        2.623      210.859      101.552        0.232      348.755       28.679      864.067
07/29/2014  19:26:00       56.205      -86.686       63.511      105.631      188.846       93.294    11157.911    35662.953     8703.725        3.510        2.776      103.313      120.020        1.350      348.705       28.594      864.074
07/29/2014  19:27:00      205.345     -214.137       20.835      157.649      225.970      117.309    24853.268    51062.626    13761.373        8.905        4.484      296.684      155.777        0.276      348.665       28.524      864.080
07/29/2014  19:28:00      232.234     -296.023       -7.430      141.252      181.406       95.124    19952.236    32908.196     9048.634       10.175        3.095      376.248       94.508        0.063      348.608       28.424      864.067
07/29/2014  19:29:00      234.194     -309.460      -23.608      156.984      162.474       81.462    24644.004    26397.949     6636.062       10.441        2.884      388.089       80.169        0.043      348.569       28.356      864.078
07/29/2014  19:30:00       44.234       12.392       83.284       98.835      186.892      101.793     9768.350    34928.594    10361.875        3.204        2.753       45.937      121.629        7.011      348.557       28.337      864.090
07/29/2014  19:31:00       52.414      -76.807       67.578       88.266      143.691       88.251     7790.882    20647.102     7788.154        2.471        1.811       92.987       97.616        1.102      348.566       28.355      864.133
07/29/2014  19:32:00      115.950     -124.998       14.410       88.077      170.771       85.945     7757.546    29162.644     7386.614        3.678        2.215      170.496       92.934        0.297      348.558       28.339      864.120
07/29/2014  19:33:00       25.631     -115.827       14.037      163.716      122.729       64.641    26802.930    15062.511     4178.500        3.015        2.302      118.629       76.385        0.415      348.521       28.276      864.140
07/29/2014  19:34:00      135.184      -91.552       24.975      162.135      224.709       88.835    26287.765    50494.201     7891.741        5.596        4.234      163.268      121.077        0.550      348.481       28.207      864.133
07/29/2014  19:35:00      174.447     -103.934       75.025      152.292      197.326      132.054    23192.935    38937.455    17438.178        6.320        3.978      203.062      133.802        0.434      348.503       28.245      864.102
07/29/2014  19:36:00      202.669     -174.057        5.532      139.298      190.717       94.124    19403.999    36372.948     8859.279        6.801        3.232      267.153      117.337        0.193      348.514       28.262      864.138
07/29/2014  19:37:00      252.018     -227.797      -31.357      159.348      175.725      107.011    25391.826    30879.418    11451.262        9.204        3.386      339.713      109.637        0.104      348.505       28.245      864.119
07/29/2014  19:38:00      232.428     -278.033      -25.487      147.994      179.238       94.598    21902.164    32126.115     8948.723        9.746        3.149      362.388      111.012        0.094      348.521       28.274      864.148
07/29/2014  19:39:00      159.520     -195.293       -7.646       89.102      124.929       61.294     7939.241    15607.298     3756.921        4.547        1.365      252.162       72.082        0.082      348.525       28.280      864.188
07/29/2014  19:40:00       66.896       57.978      101.639       87.692      106.115       72.924     7689.917    11260.317     5317.861        2.121        1.213       88.525       76.507        0.747      348.460       28.172      864.199
07/29/2014  19:41:00       79.639     -121.450        9.584       77.636      122.134       64.706     6027.371    14916.671     4186.920        2.315        1.257      145.232       74.723        0.265      348.494       28.228      864.197
07/29/2014  19:42:00      125.996     -183.686      -12.176       99.462      104.458       60.509     9892.630    10911.452     3661.323        3.711        1.223      222.746       57.659        0.067      348.487       28.217      864.213
07/29/2014  19:43:00      100.220     -131.201       11.089       79.278       67.944       48.390     6284.932     4616.376     2341.637        2.031        0.662      165.099       40.151        0.059      348.468       28.184      864.251
07/29/2014  19:44:00       10.798      -17.485       49.043       41.566       73.146       39.466     1727.746     5350.298     1557.561        0.573        0.432       20.551       37.401        3.312      348.461       28.173      864.269
07/29/2014  19:45:00       34.348        8.497       62.797       55.504       66.225       49.680     3080.665     4385.801     2468.135        0.756        0.497       35.383       49.294        1.941      348.369       28.014      864.283
07/29/2014  19:46:00       13.016       11.823       70.861       38.816       41.418       30.771     1506.713     1715.449      946.864        0.475        0.208       17.584       28.246        2.580      348.260       27.825      864.266
07/29/2014  19:47:00       15.745       48.978       74.373       39.868       63.364       44.735     1589.418     4015.014     2001.204        0.789        0.380       51.447       43.331        0.709      348.252       27.813      864.251
07/29/2014  19:48:00       11.058       36.827       84.972       55.579       97.824       48.451     3089.036     9569.490     2347.518        1.185        0.750       38.452       64.525        2.816      348.294       27.884      864.238
07/29/2014  19:49:00       65.533       -8.249       53.221       58.249       87.396       61.442     3392.892     7638.066     3775.123        1.100        0.740       66.051       62.743        0.902      348.407       28.081      864.232
07/29/2014  19:50:00       74.422      -17.422       29.004       76.543       80.115       54.762     5858.770     6418.352     2998.881        1.098        0.764       76.434       62.622        0.671      348.387       28.045      864.226
07/29/2014  19:51:00       43.164       76.002       91.492       45.934       52.209       34.947     2109.929     2725.780     1221.304        1.103        0.303       87.404       31.236        0.128      348.236       27.784      864.235
07/29/2014  19:52:00       66.073        9.880       39.322       44.616       63.528       37.496     1990.583     4035.821     1405.971        0.672        0.372       66.808       34.444        0.266      348.314       27.918      864.235
07/29/2014  19:53:00       46.977       23.646       49.401       44.735       48.001       29.359     2001.258     2304.108      861.940        0.519        0.258       52.593       27.013        0.264      348.163       27.660      864.243
07/29/2014  19:54:00       22.364        3.160       48.238       44.894       81.187       40.488     2015.515     6591.295     1639.288        0.654        0.512       22.587       50.936        5.086      348.132       27.604      864.230
07/29/2014  19:55:00       67.927       51.689       68.712       47.168       80.446       46.304     2224.861     6471.504     2144.056        1.142        0.542       85.358       52.303        0.375      348.329       27.945      864.228
07/29/2014  19:56:00       45.540      -30.323       38.846       48.893       86.867       41.602     2390.570     7545.880     1730.764        0.808        0.583       54.712       47.577        0.756      348.244       27.797      864.236
07/29/2014  19:57:00       47.370      -62.352        2.791       44.738       68.441       36.294     2001.529     4684.227     1317.253        0.707        0.400       78.305       15.202        0.038      348.398       28.065      864.244
07/29/2014  19:58:00       35.857     -119.781      -10.430       47.576       61.527       26.398     2263.517     3785.608      696.849        1.124        0.337      125.033       17.738        0.020      348.435       28.131      864.242
07/29/2014  19:59:00       75.465     -162.013       -5.599       53.305       52.981       29.741     2841.446     2806.968      884.544        1.925        0.327      178.727       15.761        0.008      348.465       28.181      864.278
07/29/2014  20:00:00       25.103      -60.859        8.159       42.192       46.825       25.077     1780.159     2192.602      628.854        0.450        0.230       65.832       17.446        0.070      348.444       28.147      864.320
07/29/2014  20:01:00       73.815      -46.317       24.833       33.519       47.526       24.507     1123.552     2258.722      600.582        0.610        0.199       87.143       24.056        0.076      348.466       28.184      864.351
07/29/2014  20:02:00       54.720      -51.444       19.975       45.971       50.639       36.301     2113.323     2564.307     1317.797        0.602        0.300       75.106       36.934        0.242      348.488       28.220      864.348
07/29/2014  20:03:00       33.726       19.956       48.085       29.735       41.583       32.996      884.156     1729.111     1088.732        0.377        0.185       39.188       26.373        0.453      348.168       27.667      864.334
07/29/2014  20:04:00      -10.687        9.743       30.822       13.404       23.936       23.734      179.669      572.912      563.315        0.124        0.066       14.462       18.686        1.670      348.057       27.475      864.363
07/29/2014  20:05:00       28.756       -7.857        3.050       16.329       14.679        9.779      266.640      215.472       95.619        0.074        0.029       29.810        7.210        0.059      348.077       27.511      864.390
07/29/2014  20:06:00       44.894       14.668        7.222       15.876       16.608       12.820      252.051      275.841      164.345        0.149        0.035       47.230        8.181        0.030      348.131       27.603      864.396
07/29/2014  20:07:00       46.056       33.979       25.798       28.539       24.253       22.736      814.475      588.199      516.936        0.293        0.096       57.234       18.894        0.109      347.978       27.340      864.379
07/29/2014  20:08:00        1.087       11.427       44.531       20.760       43.218       21.901      430.989     1867.803      479.668        0.245        0.139       11.478       23.993        4.369      348.017       27.405      864.365
07/29/2014  20:09:00       -6.894      -37.040       -5.479       21.956       28.060       14.973      482.050      787.376      224.200        0.147        0.075       37.676        8.662        0.053      347.990       27.359      864.402
07/29/2014  20:10:00      -90.294       25.215      -11.902       39.207       17.088       16.964     1537.193      292.010      287.787        0.552        0.106       93.749       15.604        0.028      348.117       27.579      864.435
07/29/2014  20:11:00      -64.728       14.257       -5.692       38.136       18.941       14.730     1454.338      358.779      216.971        0.323        0.102       66.280       16.280        0.060      348.106       27.560      864.453
07/29/2014  20:12:00       -5.085       49.741        3.015       25.926       15.841       16.798      672.143      250.924      282.175        0.186        0.060       50.001       16.288        0.106      348.205       27.731      864.455
07/29/2014  20:13:00       36.704       67.295        3.297       14.267       18.073       17.778      203.550      326.625      316.049        0.337        0.042       76.654       15.876        0.043      348.205       27.730      864.440
07/29/2014  20:14:00      -15.665      112.069      -14.634       21.553       19.672       10.433      464.519      387.006      108.857        0.699        0.048      113.158        8.730        0.006      348.235       27.782      864.444
07/29/2014  20:15:00      -56.856       50.584      -13.289       20.761       41.240       19.011      431.016     1700.767      361.407        0.423        0.125       76.100       22.208        0.085      348.159       27.652      864.483
07/29/2014  20:16:00      -60.956       22.444       -0.510       23.759       21.111       16.544      564.498      445.691      273.706        0.275        0.064       64.957       10.982        0.029      348.124       27.591      864.518
07/29/2014  20:17:00      -41.404       75.028       -0.849       26.027       52.205       17.187      677.386     2725.379      295.389        0.552        0.185       85.694       14.601        0.029      348.224       27.765      864.532
07/29/2014  20:18:00       21.460       71.348       -1.585       22.605       21.384       15.870      510.993      457.258      251.842        0.339        0.061       74.506       11.382        0.023      348.360       28.000      864.544
07/29/2014  20:19:00       32.598       59.324       -3.929       24.260       39.105       16.700      588.535     1529.162      278.901        0.350        0.120       67.690       18.512        0.075      348.304       27.903      864.558
07/29/2014  20:20:00       19.712      112.523      -15.961       47.459       47.808       29.886     2252.365     2285.582      893.180        0.937        0.272      114.237       25.119        0.048      348.302       27.898      864.592
07/29/2014  20:21:00      -41.327      177.220      -27.995       39.608       42.988       19.840     1568.801     1847.973      393.611        1.885        0.191      181.975       15.623        0.007      348.309       27.909      864.646
07/29/2014  20:22:00       22.309      169.636      -32.503       40.368       37.767       19.166     1629.562     1426.321      367.340        1.688        0.171      171.096       17.235        0.010      348.423       28.108      864.686
07/29/2014  20:23:00       -6.090      156.167      -30.197       42.284       49.067       20.308     1787.923     2407.587      412.401        1.497        0.230      156.285       21.377        0.019      348.303       27.900      864.727
07/29/2014  20:24:00       -8.931      192.932      -24.308       66.192       51.230       33.734     4381.439     2624.550     1137.982        2.302        0.407      193.139       31.388        0.026      348.201       27.721      864.781
07/29/2014  20:25:00      -16.852      207.235      -30.084       42.394       33.035       18.038     1797.288     1091.287      325.373        2.367        0.161      207.919       13.756        0.004      348.337       27.958      864.807
07/29/2014  20:26:00      -11.007      163.138      -21.245       37.751       26.300       17.538     1425.154      691.693      307.585        1.480        0.121      163.508       11.622        0.005      348.390       28.050      864.813
07/29/2014  20:27:00      -20.072      132.107      -16.850       19.063       28.056       17.946      363.390      787.131      322.044        0.981        0.074      133.624       15.867        0.014      348.355       27.990      864.823
07/29/2014  20:28:00      -23.642      155.777      -22.150       42.528       32.438       21.064     1808.611     1052.242      443.688        1.431        0.165      157.561       17.878        0.013      348.294       27.884      864.840
07/29/2014  20:29:00       42.053      120.270      -17.111       29.863       61.155       26.609      891.812     3739.994      708.032        1.093        0.267      127.410       29.809        0.055      348.276       27.854      864.829
07/29/2014  20:30:00      -56.697       76.033      -18.626       47.291       41.910       18.901     2236.424     1756.439      357.263        0.685        0.218       94.844       24.027        0.064      348.219       27.756      864.854
07/29/2014  20:31:00      -42.559       64.699       -5.969       40.489       33.052       21.680     1639.377     1092.417      470.028        0.462        0.160       77.442       20.309        0.069      348.224       27.764      864.876
07/29/2014  20:32:00      -10.157      125.626      -14.137       27.513       51.209       19.743      756.961     2622.339      389.798        0.993        0.188      126.036       23.556        0.035      348.292       27.883      864.860
07/29/2014  20:33:00      -24.163      142.814      -25.670       23.141       27.353       13.213      535.486      748.189      174.570        1.155        0.073      144.844        7.050        0.002      348.339       27.964      864.877
07/29/2014  20:34:00      -61.527       43.133      -12.231       39.708       43.711       19.688     1576.717     1910.622      387.620        0.483        0.194       75.140       26.856        0.128      348.156       27.646      864.896
07/29/2014  20:35:00      -99.753      114.170      -22.317       49.744       50.743       27.650     2474.495     2574.838      764.545        1.465        0.291      151.609       26.317        0.030      348.308       27.908      864.917
07/29/2014  20:36:00      -68.528       12.526       -3.025       43.239       39.644       17.198     1869.585     1571.635      295.774        0.430        0.187       69.663        8.312        0.014      348.249       27.807      864.923
07/29/2014  20:37:00     -127.108       80.460      -23.552       59.978       49.938       32.839     3597.361     2493.764     1078.384        1.518        0.358      150.434       40.698        0.073      348.438       28.132      864.927
07/29/2014  20:38:00      -92.756       47.975      -15.297       30.571       36.083       24.169      934.575     1302.008      584.153        0.698        0.141      104.428       14.759        0.020      348.435       28.129      864.941
07/29/2014  20:39:00      -95.904      -31.276       -4.178       84.979       67.219       35.797     7221.452     4518.430     1281.445        1.160        0.651      100.875       20.918        0.043      348.432       28.123      864.932
07/29/2014  20:40:00      -90.326      -25.712        4.100       97.490       60.489       41.178     9504.274     3658.896     1695.655        1.184        0.743       93.915       41.190        0.192      348.378       28.028      864.920
07/29/2014  20:41:00     -206.722      -45.584      -22.814       95.277       86.068       49.842     9077.735     7407.654     2484.262        3.215        0.948      211.689       50.302        0.056      348.514       28.262      864.926
07/29/2014  20:42:00      -89.201       31.264        0.165       68.280       93.870       43.760     4662.095     8811.518     1914.932        1.216        0.769       94.521       44.784        0.224      348.432       28.122      864.929
07/29/2014  20:43:00      -83.840      -20.572       -6.499       75.504       49.133       39.507     5700.850     2414.083     1560.780        0.858        0.484       86.327       33.131        0.147      348.343       27.971      864.929
07/29/2014  20:44:00     -274.623      -45.738      -20.845       84.534       75.862       45.678     7145.939     5754.984     2086.449        4.646        0.749      278.405       45.903        0.027      348.488       28.216      864.930
07/29/2014  20:45:00     -300.961      -35.229      -21.686      115.412       90.653       50.481    13319.877     8217.947     2548.374        5.818        1.204      303.016       59.100        0.038      348.475       28.194      864.942
07/29/2014  20:46:00     -273.276      -66.278       -9.039      103.218       95.311       47.657    10653.945     9084.212     2271.220        5.058        1.100      281.198       56.321        0.040      348.483       28.208      864.932
07/29/2014  20:47:00     -250.834      -57.594      -17.578       99.255       65.501       40.381     9851.537     4290.362     1630.604        4.115        0.789      257.361       44.156        0.029      348.500       28.240      864.930
07/29/2014  20:48:00     -239.535       -7.441      -30.476       70.979       85.504       46.807     5038.040     7310.888     2190.929        3.645        0.727      239.650       34.470        0.021      348.488       28.216      864.930
07/29/2014  20:49:00     -205.858      -76.308      -17.307      109.179       69.712       45.116    11920.141     4859.761     2035.459        3.365        0.941      219.546       52.408        0.057      348.441       28.137      864.944
07/29/2014  20:50:00     -287.515      -80.245       -4.008      116.044       87.596       64.466    13466.273     7673.015     4155.871        5.720        1.265      298.503       60.888        0.042      348.492       28.223      864.956
07/29/2014  20:51:00     -214.914      -62.032       -2.884      161.771      123.574       70.231    26169.735    15270.556     4932.456        4.820        2.319      223.687       55.877        0.062      348.475       28.194      864.953
07/29/2014  20:52:00     -297.846      -80.654       12.277      152.801      106.612       71.272    23348.022    11366.012     5079.644        6.757        1.990      308.573       72.956        0.056      348.564       28.348      864.965
07/29/2014  20:53:00     -363.189      -22.834      -15.809      150.668      114.964       71.086    22700.729    13216.747     5053.239        8.682        2.049      363.906       78.248        0.046      348.685       28.559      864.975
07/29/2014  20:54:00     -218.899      -60.001       -0.247      133.115       96.628       50.974    17719.624     9336.980     2598.356        4.058        1.483      226.973       60.268        0.071      348.630       28.463      864.983
07/29/2014  20:55:00     -305.575     -129.670      -11.646      128.092      105.527       70.858    16407.497    11135.963     5020.892        7.144        1.628      331.949       72.288        0.047      348.726       28.630      864.996
07/29/2014  20:56:00     -265.473      -64.058      -14.019      121.412       88.607       56.857    14740.865     7851.233     3232.724        5.030        1.291      273.092       54.362        0.040      348.709       28.600      865.009
07/29/2014  20:57:00     -311.440      -82.905       -9.648      139.602      127.039       67.078    19488.610    16138.934     4499.476        7.204        2.006      322.285       56.793        0.031      348.699       28.583      865.018
07/29/2014  20:58:00     -371.357      -80.006      -29.865      198.679      136.532       68.351    39473.477    18640.971     4671.904       10.398        3.139      379.877       88.693        0.055      348.755       28.679      865.024
07/29/2014  20:59:00     -289.058      -76.303      -10.519      171.873      133.655       69.402    29540.477    17863.734     4816.619        7.084        2.611      298.960       77.914        0.068      348.686       28.559      865.044
07/29/2014  21:00:00     -248.581      -25.828       -6.807      107.331       78.146       47.133    11519.968     6106.866     2221.506        4.117        0.992      249.919       51.464        0.042      348.616       28.439      865.070
07/29/2014  21:01:00     -298.280      -52.572       -7.647      104.827       82.774       60.028    10988.711     6851.492     3603.419        5.661        1.072      302.877       56.220        0.034      348.627       28.457      865.091
07/29/2014  21:02:00     -350.926       10.164      -22.813      119.943      112.930       53.995    14386.439    12753.145     2915.443        7.691        1.503      351.073       49.315        0.020      348.660       28.514      865.074
07/29/2014  21:03:00     -306.930      -58.676      -14.895      125.619       86.758       55.611    15780.157     7526.986     3092.638        6.213        1.320      312.489       62.972        0.041      348.604       28.417      865.091
07/29/2014  21:04:00     -225.279      -61.928        5.629      130.586      108.626       58.336    17052.739    11799.517     3403.032        4.343        1.613      233.635       69.234        0.088      348.578       28.372      865.098
07/29/2014  21:05:00     -230.629      -61.220      -15.248      107.546       81.985       49.554    11566.039     6721.502     2455.558        3.895        1.037      238.616       56.241        0.056      348.606       28.422      865.123
07/29/2014  21:06:00     -214.186      -58.257        0.898      122.787       85.882       53.384    15076.529     7375.771     2849.827        3.728        1.265      221.968       59.720        0.072      348.558       28.338      865.135
07/29/2014  21:07:00     -201.627      -38.889       -3.914       81.283       75.598       47.156     6606.876     5714.996     2223.705        2.836        0.727      205.343       43.017        0.044      348.527       28.285      865.139
07/29/2014  21:08:00     -207.368      -58.313       -8.773       72.012       77.760       36.267     5185.689     6046.634     1315.318        2.951        0.627      215.411       35.202        0.027      348.496       28.232      865.137
07/29/2014  21:09:00     -235.376      -31.362      -19.182       96.061       47.214       38.663     9227.802     2229.140     1494.802        3.485        0.648      237.456       39.957        0.028      348.494       28.229      865.140
07/29/2014  21:10:00     -145.750      -70.144       -2.191       84.381       78.719       53.150     7120.093     6196.701     2824.903        2.115        0.807      161.751       51.184        0.100      348.428       28.114      865.154
07/29/2014  21:11:00     -187.713      -10.501       -9.981       49.662       57.467       31.060     2466.289     3302.420      964.741        2.109        0.337      188.007       21.458        0.013      348.429       28.117      865.166
07/29/2014  21:12:00     -195.903      -53.056       -2.296       93.542       65.852       45.999     8750.161     4336.426     2115.940        2.820        0.760      202.960       51.330        0.064      348.387       28.041      865.172
07/29/2014  21:13:00     -187.545      -56.341       -3.685       78.145       72.184       42.454     6106.670     5210.486     1802.319        2.574        0.656      195.825       40.315        0.042      348.356       27.989      865.187
07/29/2014  21:14:00     -191.120      -42.104       -2.011       80.380       59.403       41.920     6460.998     3528.697     1757.253        2.502        0.587      195.702       41.300        0.045      348.297       27.889      865.202
07/29/2014  21:15:00     -224.339      -39.079        2.663      112.825       66.365       49.977    12729.438     4404.360     2497.727        3.574        0.982      227.717       62.791        0.076      348.322       27.932      865.215
07/29/2014  21:16:00     -233.509      -52.889       -4.251      110.809       72.885       46.638    12278.637     5312.199     2175.080        3.855        0.988      239.424       48.482        0.041      348.359       27.996      865.222
07/29/2014  21:17:00     -128.985      -68.588       -5.867       74.245       64.438       45.286     5512.266     4152.295     2050.864        1.654        0.586      146.087       37.415        0.066      348.261       27.825      865.222
07/29/2014  21:18:00     -216.251     -117.945        1.908       98.286       80.403       50.931     9660.156     6464.626     2593.965        3.970        0.936      246.324       47.262        0.037      348.408       28.078      865.227
07/29/2014  21:19:00     -160.511      -59.308       13.295      120.359       82.133       43.954    14486.195     6745.888     1931.996        2.631        1.158      171.118       54.592        0.102      348.341       27.964      865.241
07/29/2014  21:20:00     -142.501      -48.595       -6.214       77.795       54.762       37.453     6052.016     2998.849     1402.724        1.658        0.523      150.559       37.535        0.062      348.338       27.960      865.248
07/29/2014  21:21:00     -184.353      -64.255      -20.995       69.084       59.742       29.307     4772.634     3569.051      858.885        2.388        0.460      195.230       34.969        0.032      348.365       28.006      865.264
07/29/2014  21:22:00     -223.211     -117.026        4.397       86.485       80.300       49.704     7479.580     6448.099     2470.480        3.996        0.820      252.029       46.898        0.035      348.381       28.032      865.264
07/29/2014  21:23:00     -267.238      -53.805      -12.188       84.106       76.667       46.967     7073.853     5877.889     2205.906        4.481        0.758      272.601       52.316        0.037      348.366       28.004      865.270
07/29/2014  21:24:00     -187.453      -66.056        7.112       75.500       82.718       42.285     5700.315     6842.350     1787.993        2.694        0.717      198.752       39.325        0.039      348.333       27.949      865.276
07/29/2014  21:25:00     -194.649      -46.844      -14.241       71.449       62.171       33.486     5104.974     3865.197     1121.310        2.519        0.505      200.207       32.395        0.026      348.306       27.903      865.276
07/29/2014  21:26:00     -252.478       -0.868       -5.360      111.873       78.876       52.979    12515.659     6221.349     2806.784        4.265        1.077      252.479       59.955        0.056      348.320       27.926      865.282
07/29/2014  21:27:00     -223.793      -35.904       -6.175       84.023       82.179       43.500     7059.913     6753.371     1892.219        3.355        0.785      226.655       35.597        0.025      348.333       27.950      865.290
07/29/2014  21:28:00     -256.623      -67.415       -3.404      139.689       90.745       50.444    19512.897     8234.670     2544.638        5.035        1.515      265.330       60.825        0.053      348.283       27.862      865.309
07/29/2014  21:29:00     -229.332      -52.425        0.501       90.098       70.889       43.638     8117.636     5025.241     1904.258        3.519        0.752      235.248       33.333        0.020      348.278       27.853      865.319
07/29/2014  21:30:00     -225.046      -39.048      -12.284       86.750       62.761       42.974     7525.536     3938.996     1846.803        3.281        0.666      228.409       50.672        0.049      348.246       27.798      865.324
07/29/2014  21:31:00     -256.201      -20.574      -17.724       76.191       55.953       37.401     5805.111     3130.743     1398.832        3.835        0.517      257.025       36.721        0.020      348.240       27.786      865.326
07/29/2014  21:32:00     -212.656      -61.877       -7.920       81.428       64.668       46.084     6630.529     4181.999     2123.774        3.102        0.647      221.475       46.610        0.044      348.202       27.722      865.334
07/29/2014  21:33:00     -273.989      -80.967       -3.787       91.025       66.645       36.961     8285.522     4441.502     1366.143        4.786        0.705      285.702       30.537        0.011      348.223       27.757      865.339
07/29/2014  21:34:00     -240.264      -77.741       -1.448       77.754       70.327       41.839     6045.652     4945.933     1750.483        3.825        0.637      252.528       41.422        0.027      348.193       27.707      865.340
07/29/2014  21:35:00     -258.942      -57.539       -3.951      101.879       77.030       54.349    10379.371     5933.639     2953.797        4.482        0.963      265.257       57.549        0.047      348.233       27.775      865.345
07/29/2014  21:36:00     -267.537      -40.340      -16.884       79.062       72.482       44.122     6250.878     5253.712     1946.776        4.347        0.673      270.561       38.302        0.020      348.211       27.738      865.346
07/29/2014  21:37:00     -238.342      -73.007       -1.551      111.620       75.416       44.889    12459.029     5687.583     2015.056        4.115        1.008      249.272       54.362        0.048      348.196       27.712      865.347
07/29/2014  21:38:00     -246.949      -69.335       -1.942      106.047       84.768       43.862    11245.940     7185.652     1923.874        4.307        1.018      256.498       50.434        0.039      348.198       27.716      865.364
07/29/2014  21:39:00     -273.962      -73.441      -14.789       88.987       71.591       45.559     7918.763     5125.243     2075.609        4.789        0.756      283.635       46.665        0.027      348.160       27.650      865.368
07/29/2014  21:40:00     -274.286      -37.401       -9.632      117.876       90.145       55.862    13894.680     8126.056     3120.577        5.093        1.257      276.825       63.683        0.053      348.155       27.641      865.379
07/29/2014  21:41:00     -261.475      -42.355      -10.871      107.358       83.316       59.374    11525.727     6941.544     3525.248        4.613        1.100      264.883       54.551        0.042      348.151       27.634      865.374
07/29/2014  21:42:00     -289.726        7.987      -14.507      107.521       89.594       49.617    11560.735     8027.049     2461.802        5.313        1.102      289.836       48.927        0.028      348.155       27.641      865.379
07/29/2014  21:43:00     -241.816      -23.514       -9.996      138.503       87.629       53.258    19183.122     7678.777     2836.400        4.441        1.485      242.956       60.189        0.061      348.168       27.664      865.382
07/29/2014  21:44:00     -319.058      -48.884      -18.665      126.663       83.269       55.208    16043.641     6933.679     3047.873        6.528        1.301      322.781       56.746        0.031      348.187       27.695      865.392
07/29/2014  21:45:00     -247.405      -51.091       -6.803      136.998       76.229       53.688    18768.577     5810.868     2882.361        4.566        1.373      252.625       64.199        0.065      348.122       27.585      865.394
07/29/2014  21:46:00     -312.306       -2.279      -20.447      118.330      100.313       51.559    14001.893    10062.684     2658.368        6.234        1.336      312.315       45.664        0.021      348.178       27.681      865.391
07/29/2014  21:47:00     -270.262      -24.417      -13.877      131.145       97.568       52.681    17199.058     9519.542     2775.250        5.166        1.475      271.363       64.897        0.057      348.135       27.608      865.389
07/29/2014  21:48:00     -337.264       -0.523      -24.996      139.496      113.024       50.360    19459.109    12774.362     2536.113        7.456        1.738      337.265       57.501        0.029      348.177       27.681      865.395
07/29/2014  21:49:00     -266.730      -78.296      -17.624      138.024       81.260       56.754    19050.590     6603.237     3221.034        5.322        1.444      277.984       63.640        0.052      348.136       27.609      865.396
07/29/2014  21:50:00     -298.344      -10.675      -10.418      138.369       96.345       56.847    19145.907     9282.432     3231.564        6.044        1.583      298.535       62.115        0.043      348.148       27.629      865.398
07/29/2014  21:51:00     -282.898      -76.133      -12.198       98.259       79.675       47.119     9654.742     6348.132     2220.168        5.210        0.911      292.964       49.404        0.028      348.117       27.573      865.392
07/29/2014  21:52:00     -475.633      -84.326      -31.220      121.619       81.650       59.078    14791.086     6666.691     3490.229       12.963        1.247      483.051       54.010        0.013      348.183       27.689      865.390
07/29/2014  21:53:00     -420.950       42.732      -36.523      121.645       97.133       49.798    14797.536     9434.893     2479.834       10.353        1.336      423.113       52.276        0.015      348.159       27.649      865.399
07/29/2014  21:54:00     -318.754      -76.131      -21.634      115.670      113.675       60.737    13379.618    12921.982     3688.931        6.892        1.500      327.719       51.750        0.025      348.110       27.563      865.406
07/29/2014  21:55:00     -246.070      -38.060      -11.751      117.025       74.080       52.137    13694.891     5487.879     2718.288        4.201        1.095      248.996       50.301        0.041      348.040       27.441      865.418
07/29/2014  21:56:00     -189.163       16.907        8.003       91.930       71.521       54.602     8451.094     5115.218     2981.411        2.634        0.827      189.917       54.500        0.082      348.063       27.483      865.418
07/29/2014  21:57:00     -249.861      -33.719      -10.579      134.285       77.159       51.148    18032.451     5953.482     2616.067        4.514        1.330      252.126       57.208        0.051      348.063       27.483      865.414
07/29/2014  21:58:00     -131.559      -19.954       16.281      161.045       71.868       47.593    25935.500     5165.051     2265.115        2.566        1.668      133.063       74.755        0.316      347.947       27.283      865.421
07/29/2014  21:59:00     -245.586      -33.476      -12.702      131.415       80.335       57.198    17269.939     6453.727     3271.584        4.429        1.350      247.857       54.198        0.048      348.030       27.427      865.426
07/29/2014  22:00:00     -261.926      -88.223      -14.346      163.518      109.082       59.914    26738.175    11898.981     3589.645        5.940        2.111      276.385       63.372        0.053      348.046       27.453      865.435
07/29/2014  22:01:00     -202.942     -100.568      -10.526      140.953      116.114       68.664    19867.652    13482.383     4714.720        4.473        1.903      226.493       70.044        0.096      348.053       27.464      865.437
07/29/2014  22:02:00     -219.737      -31.356       -5.985      126.253       91.719       59.720    15939.747     8412.398     3566.469        3.861        1.396      221.963       63.211        0.081      348.064       27.483      865.446
07/29/2014  22:03:00     -266.354      -15.816       -2.557      176.958      110.212       79.967    31313.969    12146.687     6394.653        6.052        2.493      266.824       85.366        0.102      348.054       27.466      865.433
07/29/2014  22:04:00     -331.978     -132.603      -16.119      196.292      164.486       79.090    38530.556    27055.723     6255.258        9.993        3.592      357.481       82.185        0.053      348.083       27.516      865.440
07/29/2014  22:05:00     -275.173      -74.206      -10.268      178.684      174.959       72.301    31927.906    30610.742     5227.420        7.454        3.388      285.003       86.491        0.092      348.035       27.435      865.437
07/29/2014  22:06:00     -380.590     -133.099       -9.396      205.774      118.247       69.831    42343.130    13982.430     4876.419       11.191        3.060      403.192       81.297        0.041      348.060       27.476      865.443
07/29/2014  22:07:00     -179.801     -104.280        5.445      110.143      110.332       55.240    12131.510    12173.252     3051.415        3.529        1.368      207.852       56.831        0.075      348.022       27.410      865.451
07/29/2014  22:08:00     -241.676     -116.368      -11.808      140.990      123.749       64.398    19878.173    15313.854     4147.077        5.571        1.967      268.233       63.686        0.056      348.028       27.421      865.442
07/29/2014  22:09:00     -197.050      -94.425       15.904      135.618      134.254       72.063    18392.288    18024.026     5193.053        4.480        2.080      218.506       77.113        0.125      347.979       27.339      865.429
07/29/2014  22:10:00     -175.248      -52.542       -2.296      102.596       59.334       35.811    10525.851     3520.565     1282.461        2.440        0.766      182.955       30.035        0.027      347.987       27.352      865.440
07/29/2014  22:11:00     -231.591      -28.333      -14.393      113.442       94.421       46.358    12869.005     8915.309     2149.084        3.928        1.197      233.318       32.623        0.020      347.983       27.345      865.431
07/29/2014  22:12:00     -253.893      -60.591      -14.163      131.115       85.783       50.176    17191.180     7358.804     2517.606        4.770        1.353      261.023       63.859        0.060      347.951       27.289      865.426
07/29/2014  22:13:00     -189.585      -19.648       -1.227      107.428       80.955       47.662    11540.814     6553.645     2271.682        2.834        1.018      190.601       45.602        0.057      347.875       27.160      865.428
07/29/2014  22:14:00     -244.272      -56.889      -14.853       97.008       60.826       35.261     9410.455     3699.750     1243.328        3.874        0.718      250.809       42.512        0.029      347.913       27.223      865.435
07/29/2014  22:15:00     -200.800      -32.281       -6.333       98.788       89.040       44.261     9759.075     7928.157     1959.025        3.052        0.982      203.379       45.328        0.050      347.881       27.167      865.426
07/29/2014  22:16:00     -195.468      -41.410        5.408      108.062       99.345       47.226    11677.324     9869.376     2230.287        3.186        1.189      199.807       49.600        0.062      347.846       27.109      865.413
07/29/2014  22:17:00     -331.133     -137.959      -13.011      124.898       89.849       56.331    15599.556     8072.819     3173.188        7.784        1.342      358.723       57.372        0.026      347.918       27.233      865.400
07/29/2014  22:18:00     -185.367      -54.035       -7.572      129.216       78.611       53.847    16696.659     6179.652     2899.452        3.155        1.289      193.082       59.961        0.096      347.831       27.082      865.395
07/29/2014  22:19:00     -235.476      -63.290        4.624      117.263      100.293       61.495    13750.596    10058.685     3781.686        4.353        1.380      243.833       61.271        0.063      347.823       27.068      865.406
07/29/2014  22:20:00     -293.955      -92.974        1.578      142.973      121.660       53.586    20441.404    14801.180     2871.426        6.658        1.906      308.308       51.181        0.028      347.845       27.104      865.426
07/29/2014  22:21:00     -272.314      -62.937      -26.726       78.386       89.443       53.506     6144.327     8000.139     2862.898        4.792        0.850      279.492       45.675        0.027      347.825       27.068      865.431
07/29/2014  22:22:00     -201.283      -50.777       -0.098      117.698       85.400       54.884    13852.719     7293.096     3012.231        3.362        1.208      207.589       54.630        0.069      347.787       27.005      865.419
07/29/2014  22:23:00     -200.035      -84.764        1.190      156.358      115.256       64.967    24447.690    13284.005     4220.680        4.457        2.098      217.253       62.493        0.083      347.800       27.029      865.445
07/29/2014  22:24:00     -227.837      -45.517       -6.105      110.564      118.236       51.972    12224.508    13979.685     2701.116        4.146        1.445      232.339       54.774        0.056      347.768       26.972      865.474
07/29/2014  22:25:00     -357.674       14.904      -31.137      136.000       99.146       57.092    18495.923     9829.845     3259.550        8.035        1.579      357.984       53.788        0.023      347.844       27.103      865.464
07/29/2014  22:26:00     -154.119      -39.508       -2.822      128.150       81.294       48.318    16422.494     6608.787     2334.587        2.534        1.268      159.102       58.130        0.133      347.791       27.014      865.474
07/29/2014  22:27:00     -153.038      -77.127       -6.250       97.437       46.377       46.933     9493.908     2150.831     2202.695        2.163        0.692      171.375       37.172        0.047      347.781       26.998      865.497
07/29/2014  22:28:00     -192.010      -55.590       -0.608      110.420      109.825       54.754    12192.620    12061.628     2998.040        3.360        1.363      199.895       53.972        0.073      347.783       26.999      865.520
07/29/2014  22:29:00     -143.834      -80.055       -6.740       78.589       65.905       37.033     6176.304     4343.420     1371.446        1.951        0.595      164.611       41.256        0.063      347.770       26.978      865.519
07/29/2014  22:30:00     -141.890      -15.731       -3.242       88.087       81.274       39.013     7759.254     6605.502     1522.035        1.814        0.794      142.759       42.833        0.090      347.729       26.906      865.509
07/29/2014  22:31:00     -100.284      -44.233       -1.835      101.427       60.392       44.193    10287.396     3647.167     1953.057        1.395        0.794      109.606       51.061        0.217      347.636       26.748      865.521
07/29/2014  22:32:00     -272.787       -2.069      -19.591       95.273       91.122       54.791     9076.861     8303.206     3002.089        4.759        1.019      272.795       55.578        0.042      347.809       27.042      865.529
07/29/2014  22:33:00     -230.515      -90.075      -14.595      109.973       92.580       54.403    12094.097     8571.103     2959.735        4.254        1.181      247.488       48.659        0.039      347.800       27.027      865.557
07/29/2014  22:34:00     -248.021      -25.872      -26.136      106.738       68.165       39.401    11392.917     4646.447     1552.404        4.023        0.880      249.366       48.848        0.038      347.746       26.935      865.576
07/29/2014  22:35:00     -240.400      -10.704      -18.929       77.852       97.327       40.315     6060.980     9472.537     1625.323        3.771        0.858      240.638       33.507        0.019      347.752       26.946      865.596
07/29/2014  22:36:00     -193.865      -74.896      -10.831       92.102       95.767       55.680     8482.861     9171.233     3100.313        3.203        1.038      207.829       54.354        0.068      347.795       27.019      865.590
07/29/2014  22:37:00      -82.579      -16.459        1.618       53.331       39.269       26.557     2844.158     1542.025      705.259        0.609        0.255       84.203       28.776        0.117      347.750       26.946      865.596
07/29/2014  22:38:00      -87.386      -22.079       -1.873       43.503       40.147       26.836     1892.482     1611.818      720.189        0.618        0.211       90.132       24.560        0.074      347.719       26.890      865.638
07/29/2014  22:39:00     -195.696      -15.475      -10.580      109.620       66.339       43.641    12016.450     4400.860     1904.500        2.848        0.916      196.307       50.449        0.066      347.728       26.905      865.662
07/29/2014  22:40:00     -109.955      -30.625       -3.935       92.965       56.884       35.734     8642.498     3235.774     1276.916        1.310        0.658      114.140       45.713        0.160      347.700       26.858      865.655
07/29/2014  22:41:00     -137.103      -66.758       -3.652       65.133       43.924       30.937     4242.319     1929.335      957.103        1.520        0.356      152.492       30.756        0.041      347.686       26.835      865.659
07/29/2014  22:42:00     -119.506       19.740       -5.020       79.655      108.746       37.997     6344.875    11825.742     1443.745        1.715        0.981      121.125       36.641        0.092      347.711       26.876      865.671
07/29/2014  22:43:00      -77.575       72.054      -14.546       52.539       66.347       28.794     2760.336     4401.896      829.118        0.970        0.400      105.876       25.241        0.057      347.707       26.872      865.694
07/29/2014  22:44:00      -61.584      116.753       -6.845       66.431       60.612       35.747     4413.050     3673.814     1277.827        1.342        0.468      132.000       40.375        0.094      347.706       26.868      865.705
07/29/2014  22:45:00      -12.270      150.229       -9.719       41.485       59.128       30.655     1720.999     3496.071      939.741        1.448        0.308      150.729       21.850        0.021      347.644       26.763      865.713
07/29/2014  22:46:00      -70.453       70.038       -9.944       47.460       66.865       35.312     2252.496     4470.953     1246.903        0.897        0.399       99.342       29.677        0.089      347.618       26.718      865.726
07/29/2014  22:47:00      -86.131       25.135       -7.793       52.305       43.935       25.873     2735.800     1930.269      669.419        0.672        0.267       89.724       11.019        0.015      347.690       26.842      865.759
07/29/2014  22:48:00      -57.823       10.576       -1.906       45.849       47.145       21.760     2102.118     2222.657      473.506        0.413        0.240       58.782       23.549        0.160      347.640       26.754      865.779
07/29/2014  22:49:00     -165.721      -42.790        2.169       49.488       55.878       30.521     2449.096     3122.383      931.536        1.790        0.325      171.156       25.087        0.021      347.597       26.682      865.794
07/29/2014  22:50:00      -55.326      -25.590       -7.057       60.906       31.452       19.423     3709.563      989.238      377.246        0.442        0.254       60.958        5.687        0.009      347.559       26.617      865.800
07/29/2014  22:51:00       77.095       46.018        5.392       27.973       31.502       23.827      782.490      992.388      567.737        0.522        0.117       89.785       11.416        0.016      347.626       26.731      865.763
07/29/2014  22:52:00       75.612       61.972       11.581       41.218       42.623       31.279     1698.957     1816.722      978.383        0.709        0.225       97.764       19.212        0.039      347.655       26.781      865.754
07/29/2014  22:53:00      -13.887       79.246      -19.649       46.126       40.763       16.852     2127.624     1661.655      283.978        0.547        0.204       80.453       16.132        0.040      347.983       27.349      865.759
07/29/2014  22:54:00        3.547       54.723       -0.882       33.466       26.136       17.398     1119.948      683.087      302.703        0.256        0.105       54.838       19.031        0.120      347.945       27.282      865.762
07/29/2014  22:55:00      -22.127       57.140        6.711       50.732       32.682       27.984     2573.698     1068.081      783.080        0.411        0.221       61.275       24.258        0.157      347.808       27.045      865.751
07/29/2014  22:56:00       51.462       39.964       -5.663       43.514       35.164       20.063     1893.510     1236.477      402.542        0.390        0.177       65.157       14.127        0.047      347.986       27.353      865.777
07/29/2014  22:57:00       67.225       13.641       27.521       47.731       20.553       24.417     2278.224      422.440      596.207        0.438        0.165       68.595       22.640        0.109      347.809       27.047      865.770
07/29/2014  22:58:00       89.020       49.804       -5.688       50.321       32.434       25.580     2532.177     1051.992      654.328        0.734        0.212      102.005       15.812        0.024      347.810       27.051      865.782
07/29/2014  22:59:00       64.811       25.356       13.957       52.965       34.422       18.832     2805.316     1184.868      354.655        0.469        0.217       69.594       17.680        0.065      347.724       26.902      865.798
07/29/2014  23:00:00       69.767       53.050       -2.938       45.463       41.703       30.831     2066.927     1739.158      950.540        0.622        0.238       87.645       16.337        0.035      347.513       26.537      865.807
07/29/2014  23:01:00      114.482       97.041       12.901       55.663       43.069       42.277     3098.418     1854.940     1787.343        1.471        0.337      150.077       21.690        0.021      347.437       26.405      865.813
07/29/2014  23:02:00      138.801       76.567       22.098       50.577       39.358       44.084     2558.083     1549.043     1943.413        1.583        0.303      158.519       25.456        0.026      347.526       26.559      865.811
07/29/2014  23:03:00      130.696       97.750       -1.720       58.511       50.129       47.749     3423.513     2512.964     2279.941        1.743        0.411      163.207       34.802        0.045      347.340       26.236      865.831
07/29/2014  23:04:00      169.110      123.266       13.195       53.962       35.162       34.319     2911.916     1236.387     1177.802        2.465        0.266      209.267       17.872        0.007      347.609       26.701      865.849
07/29/2014  23:05:00      199.582       91.098       22.863       78.676       64.897       42.541     6189.989     4211.647     1809.748        3.043        0.611      219.390       20.224        0.008      347.518       26.541      865.845
07/29/2014  23:06:00      155.416       65.799       41.563       68.682       58.205       59.735     4717.157     3387.805     3568.258        2.094        0.584      168.771       45.857        0.074      347.306       26.177      865.839
07/29/2014  23:07:00      163.889       70.906       13.328       74.500       60.905       42.764     5550.302     3709.439     1828.720        2.157        0.554      178.570       29.858        0.028      347.393       26.328      865.816
07/29/2014  23:08:00      249.703      139.871       38.758       82.032       72.777       49.468     6729.288     5296.431     2447.072        4.894        0.724      286.209       24.337        0.007      347.480       26.477      865.809
07/29/2014  23:09:00      233.454      101.256       30.454       77.818       52.730       51.499     6055.660     2780.428     2652.196        3.858        0.574      254.467       30.862        0.015      347.376       26.297      865.797
07/29/2014  23:10:00      152.264       88.860       61.040       60.457       48.224       58.907     3655.100     2325.601     3470.050        2.213        0.473      176.297       31.210        0.031      347.407       26.352      865.793
07/29/2014  23:11:00      115.689       55.377       43.037       78.943       43.458       51.247     6232.050     1888.636     2626.206        1.452        0.537      128.260       39.740        0.096      347.415       26.367      865.765
07/29/2014  23:12:00       64.010       44.733       39.118       44.486       32.331       31.891     1979.027     1045.326     1017.065        0.583        0.202       78.092       23.089        0.087      347.211       26.018      865.745
07/29/2014  23:13:00       87.402       36.462       47.075       68.503       38.663       47.763     4692.634     1494.802     2281.261        0.982        0.423       94.703       33.185        0.123      347.202       26.002      865.738
07/29/2014  23:14:00       88.857       47.256       51.608       65.030       56.698       43.216     4228.946     3214.631     1867.649        1.105        0.466      100.642       36.296        0.130      347.399       26.340      865.739
07/29/2014  23:15:00       63.931       14.326       26.413       45.308       32.919       31.282     2052.831     1083.652      978.594        0.455        0.206       65.517       21.511        0.108      347.436       26.403      865.736
07/29/2014  23:16:00        1.300       13.445       20.839       32.778       25.352       15.610     1074.408      642.743      243.679        0.129        0.098       13.508        6.559        0.236      347.366       26.283      865.724
07/29/2014  23:17:00      -30.880       79.292      -14.465       17.353       29.092       13.551      301.124      846.326      183.643        0.439        0.067       85.092       13.907        0.027      347.023       25.691      865.718
07/29/2014  23:18:00      -21.845       95.085      -18.218       28.672       27.267       10.278      822.090      743.499      105.633        0.576        0.084       97.562        7.655        0.006      347.084       25.797      865.726
07/29/2014  23:19:00        8.167       59.961       -8.316       16.716       23.632        9.849      279.439      558.449       96.999        0.233        0.047       60.515        7.591        0.016      347.194       25.988      865.719
07/29/2014  23:20:00       32.759       17.938        7.193       16.125       12.585       12.488      260.014      158.377      155.955        0.101        0.029       37.348        7.315        0.038      347.168       25.942      865.694
07/29/2014  23:21:00       34.102       13.856       10.744       26.882       14.317        9.398      722.650      204.975       88.314        0.124        0.051       36.810        8.028        0.048      347.069       25.772      865.672
07/29/2014  23:22:00      -21.238        0.717        5.526       10.173       14.444       10.971      103.485      208.620      120.357        0.046        0.022       21.250        5.802        0.075      346.911       25.499      865.676
07/29/2014  23:23:00      -49.902       -4.368      -10.666        8.688        6.614        5.873       75.480       43.748       34.489        0.139        0.008       50.093        2.538        0.003      347.027       25.699      865.691
07/29/2014  23:24:00      -65.815      -15.494      -12.315       10.083       10.185        6.315      101.671      103.742       39.884        0.248        0.012       67.614        4.367        0.004      346.911       25.498      865.687
07/29/2014  23:25:00      -80.343      -50.307       -2.804       15.456       15.983        7.524      238.889      255.461       56.605        0.477        0.028       94.793        4.594        0.002      347.045       25.730      865.682
07/29/2014  23:26:00      -60.659      -39.831       -3.940       16.520       10.946        8.187      272.895      119.810       67.024        0.287        0.023       72.568        6.700        0.009      347.123       25.865      865.677
07/29/2014  23:27:00      -20.717      -36.764        0.397       16.528       21.150       10.450      273.177      447.323      109.210        0.131        0.041       42.200        4.745        0.013      347.322       26.206      865.678
07/29/2014  23:28:00       12.422       -6.855      -14.101       16.931       11.657        7.728      286.651      135.885       59.724        0.044        0.024       14.187        5.591        0.155      347.374       26.295      865.686
07/29/2014  23:29:00       11.623       18.892        0.061        6.087       16.412        9.073       37.054      269.350       82.326        0.044        0.019       22.181        4.894        0.049      347.378       26.303      865.690
07/29/2014  23:30:00       13.026       71.040       -7.409        9.590       21.359        5.930       91.967      456.193       35.166        0.293        0.029       72.225        8.985        0.015      347.338       26.236      865.701
07/29/2014  23:31:00       26.999       57.467      -12.380       18.771       30.712       11.189      352.335      943.220      125.194        0.280        0.071       63.493       14.229        0.050      347.321       26.203      865.710
07/29/2014  23:32:00       -9.362        1.352       -4.633       11.820       15.200        4.750      139.709      231.038       22.558        0.025        0.020        9.459        5.602        0.351      347.374       26.295      865.725
07/29/2014  23:33:00      -21.625        1.134       -6.417       11.968        8.497        6.695      143.226       72.199       44.829        0.039        0.013       21.654        2.343        0.012      347.225       26.040      865.733
07/29/2014  23:34:00      -58.515      -11.692       -5.079       16.595       16.433        7.557      275.385      270.042       57.107        0.209        0.030       59.671        5.859        0.010      347.002       25.655      865.740
07/29/2014  23:35:00      -72.035      -25.840       -4.454       23.913       19.245        9.223      571.820      370.368       85.057        0.345        0.051       76.530        4.930        0.004      346.945       25.559      865.740
07/29/2014  23:36:00      -57.271      -28.438       -1.736       20.682        8.867        8.694      427.749       78.625       75.579        0.234        0.029       63.943        7.565        0.014      346.927       25.524      865.737
07/29/2014  23:37:00      -34.870      -40.941        1.859       19.623       14.160       10.907      385.043      200.519      118.955        0.180        0.035       53.778        9.394        0.031      346.926       25.527      865.739
07/29/2014  23:38:00      -49.963      -30.550        1.082       13.186       15.124        9.825      173.875      228.729       96.540        0.196        0.025       58.563        6.665        0.013      346.876       25.439      865.743
07/29/2014  23:39:00      -19.508      -34.186       -0.328       11.748        7.695        7.490      138.017       59.207       56.105        0.090        0.013       39.360        4.611        0.014      346.921       25.518      865.742
07/29/2014  23:40:00      -12.706      -37.379       -1.920       15.897       18.950       10.626      252.701      359.098      112.906        0.114        0.036       39.480       11.441        0.084      346.971       25.602      865.734
07/29/2014  23:41:00      -50.678      -40.840        1.094       22.930       16.778       14.754      525.764      281.516      217.668        0.263        0.051       65.086       11.702        0.032      347.002       25.656      865.738
07/29/2014  23:42:00      -83.870      -31.173       -3.089       46.771       24.813       18.500     2187.551      615.666      342.261        0.558        0.157       89.476       19.117        0.046      346.816       25.335      865.742
07/29/2014  23:43:00     -103.482      -19.581       -7.509       36.943       27.652       19.840     1364.784      764.643      393.635        0.684        0.126      105.318       17.080        0.026      346.571       24.914      865.763
07/29/2014  23:44:00     -120.190      -14.117       -4.380       43.751       29.986       20.642     1914.131      899.181      426.112        0.895        0.162      121.016       19.938        0.027      346.770       25.255      865.758
07/29/2014  23:45:00      -47.070      -38.076        5.477       30.349       26.195       17.815      921.034      686.158      317.362        0.281        0.096       60.542       16.039        0.070      346.673       25.089      865.748
07/29/2014  23:46:00      -96.066       -2.670       -0.010       48.806       37.246       17.770     2382.009     1387.265      315.782        0.666        0.204       96.103       24.237        0.064      346.677       25.097      865.738
07/29/2014  23:47:00     -116.046      -13.153      -15.865       38.435       34.134       18.685     1477.270     1165.096      349.140        0.844        0.150      116.789       20.513        0.031      346.667       25.081      865.728
07/29/2014  23:48:00     -114.492      -25.092      -12.204       31.171       30.642       20.012      971.611      938.908      400.470        0.810        0.116      117.209       18.442        0.025      346.684       25.108      865.714
07/29/2014  23:49:00     -131.716      -41.018      -11.676       24.137       27.851       15.937      582.614      775.658      253.972        1.039        0.081      137.955        9.433        0.005      346.604       24.970      865.699
07/29/2014  23:50:00     -104.958      -44.090       -6.192       44.465       20.142       23.309     1977.096      405.709      543.333        0.796        0.146      113.842       26.911        0.056      346.489       24.773      865.673
07/29/2014  23:51:00      -96.563      -27.076       -2.257       34.868       22.638       19.824     1215.759      512.501      393.008        0.609        0.106      100.287       20.086        0.040      346.538       24.858      865.650
07/29/2014  23:52:00      -71.728      -50.261        1.963       35.633       27.927       17.189     1269.696      779.918      295.468        0.501        0.117       87.584       15.239        0.030      346.491       24.777      865.628
07/29/2014  23:53:00      -96.848      -46.539       -3.339       37.581       27.246       17.852     1412.333      742.339      318.700        0.701        0.124      107.450       18.543        0.030      346.445       24.698      865.631
07/29/2014  23:54:00      -96.267       17.868       -1.962       60.175       37.237       23.017     3621.038     1386.608      529.783        0.756        0.277       97.911       28.478        0.085      346.282       24.416      865.626
07/29/2014  23:55:00     -160.310       -0.370      -13.365       41.739       43.758       22.590     1742.131     1914.802      510.321        1.502        0.208      160.310       19.796        0.015      346.423       24.658      865.615
07/29/2014  23:56:00      -89.143      -42.694       -8.942       55.649       42.099       31.317     3096.808     1772.309      980.784        0.785        0.292       98.839       28.089        0.081      346.273       24.402      865.601
07/29/2014  23:57:00     -119.431        1.419      -10.923       51.207       47.257       27.875     2622.170     2233.216      777.038        1.001        0.282      119.440       26.910        0.051      346.346       24.527      865.599
07/29/2014  23:58:00     -193.929        1.576      -17.778       50.383       45.327       23.751     2538.439     2054.529      564.119        2.154        0.258      193.935       19.382        0.010      346.500       24.789      865.598
07/29/2014  23:59:00     -177.214       -1.170      -20.049       47.196       31.269       21.490     2227.437      977.741      461.806        1.774        0.183      177.218       17.188        0.009      346.601       24.966      865.593
